<?xml version="1.0" encoding="UTF-8" standalone="no" ?>
<gpx xmlns="http://www.topografix.com/GPX/1/1" xmlns:xsi="http://www.w3.org/2001/XMLSchema-instance" xsi:schemaLocation="http://www.topografix.com/GPX/1/1 http://www.topografix.com/GPX/1/1/gpx.xsd" version="1.1" creator="VisuGPX - https://www.visugpx.com">
  <metadata>
    <name>Randonnée semi-nocturne La Vallée</name>
    <desc><![CDATA[Petite randonnée sympathique dans un petit village qui mérite d\'être connu. ]]></desc>
  </metadata>
  <trk>
    <name><![CDATA[La Vallée]]></name>
    <desc><![CDATA[]]></desc>
    <trkseg>
      <trkpt lat="45.89096" lon="-0.84057">
        <ele>6</ele>
        <time>2014-06-28T16:42:06.961Z</time>
      </trkpt>
      <trkpt lat="45.89104" lon="-0.84056">
        <ele>5</ele>
        <time>2014-06-28T16:42:36.022Z</time>
      </trkpt>
      <trkpt lat="45.89105" lon="-0.84057">
        <ele>5</ele>
        <time>2014-06-28T16:42:36.976Z</time>
      </trkpt>
      <trkpt lat="45.89113" lon="-0.84054">
        <ele>5</ele>
        <time>2014-06-28T16:42:46.976Z</time>
      </trkpt>
      <trkpt lat="45.89115" lon="-0.8405">
        <ele>5</ele>
        <time>2014-06-28T16:42:47.979Z</time>
      </trkpt>
      <trkpt lat="45.89122" lon="-0.84055">
        <ele>5</ele>
        <time>2014-06-28T16:42:54.974Z</time>
      </trkpt>
      <trkpt lat="45.89125" lon="-0.84056">
        <ele>5</ele>
        <time>2014-06-28T16:42:55.958Z</time>
      </trkpt>
      <trkpt lat="45.89127" lon="-0.84067">
        <ele>5</ele>
        <time>2014-06-28T16:43:02.965Z</time>
      </trkpt>
      <trkpt lat="45.89128" lon="-0.84069">
        <ele>5</ele>
        <time>2014-06-28T16:43:03.955Z</time>
      </trkpt>
      <trkpt lat="45.89133" lon="-0.84078">
        <ele>5</ele>
        <time>2014-06-28T16:43:10.977Z</time>
      </trkpt>
      <trkpt lat="45.89134" lon="-0.8408">
        <ele>5</ele>
        <time>2014-06-28T16:43:11.955Z</time>
      </trkpt>
      <trkpt lat="45.89133" lon="-0.84092">
        <ele>5</ele>
        <time>2014-06-28T16:43:18.967Z</time>
      </trkpt>
      <trkpt lat="45.89133" lon="-0.84094">
        <ele>5</ele>
        <time>2014-06-28T16:43:19.950Z</time>
      </trkpt>
      <trkpt lat="45.89135" lon="-0.84106">
        <ele>5</ele>
        <time>2014-06-28T16:43:28.022Z</time>
      </trkpt>
      <trkpt lat="45.89135" lon="-0.84108">
        <ele>5</ele>
        <time>2014-06-28T16:43:28.957Z</time>
      </trkpt>
      <trkpt lat="45.89139" lon="-0.84118">
        <ele>5</ele>
        <time>2014-06-28T16:43:37.088Z</time>
      </trkpt>
      <trkpt lat="45.89139" lon="-0.8412">
        <ele>5</ele>
        <time>2014-06-28T16:43:37.975Z</time>
      </trkpt>
      <trkpt lat="45.89143" lon="-0.84131">
        <ele>5</ele>
        <time>2014-06-28T16:43:46.974Z</time>
      </trkpt>
      <trkpt lat="45.89143" lon="-0.84132">
        <ele>5</ele>
        <time>2014-06-28T16:43:47.934Z</time>
      </trkpt>
      <trkpt lat="45.89145" lon="-0.84143">
        <ele>5</ele>
        <time>2014-06-28T16:43:56.020Z</time>
      </trkpt>
      <trkpt lat="45.89146" lon="-0.84145">
        <ele>5</ele>
        <time>2014-06-28T16:43:56.980Z</time>
      </trkpt>
      <trkpt lat="45.8915" lon="-0.84155">
        <ele>5</ele>
        <time>2014-06-28T16:44:03.986Z</time>
      </trkpt>
      <trkpt lat="45.89149" lon="-0.84158">
        <ele>5</ele>
        <time>2014-06-28T16:44:04.973Z</time>
      </trkpt>
      <trkpt lat="45.89153" lon="-0.84169">
        <ele>5</ele>
        <time>2014-06-28T16:44:12.829Z</time>
      </trkpt>
      <trkpt lat="45.89153" lon="-0.84171">
        <ele>5</ele>
        <time>2014-06-28T16:44:12.978Z</time>
      </trkpt>
      <trkpt lat="45.89152" lon="-0.84182">
        <ele>5</ele>
        <time>2014-06-28T16:44:17.897Z</time>
      </trkpt>
      <trkpt lat="45.89152" lon="-0.84186">
        <ele>5</ele>
        <time>2014-06-28T16:44:17.967Z</time>
      </trkpt>
      <trkpt lat="45.89154" lon="-0.84198">
        <ele>5</ele>
        <time>2014-06-28T16:44:23.984Z</time>
      </trkpt>
      <trkpt lat="45.89156" lon="-0.842">
        <ele>5</ele>
        <time>2014-06-28T16:44:24.967Z</time>
      </trkpt>
      <trkpt lat="45.89158" lon="-0.8421">
        <ele>5</ele>
        <time>2014-06-28T16:44:34.061Z</time>
      </trkpt>
      <trkpt lat="45.89159" lon="-0.84212">
        <ele>5</ele>
        <time>2014-06-28T16:44:34.972Z</time>
      </trkpt>
      <trkpt lat="45.89164" lon="-0.84222">
        <ele>5</ele>
        <time>2014-06-28T16:44:46.003Z</time>
      </trkpt>
      <trkpt lat="45.89163" lon="-0.84224">
        <ele>5</ele>
        <time>2014-06-28T16:44:46.958Z</time>
      </trkpt>
      <trkpt lat="45.89162" lon="-0.84236">
        <ele>5</ele>
        <time>2014-06-28T16:44:57.981Z</time>
      </trkpt>
      <trkpt lat="45.89163" lon="-0.84237">
        <ele>5</ele>
        <time>2014-06-28T16:44:58.979Z</time>
      </trkpt>
      <trkpt lat="45.89167" lon="-0.84247">
        <ele>5</ele>
        <time>2014-06-28T16:45:05.979Z</time>
      </trkpt>
      <trkpt lat="45.89168" lon="-0.84249">
        <ele>5</ele>
        <time>2014-06-28T16:45:06.961Z</time>
      </trkpt>
      <trkpt lat="45.89171" lon="-0.8426">
        <ele>5</ele>
        <time>2014-06-28T16:45:16.021Z</time>
      </trkpt>
      <trkpt lat="45.89171" lon="-0.84262">
        <ele>5</ele>
        <time>2014-06-28T16:45:16.968Z</time>
      </trkpt>
      <trkpt lat="45.89175" lon="-0.84272">
        <ele>5</ele>
        <time>2014-06-28T16:45:25.000Z</time>
      </trkpt>
      <trkpt lat="45.89175" lon="-0.84273">
        <ele>5</ele>
        <time>2014-06-28T16:45:25.969Z</time>
      </trkpt>
      <trkpt lat="45.89177" lon="-0.84285">
        <ele>5</ele>
        <time>2014-06-28T16:45:35.000Z</time>
      </trkpt>
      <trkpt lat="45.89177" lon="-0.84288">
        <ele>5</ele>
        <time>2014-06-28T16:45:35.961Z</time>
      </trkpt>
      <trkpt lat="45.89183" lon="-0.84296">
        <ele>5</ele>
        <time>2014-06-28T16:45:44.000Z</time>
      </trkpt>
      <trkpt lat="45.89183" lon="-0.84298">
        <ele>5</ele>
        <time>2014-06-28T16:45:44.969Z</time>
      </trkpt>
      <trkpt lat="45.89178" lon="-0.84307">
        <ele>5</ele>
        <time>2014-06-28T16:45:50.973Z</time>
      </trkpt>
      <trkpt lat="45.89177" lon="-0.84308">
        <ele>5</ele>
        <time>2014-06-28T16:45:51.959Z</time>
      </trkpt>
      <trkpt lat="45.89169" lon="-0.84311">
        <ele>5</ele>
        <time>2014-06-28T16:46:00.033Z</time>
      </trkpt>
      <trkpt lat="45.89167" lon="-0.84311">
        <ele>5</ele>
        <time>2014-06-28T16:46:00.980Z</time>
      </trkpt>
      <trkpt lat="45.89159" lon="-0.84314">
        <ele>5</ele>
        <time>2014-06-28T16:46:07.934Z</time>
      </trkpt>
      <trkpt lat="45.89157" lon="-0.84315">
        <ele>5</ele>
        <time>2014-06-28T16:46:08.951Z</time>
      </trkpt>
      <trkpt lat="45.89149" lon="-0.84317">
        <ele>5</ele>
        <time>2014-06-28T16:46:15.964Z</time>
      </trkpt>
      <trkpt lat="45.89148" lon="-0.84318">
        <ele>5</ele>
        <time>2014-06-28T16:46:16.958Z</time>
      </trkpt>
      <trkpt lat="45.89139" lon="-0.84321">
        <ele>5</ele>
        <time>2014-06-28T16:46:23.985Z</time>
      </trkpt>
      <trkpt lat="45.89138" lon="-0.84322">
        <ele>5</ele>
        <time>2014-06-28T16:46:24.925Z</time>
      </trkpt>
      <trkpt lat="45.8913" lon="-0.84324">
        <ele>5</ele>
        <time>2014-06-28T16:46:32.958Z</time>
      </trkpt>
      <trkpt lat="45.89129" lon="-0.84324">
        <ele>5</ele>
        <time>2014-06-28T16:46:33.011Z</time>
      </trkpt>
      <trkpt lat="45.89122" lon="-0.84327">
        <ele>5</ele>
        <time>2014-06-28T16:46:39.058Z</time>
      </trkpt>
      <trkpt lat="45.89121" lon="-0.84328">
        <ele>5</ele>
        <time>2014-06-28T16:46:39.970Z</time>
      </trkpt>
      <trkpt lat="45.89112" lon="-0.8433">
        <ele>5</ele>
        <time>2014-06-28T16:46:46.972Z</time>
      </trkpt>
      <trkpt lat="45.89111" lon="-0.8433">
        <ele>5</ele>
        <time>2014-06-28T16:46:47.971Z</time>
      </trkpt>
      <trkpt lat="45.89103" lon="-0.84332">
        <ele>4</ele>
        <time>2014-06-28T16:46:55.001Z</time>
      </trkpt>
      <trkpt lat="45.89102" lon="-0.84332">
        <ele>4</ele>
        <time>2014-06-28T16:46:55.959Z</time>
      </trkpt>
      <trkpt lat="45.89094" lon="-0.84332">
        <ele>4</ele>
        <time>2014-06-28T16:47:02.984Z</time>
      </trkpt>
      <trkpt lat="45.89091" lon="-0.84334">
        <ele>4</ele>
        <time>2014-06-28T16:47:03.961Z</time>
      </trkpt>
      <trkpt lat="45.89082" lon="-0.84335">
        <ele>4</ele>
        <time>2014-06-28T16:47:13.993Z</time>
      </trkpt>
      <trkpt lat="45.89081" lon="-0.84334">
        <ele>4</ele>
        <time>2014-06-28T16:47:14.958Z</time>
      </trkpt>
      <trkpt lat="45.89075" lon="-0.84338">
        <ele>4</ele>
        <time>2014-06-28T16:47:21.022Z</time>
      </trkpt>
      <trkpt lat="45.89072" lon="-0.8434">
        <ele>4</ele>
        <time>2014-06-28T16:47:21.964Z</time>
      </trkpt>
      <trkpt lat="45.89067" lon="-0.84349">
        <ele>4</ele>
        <time>2014-06-28T16:47:27.000Z</time>
      </trkpt>
      <trkpt lat="45.89066" lon="-0.84351">
        <ele>4</ele>
        <time>2014-06-28T16:47:27.956Z</time>
      </trkpt>
      <trkpt lat="45.89061" lon="-0.84357">
        <ele>4</ele>
        <time>2014-06-28T16:47:34.988Z</time>
      </trkpt>
      <trkpt lat="45.89059" lon="-0.8436">
        <ele>4</ele>
        <time>2014-06-28T16:47:35.979Z</time>
      </trkpt>
      <trkpt lat="45.89051" lon="-0.84365">
        <ele>4</ele>
        <time>2014-06-28T16:47:45.971Z</time>
      </trkpt>
      <trkpt lat="45.8905" lon="-0.84366">
        <ele>4</ele>
        <time>2014-06-28T16:47:46.960Z</time>
      </trkpt>
      <trkpt lat="45.89043" lon="-0.84373">
        <ele>4</ele>
        <time>2014-06-28T16:47:54.973Z</time>
      </trkpt>
      <trkpt lat="45.89042" lon="-0.84375">
        <ele>4</ele>
        <time>2014-06-28T16:47:55.958Z</time>
      </trkpt>
      <trkpt lat="45.89034" lon="-0.84379">
        <ele>4</ele>
        <time>2014-06-28T16:48:02.979Z</time>
      </trkpt>
      <trkpt lat="45.89033" lon="-0.84381">
        <ele>4</ele>
        <time>2014-06-28T16:48:03.961Z</time>
      </trkpt>
      <trkpt lat="45.89026" lon="-0.84386">
        <ele>4</ele>
        <time>2014-06-28T16:48:11.169Z</time>
      </trkpt>
      <trkpt lat="45.89025" lon="-0.84386">
        <ele>4</ele>
        <time>2014-06-28T16:48:11.959Z</time>
      </trkpt>
      <trkpt lat="45.89019" lon="-0.84393">
        <ele>4</ele>
        <time>2014-06-28T16:48:18.998Z</time>
      </trkpt>
      <trkpt lat="45.89018" lon="-0.84395">
        <ele>4</ele>
        <time>2014-06-28T16:48:19.962Z</time>
      </trkpt>
      <trkpt lat="45.89014" lon="-0.84404">
        <ele>4</ele>
        <time>2014-06-28T16:48:27.900Z</time>
      </trkpt>
      <trkpt lat="45.89013" lon="-0.84406">
        <ele>4</ele>
        <time>2014-06-28T16:48:27.968Z</time>
      </trkpt>
      <trkpt lat="45.89008" lon="-0.84413">
        <ele>3</ele>
        <time>2014-06-28T16:48:34.000Z</time>
      </trkpt>
      <trkpt lat="45.89007" lon="-0.84415">
        <ele>3</ele>
        <time>2014-06-28T16:48:34.955Z</time>
      </trkpt>
      <trkpt lat="45.89001" lon="-0.84424">
        <ele>3</ele>
        <time>2014-06-28T16:48:42.972Z</time>
      </trkpt>
      <trkpt lat="45.89001" lon="-0.84427">
        <ele>3</ele>
        <time>2014-06-28T16:48:43.030Z</time>
      </trkpt>
      <trkpt lat="45.88999" lon="-0.84439">
        <ele>3</ele>
        <time>2014-06-28T16:48:52.761Z</time>
      </trkpt>
      <trkpt lat="45.88998" lon="-0.8444">
        <ele>3</ele>
        <time>2014-06-28T16:48:52.945Z</time>
      </trkpt>
      <trkpt lat="45.88992" lon="-0.84446">
        <ele>3</ele>
        <time>2014-06-28T16:48:57.825Z</time>
      </trkpt>
      <trkpt lat="45.8899" lon="-0.84447">
        <ele>3</ele>
        <time>2014-06-28T16:48:57.943Z</time>
      </trkpt>
      <trkpt lat="45.88982" lon="-0.84452">
        <ele>4</ele>
        <time>2014-06-28T16:49:02.978Z</time>
      </trkpt>
      <trkpt lat="45.88981" lon="-0.84452">
        <ele>4</ele>
        <time>2014-06-28T16:49:03.958Z</time>
      </trkpt>
      <trkpt lat="45.88973" lon="-0.84453">
        <ele>4</ele>
        <time>2014-06-28T16:49:11.000Z</time>
      </trkpt>
      <trkpt lat="45.88972" lon="-0.84454">
        <ele>4</ele>
        <time>2014-06-28T16:49:11.973Z</time>
      </trkpt>
      <trkpt lat="45.88963" lon="-0.84455">
        <ele>4</ele>
        <time>2014-06-28T16:49:18.985Z</time>
      </trkpt>
      <trkpt lat="45.88962" lon="-0.84455">
        <ele>4</ele>
        <time>2014-06-28T16:49:19.960Z</time>
      </trkpt>
      <trkpt lat="45.88954" lon="-0.84454">
        <ele>4</ele>
        <time>2014-06-28T16:49:28.038Z</time>
      </trkpt>
      <trkpt lat="45.88953" lon="-0.84454">
        <ele>4</ele>
        <time>2014-06-28T16:49:28.968Z</time>
      </trkpt>
      <trkpt lat="45.88944" lon="-0.8445">
        <ele>4</ele>
        <time>2014-06-28T16:49:36.004Z</time>
      </trkpt>
      <trkpt lat="45.88943" lon="-0.84449">
        <ele>4</ele>
        <time>2014-06-28T16:49:37.085Z</time>
      </trkpt>
      <trkpt lat="45.88935" lon="-0.84446">
        <ele>4</ele>
        <time>2014-06-28T16:49:43.145Z</time>
      </trkpt>
      <trkpt lat="45.88934" lon="-0.84446">
        <ele>4</ele>
        <time>2014-06-28T16:49:43.945Z</time>
      </trkpt>
      <trkpt lat="45.88926" lon="-0.84443">
        <ele>4</ele>
        <time>2014-06-28T16:49:49.029Z</time>
      </trkpt>
      <trkpt lat="45.88925" lon="-0.84442">
        <ele>4</ele>
        <time>2014-06-28T16:49:49.959Z</time>
      </trkpt>
      <trkpt lat="45.88917" lon="-0.84442">
        <ele>4</ele>
        <time>2014-06-28T16:49:54.987Z</time>
      </trkpt>
      <trkpt lat="45.88915" lon="-0.84443">
        <ele>4</ele>
        <time>2014-06-28T16:49:55.963Z</time>
      </trkpt>
      <trkpt lat="45.88908" lon="-0.84441">
        <ele>4</ele>
        <time>2014-06-28T16:50:02.754Z</time>
      </trkpt>
      <trkpt lat="45.88905" lon="-0.84439">
        <ele>4</ele>
        <time>2014-06-28T16:50:02.959Z</time>
      </trkpt>
      <trkpt lat="45.88899" lon="-0.84449">
        <ele>4</ele>
        <time>2014-06-28T16:50:11.014Z</time>
      </trkpt>
      <trkpt lat="45.88899" lon="-0.8445">
        <ele>4</ele>
        <time>2014-06-28T16:50:11.962Z</time>
      </trkpt>
      <trkpt lat="45.8889" lon="-0.84453">
        <ele>4</ele>
        <time>2014-06-28T16:50:19.006Z</time>
      </trkpt>
      <trkpt lat="45.88889" lon="-0.84454">
        <ele>4</ele>
        <time>2014-06-28T16:50:19.958Z</time>
      </trkpt>
      <trkpt lat="45.88882" lon="-0.84457">
        <ele>4</ele>
        <time>2014-06-28T16:50:26.020Z</time>
      </trkpt>
      <trkpt lat="45.88881" lon="-0.84458">
        <ele>4</ele>
        <time>2014-06-28T16:50:26.962Z</time>
      </trkpt>
      <trkpt lat="45.88873" lon="-0.84462">
        <ele>4</ele>
        <time>2014-06-28T16:50:32.988Z</time>
      </trkpt>
      <trkpt lat="45.88872" lon="-0.84463">
        <ele>4</ele>
        <time>2014-06-28T16:50:33.963Z</time>
      </trkpt>
      <trkpt lat="45.88864" lon="-0.84469">
        <ele>4</ele>
        <time>2014-06-28T16:50:40.981Z</time>
      </trkpt>
      <trkpt lat="45.88863" lon="-0.8447">
        <ele>4</ele>
        <time>2014-06-28T16:50:41.964Z</time>
      </trkpt>
      <trkpt lat="45.88857" lon="-0.84476">
        <ele>4</ele>
        <time>2014-06-28T16:50:49.005Z</time>
      </trkpt>
      <trkpt lat="45.88855" lon="-0.84477">
        <ele>4</ele>
        <time>2014-06-28T16:50:49.965Z</time>
      </trkpt>
      <trkpt lat="45.88847" lon="-0.84481">
        <ele>4</ele>
        <time>2014-06-28T16:50:57.712Z</time>
      </trkpt>
      <trkpt lat="45.88846" lon="-0.84482">
        <ele>4</ele>
        <time>2014-06-28T16:50:57.960Z</time>
      </trkpt>
      <trkpt lat="45.88839" lon="-0.84487">
        <ele>4</ele>
        <time>2014-06-28T16:51:03.006Z</time>
      </trkpt>
      <trkpt lat="45.88838" lon="-0.84488">
        <ele>4</ele>
        <time>2014-06-28T16:51:03.967Z</time>
      </trkpt>
      <trkpt lat="45.8883" lon="-0.84491">
        <ele>4</ele>
        <time>2014-06-28T16:51:10.980Z</time>
      </trkpt>
      <trkpt lat="45.88829" lon="-0.84491">
        <ele>4</ele>
        <time>2014-06-28T16:51:11.978Z</time>
      </trkpt>
      <trkpt lat="45.88822" lon="-0.84496">
        <ele>4</ele>
        <time>2014-06-28T16:51:17.983Z</time>
      </trkpt>
      <trkpt lat="45.8882" lon="-0.84496">
        <ele>4</ele>
        <time>2014-06-28T16:51:18.961Z</time>
      </trkpt>
      <trkpt lat="45.88812" lon="-0.84498">
        <ele>4</ele>
        <time>2014-06-28T16:51:25.081Z</time>
      </trkpt>
      <trkpt lat="45.88811" lon="-0.84498">
        <ele>4</ele>
        <time>2014-06-28T16:51:25.978Z</time>
      </trkpt>
      <trkpt lat="45.88803" lon="-0.84502">
        <ele>5</ele>
        <time>2014-06-28T16:51:36.002Z</time>
      </trkpt>
      <trkpt lat="45.88801" lon="-0.84503">
        <ele>5</ele>
        <time>2014-06-28T16:51:36.964Z</time>
      </trkpt>
      <trkpt lat="45.88793" lon="-0.84508">
        <ele>5</ele>
        <time>2014-06-28T16:51:44.002Z</time>
      </trkpt>
      <trkpt lat="45.88792" lon="-0.84508">
        <ele>5</ele>
        <time>2014-06-28T16:51:44.969Z</time>
      </trkpt>
      <trkpt lat="45.88785" lon="-0.84512">
        <ele>5</ele>
        <time>2014-06-28T16:51:50.979Z</time>
      </trkpt>
      <trkpt lat="45.88784" lon="-0.84513">
        <ele>5</ele>
        <time>2014-06-28T16:51:51.964Z</time>
      </trkpt>
      <trkpt lat="45.88776" lon="-0.84518">
        <ele>5</ele>
        <time>2014-06-28T16:51:59.000Z</time>
      </trkpt>
      <trkpt lat="45.88775" lon="-0.84518">
        <ele>5</ele>
        <time>2014-06-28T16:51:59.966Z</time>
      </trkpt>
      <trkpt lat="45.88768" lon="-0.84522">
        <ele>5</ele>
        <time>2014-06-28T16:52:07.809Z</time>
      </trkpt>
      <trkpt lat="45.88766" lon="-0.84523">
        <ele>5</ele>
        <time>2014-06-28T16:52:07.935Z</time>
      </trkpt>
      <trkpt lat="45.88761" lon="-0.84532">
        <ele>5</ele>
        <time>2014-06-28T16:52:17.943Z</time>
      </trkpt>
      <trkpt lat="45.88762" lon="-0.84534">
        <ele>5</ele>
        <time>2014-06-28T16:52:18.957Z</time>
      </trkpt>
      <trkpt lat="45.88769" lon="-0.8454">
        <ele>5</ele>
        <time>2014-06-28T16:52:26.003Z</time>
      </trkpt>
      <trkpt lat="45.88771" lon="-0.8454">
        <ele>5</ele>
        <time>2014-06-28T16:52:26.960Z</time>
      </trkpt>
      <trkpt lat="45.88777" lon="-0.84549">
        <ele>5</ele>
        <time>2014-06-28T16:52:40.001Z</time>
      </trkpt>
      <trkpt lat="45.88777" lon="-0.8455">
        <ele>5</ele>
        <time>2014-06-28T16:52:40.965Z</time>
      </trkpt>
      <trkpt lat="45.88784" lon="-0.84558">
        <ele>5</ele>
        <time>2014-06-28T16:52:49.981Z</time>
      </trkpt>
      <trkpt lat="45.88784" lon="-0.8456">
        <ele>5</ele>
        <time>2014-06-28T16:52:50.962Z</time>
      </trkpt>
      <trkpt lat="45.88789" lon="-0.84569">
        <ele>5</ele>
        <time>2014-06-28T16:52:57.704Z</time>
      </trkpt>
      <trkpt lat="45.8879" lon="-0.84571">
        <ele>5</ele>
        <time>2014-06-28T16:52:57.960Z</time>
      </trkpt>
      <trkpt lat="45.88794" lon="-0.84581">
        <ele>6</ele>
        <time>2014-06-28T16:53:03.008Z</time>
      </trkpt>
      <trkpt lat="45.88795" lon="-0.84583">
        <ele>6</ele>
        <time>2014-06-28T16:53:03.975Z</time>
      </trkpt>
      <trkpt lat="45.888" lon="-0.84592">
        <ele>6</ele>
        <time>2014-06-28T16:53:10.040Z</time>
      </trkpt>
      <trkpt lat="45.88801" lon="-0.84594">
        <ele>6</ele>
        <time>2014-06-28T16:53:10.968Z</time>
      </trkpt>
      <trkpt lat="45.88805" lon="-0.84605">
        <ele>6</ele>
        <time>2014-06-28T16:53:17.817Z</time>
      </trkpt>
      <trkpt lat="45.88806" lon="-0.84607">
        <ele>6</ele>
        <time>2014-06-28T16:53:17.971Z</time>
      </trkpt>
      <trkpt lat="45.8881" lon="-0.84618">
        <ele>6</ele>
        <time>2014-06-28T16:53:23.984Z</time>
      </trkpt>
      <trkpt lat="45.8881" lon="-0.84619">
        <ele>6</ele>
        <time>2014-06-28T16:53:25.044Z</time>
      </trkpt>
      <trkpt lat="45.88813" lon="-0.8463">
        <ele>7</ele>
        <time>2014-06-28T16:53:30.981Z</time>
      </trkpt>
      <trkpt lat="45.88814" lon="-0.84632">
        <ele>7</ele>
        <time>2014-06-28T16:53:31.980Z</time>
      </trkpt>
      <trkpt lat="45.88818" lon="-0.84643">
        <ele>7</ele>
        <time>2014-06-28T16:53:39.986Z</time>
      </trkpt>
      <trkpt lat="45.88818" lon="-0.84644">
        <ele>7</ele>
        <time>2014-06-28T16:53:40.968Z</time>
      </trkpt>
      <trkpt lat="45.88822" lon="-0.84654">
        <ele>7</ele>
        <time>2014-06-28T16:53:50.993Z</time>
      </trkpt>
      <trkpt lat="45.88823" lon="-0.84655">
        <ele>7</ele>
        <time>2014-06-28T16:53:51.965Z</time>
      </trkpt>
      <trkpt lat="45.88831" lon="-0.8466">
        <ele>7</ele>
        <time>2014-06-28T16:59:28.016Z</time>
      </trkpt>
      <trkpt lat="45.88832" lon="-0.8466">
        <ele>7</ele>
        <time>2014-06-28T16:59:28.961Z</time>
      </trkpt>
      <trkpt lat="45.88824" lon="-0.84656">
        <ele>7</ele>
        <time>2014-06-28T17:00:44.987Z</time>
      </trkpt>
      <trkpt lat="45.88823" lon="-0.84656">
        <ele>7</ele>
        <time>2014-06-28T17:00:45.987Z</time>
      </trkpt>
      <trkpt lat="45.88817" lon="-0.84648">
        <ele>7</ele>
        <time>2014-06-28T17:00:53.073Z</time>
      </trkpt>
      <trkpt lat="45.88816" lon="-0.84646">
        <ele>7</ele>
        <time>2014-06-28T17:00:53.970Z</time>
      </trkpt>
      <trkpt lat="45.88811" lon="-0.84638">
        <ele>7</ele>
        <time>2014-06-28T17:01:00.991Z</time>
      </trkpt>
      <trkpt lat="45.88809" lon="-0.84637">
        <ele>7</ele>
        <time>2014-06-28T17:01:01.978Z</time>
      </trkpt>
      <trkpt lat="45.88805" lon="-0.84626">
        <ele>7</ele>
        <time>2014-06-28T17:01:09.008Z</time>
      </trkpt>
      <trkpt lat="45.88805" lon="-0.84624">
        <ele>6</ele>
        <time>2014-06-28T17:01:09.975Z</time>
      </trkpt>
      <trkpt lat="45.88801" lon="-0.84613">
        <ele>6</ele>
        <time>2014-06-28T17:01:17.004Z</time>
      </trkpt>
      <trkpt lat="45.888" lon="-0.84611">
        <ele>6</ele>
        <time>2014-06-28T17:01:17.979Z</time>
      </trkpt>
      <trkpt lat="45.88795" lon="-0.846">
        <ele>6</ele>
        <time>2014-06-28T17:01:23.994Z</time>
      </trkpt>
      <trkpt lat="45.88795" lon="-0.84599">
        <ele>6</ele>
        <time>2014-06-28T17:01:24.975Z</time>
      </trkpt>
      <trkpt lat="45.8879" lon="-0.84588">
        <ele>6</ele>
        <time>2014-06-28T17:01:31.990Z</time>
      </trkpt>
      <trkpt lat="45.8879" lon="-0.84586">
        <ele>6</ele>
        <time>2014-06-28T17:01:32.975Z</time>
      </trkpt>
      <trkpt lat="45.88786" lon="-0.84577">
        <ele>6</ele>
        <time>2014-06-28T17:01:39.000Z</time>
      </trkpt>
      <trkpt lat="45.88785" lon="-0.84575">
        <ele>6</ele>
        <time>2014-06-28T17:01:39.969Z</time>
      </trkpt>
      <trkpt lat="45.8878" lon="-0.84566">
        <ele>5</ele>
        <time>2014-06-28T17:01:47.004Z</time>
      </trkpt>
      <trkpt lat="45.88779" lon="-0.84564">
        <ele>5</ele>
        <time>2014-06-28T17:01:48.054Z</time>
      </trkpt>
      <trkpt lat="45.88773" lon="-0.84555">
        <ele>5</ele>
        <time>2014-06-28T17:01:55.991Z</time>
      </trkpt>
      <trkpt lat="45.88772" lon="-0.84554">
        <ele>5</ele>
        <time>2014-06-28T17:01:56.975Z</time>
      </trkpt>
      <trkpt lat="45.88766" lon="-0.84545">
        <ele>5</ele>
        <time>2014-06-28T17:02:03.995Z</time>
      </trkpt>
      <trkpt lat="45.88765" lon="-0.84544">
        <ele>5</ele>
        <time>2014-06-28T17:02:04.978Z</time>
      </trkpt>
      <trkpt lat="45.88759" lon="-0.84536">
        <ele>5</ele>
        <time>2014-06-28T17:02:12.931Z</time>
      </trkpt>
      <trkpt lat="45.88758" lon="-0.84535">
        <ele>5</ele>
        <time>2014-06-28T17:02:12.992Z</time>
      </trkpt>
      <trkpt lat="45.88752" lon="-0.84526">
        <ele>5</ele>
        <time>2014-06-28T17:02:19.999Z</time>
      </trkpt>
      <trkpt lat="45.88751" lon="-0.84525">
        <ele>5</ele>
        <time>2014-06-28T17:02:20.971Z</time>
      </trkpt>
      <trkpt lat="45.88745" lon="-0.84517">
        <ele>5</ele>
        <time>2014-06-28T17:02:27.019Z</time>
      </trkpt>
      <trkpt lat="45.88744" lon="-0.84516">
        <ele>5</ele>
        <time>2014-06-28T17:02:27.978Z</time>
      </trkpt>
      <trkpt lat="45.88739" lon="-0.84508">
        <ele>5</ele>
        <time>2014-06-28T17:02:34.024Z</time>
      </trkpt>
      <trkpt lat="45.88738" lon="-0.84506">
        <ele>5</ele>
        <time>2014-06-28T17:02:34.995Z</time>
      </trkpt>
      <trkpt lat="45.88732" lon="-0.84496">
        <ele>5</ele>
        <time>2014-06-28T17:02:41.990Z</time>
      </trkpt>
      <trkpt lat="45.88732" lon="-0.84495">
        <ele>5</ele>
        <time>2014-06-28T17:02:42.975Z</time>
      </trkpt>
      <trkpt lat="45.88726" lon="-0.84486">
        <ele>5</ele>
        <time>2014-06-28T17:02:48.990Z</time>
      </trkpt>
      <trkpt lat="45.88725" lon="-0.84484">
        <ele>6</ele>
        <time>2014-06-28T17:02:49.987Z</time>
      </trkpt>
      <trkpt lat="45.88723" lon="-0.84472">
        <ele>6</ele>
        <time>2014-06-28T17:02:58.006Z</time>
      </trkpt>
      <trkpt lat="45.88722" lon="-0.84471">
        <ele>6</ele>
        <time>2014-06-28T17:02:58.977Z</time>
      </trkpt>
      <trkpt lat="45.88723" lon="-0.8446">
        <ele>6</ele>
        <time>2014-06-28T17:03:06.008Z</time>
      </trkpt>
      <trkpt lat="45.88723" lon="-0.84458">
        <ele>6</ele>
        <time>2014-06-28T17:03:07.000Z</time>
      </trkpt>
      <trkpt lat="45.88723" lon="-0.84446">
        <ele>6</ele>
        <time>2014-06-28T17:03:12.982Z</time>
      </trkpt>
      <trkpt lat="45.88723" lon="-0.84445">
        <ele>6</ele>
        <time>2014-06-28T17:03:13.036Z</time>
      </trkpt>
      <trkpt lat="45.88724" lon="-0.84433">
        <ele>6</ele>
        <time>2014-06-28T17:03:20.066Z</time>
      </trkpt>
      <trkpt lat="45.88724" lon="-0.84432">
        <ele>6</ele>
        <time>2014-06-28T17:03:20.988Z</time>
      </trkpt>
      <trkpt lat="45.88723" lon="-0.8442">
        <ele>6</ele>
        <time>2014-06-28T17:03:26.991Z</time>
      </trkpt>
      <trkpt lat="45.88723" lon="-0.84418">
        <ele>6</ele>
        <time>2014-06-28T17:03:27.978Z</time>
      </trkpt>
      <trkpt lat="45.88722" lon="-0.84406">
        <ele>6</ele>
        <time>2014-06-28T17:03:35.000Z</time>
      </trkpt>
      <trkpt lat="45.88722" lon="-0.84404">
        <ele>6</ele>
        <time>2014-06-28T17:03:35.978Z</time>
      </trkpt>
      <trkpt lat="45.8872" lon="-0.84392">
        <ele>6</ele>
        <time>2014-06-28T17:03:44.020Z</time>
      </trkpt>
      <trkpt lat="45.8872" lon="-0.8439">
        <ele>6</ele>
        <time>2014-06-28T17:03:44.982Z</time>
      </trkpt>
      <trkpt lat="45.88718" lon="-0.84379">
        <ele>6</ele>
        <time>2014-06-28T17:03:52.822Z</time>
      </trkpt>
      <trkpt lat="45.88718" lon="-0.84377">
        <ele>6</ele>
        <time>2014-06-28T17:03:52.981Z</time>
      </trkpt>
      <trkpt lat="45.88715" lon="-0.84367">
        <ele>6</ele>
        <time>2014-06-28T17:03:58.992Z</time>
      </trkpt>
      <trkpt lat="45.88714" lon="-0.84365">
        <ele>6</ele>
        <time>2014-06-28T17:03:59.984Z</time>
      </trkpt>
      <trkpt lat="45.88711" lon="-0.84354">
        <ele>6</ele>
        <time>2014-06-28T17:04:06.032Z</time>
      </trkpt>
      <trkpt lat="45.88711" lon="-0.84353">
        <ele>6</ele>
        <time>2014-06-28T17:04:06.981Z</time>
      </trkpt>
      <trkpt lat="45.88707" lon="-0.84341">
        <ele>6</ele>
        <time>2014-06-28T17:04:14.042Z</time>
      </trkpt>
      <trkpt lat="45.88707" lon="-0.8434">
        <ele>6</ele>
        <time>2014-06-28T17:04:15.000Z</time>
      </trkpt>
      <trkpt lat="45.88703" lon="-0.84328">
        <ele>6</ele>
        <time>2014-06-28T17:04:23.020Z</time>
      </trkpt>
      <trkpt lat="45.88702" lon="-0.84327">
        <ele>6</ele>
        <time>2014-06-28T17:04:23.081Z</time>
      </trkpt>
      <trkpt lat="45.88699" lon="-0.84316">
        <ele>6</ele>
        <time>2014-06-28T17:04:30.034Z</time>
      </trkpt>
      <trkpt lat="45.88698" lon="-0.84314">
        <ele>6</ele>
        <time>2014-06-28T17:04:30.981Z</time>
      </trkpt>
      <trkpt lat="45.88695" lon="-0.84303">
        <ele>6</ele>
        <time>2014-06-28T17:04:38.063Z</time>
      </trkpt>
      <trkpt lat="45.88695" lon="-0.84301">
        <ele>6</ele>
        <time>2014-06-28T17:04:38.970Z</time>
      </trkpt>
      <trkpt lat="45.88691" lon="-0.8429">
        <ele>6</ele>
        <time>2014-06-28T17:04:46.003Z</time>
      </trkpt>
      <trkpt lat="45.88691" lon="-0.84289">
        <ele>6</ele>
        <time>2014-06-28T17:04:46.990Z</time>
      </trkpt>
      <trkpt lat="45.88686" lon="-0.84278">
        <ele>6</ele>
        <time>2014-06-28T17:04:53.021Z</time>
      </trkpt>
      <trkpt lat="45.88685" lon="-0.84277">
        <ele>6</ele>
        <time>2014-06-28T17:04:53.980Z</time>
      </trkpt>
      <trkpt lat="45.88682" lon="-0.84266">
        <ele>6</ele>
        <time>2014-06-28T17:05:00.977Z</time>
      </trkpt>
      <trkpt lat="45.88681" lon="-0.84265">
        <ele>6</ele>
        <time>2014-06-28T17:05:01.989Z</time>
      </trkpt>
      <trkpt lat="45.88677" lon="-0.84255">
        <ele>6</ele>
        <time>2014-06-28T17:05:09.000Z</time>
      </trkpt>
      <trkpt lat="45.88676" lon="-0.84254">
        <ele>6</ele>
        <time>2014-06-28T17:05:09.983Z</time>
      </trkpt>
      <trkpt lat="45.88671" lon="-0.84244">
        <ele>6</ele>
        <time>2014-06-28T17:05:16.029Z</time>
      </trkpt>
      <trkpt lat="45.8867" lon="-0.84243">
        <ele>6</ele>
        <time>2014-06-28T17:05:16.998Z</time>
      </trkpt>
      <trkpt lat="45.88665" lon="-0.84232">
        <ele>6</ele>
        <time>2014-06-28T17:05:23.992Z</time>
      </trkpt>
      <trkpt lat="45.88665" lon="-0.84231">
        <ele>6</ele>
        <time>2014-06-28T17:05:24.961Z</time>
      </trkpt>
      <trkpt lat="45.8866" lon="-0.84222">
        <ele>7</ele>
        <time>2014-06-28T17:05:32.906Z</time>
      </trkpt>
      <trkpt lat="45.8866" lon="-0.84221">
        <ele>7</ele>
        <time>2014-06-28T17:05:32.965Z</time>
      </trkpt>
      <trkpt lat="45.88655" lon="-0.84211">
        <ele>7</ele>
        <time>2014-06-28T17:05:40.004Z</time>
      </trkpt>
      <trkpt lat="45.88654" lon="-0.8421">
        <ele>7</ele>
        <time>2014-06-28T17:05:40.977Z</time>
      </trkpt>
      <trkpt lat="45.88649" lon="-0.842">
        <ele>7</ele>
        <time>2014-06-28T17:05:48.038Z</time>
      </trkpt>
      <trkpt lat="45.88648" lon="-0.84198">
        <ele>7</ele>
        <time>2014-06-28T17:05:48.990Z</time>
      </trkpt>
      <trkpt lat="45.88643" lon="-0.84189">
        <ele>7</ele>
        <time>2014-06-28T17:05:56.011Z</time>
      </trkpt>
      <trkpt lat="45.88642" lon="-0.84187">
        <ele>7</ele>
        <time>2014-06-28T17:05:57.087Z</time>
      </trkpt>
      <trkpt lat="45.88638" lon="-0.84177">
        <ele>7</ele>
        <time>2014-06-28T17:06:04.006Z</time>
      </trkpt>
      <trkpt lat="45.88638" lon="-0.84176">
        <ele>7</ele>
        <time>2014-06-28T17:06:04.995Z</time>
      </trkpt>
      <trkpt lat="45.88634" lon="-0.84165">
        <ele>7</ele>
        <time>2014-06-28T17:06:12.783Z</time>
      </trkpt>
      <trkpt lat="45.88633" lon="-0.84163">
        <ele>7</ele>
        <time>2014-06-28T17:06:12.994Z</time>
      </trkpt>
      <trkpt lat="45.88629" lon="-0.84153">
        <ele>7</ele>
        <time>2014-06-28T17:06:20.039Z</time>
      </trkpt>
      <trkpt lat="45.88628" lon="-0.84152">
        <ele>7</ele>
        <time>2014-06-28T17:06:20.991Z</time>
      </trkpt>
      <trkpt lat="45.88625" lon="-0.84141">
        <ele>7</ele>
        <time>2014-06-28T17:06:27.971Z</time>
      </trkpt>
      <trkpt lat="45.88624" lon="-0.84139">
        <ele>7</ele>
        <time>2014-06-28T17:06:28.982Z</time>
      </trkpt>
      <trkpt lat="45.8862" lon="-0.84129">
        <ele>8</ele>
        <time>2014-06-28T17:06:36.039Z</time>
      </trkpt>
      <trkpt lat="45.8862" lon="-0.84128">
        <ele>8</ele>
        <time>2014-06-28T17:06:37.028Z</time>
      </trkpt>
      <trkpt lat="45.88616" lon="-0.84116">
        <ele>8</ele>
        <time>2014-06-28T17:06:45.018Z</time>
      </trkpt>
      <trkpt lat="45.88615" lon="-0.84115">
        <ele>8</ele>
        <time>2014-06-28T17:06:45.990Z</time>
      </trkpt>
      <trkpt lat="45.88611" lon="-0.84104">
        <ele>8</ele>
        <time>2014-06-28T17:06:55.005Z</time>
      </trkpt>
      <trkpt lat="45.88611" lon="-0.84103">
        <ele>8</ele>
        <time>2014-06-28T17:06:55.995Z</time>
      </trkpt>
      <trkpt lat="45.88607" lon="-0.84093">
        <ele>8</ele>
        <time>2014-06-28T17:07:02.761Z</time>
      </trkpt>
      <trkpt lat="45.88606" lon="-0.84092">
        <ele>8</ele>
        <time>2014-06-28T17:07:02.992Z</time>
      </trkpt>
      <trkpt lat="45.88603" lon="-0.8408">
        <ele>9</ele>
        <time>2014-06-28T17:07:08.993Z</time>
      </trkpt>
      <trkpt lat="45.88602" lon="-0.84079">
        <ele>9</ele>
        <time>2014-06-28T17:07:09.983Z</time>
      </trkpt>
      <trkpt lat="45.88597" lon="-0.84067">
        <ele>9</ele>
        <time>2014-06-28T17:07:19.021Z</time>
      </trkpt>
      <trkpt lat="45.88597" lon="-0.84065">
        <ele>9</ele>
        <time>2014-06-28T17:07:19.976Z</time>
      </trkpt>
      <trkpt lat="45.88594" lon="-0.84055">
        <ele>9</ele>
        <time>2014-06-28T17:07:35.021Z</time>
      </trkpt>
      <trkpt lat="45.88593" lon="-0.84053">
        <ele>9</ele>
        <time>2014-06-28T17:07:35.980Z</time>
      </trkpt>
      <trkpt lat="45.8859" lon="-0.84042">
        <ele>9</ele>
        <time>2014-06-28T17:07:43.022Z</time>
      </trkpt>
      <trkpt lat="45.88589" lon="-0.84041">
        <ele>9</ele>
        <time>2014-06-28T17:07:43.068Z</time>
      </trkpt>
      <trkpt lat="45.88585" lon="-0.84031">
        <ele>9</ele>
        <time>2014-06-28T17:07:50.002Z</time>
      </trkpt>
      <trkpt lat="45.88585" lon="-0.84029">
        <ele>9</ele>
        <time>2014-06-28T17:07:50.988Z</time>
      </trkpt>
      <trkpt lat="45.88581" lon="-0.84018">
        <ele>11</ele>
        <time>2014-06-28T17:07:57.722Z</time>
      </trkpt>
      <trkpt lat="45.8858" lon="-0.84016">
        <ele>11</ele>
        <time>2014-06-28T17:07:57.989Z</time>
      </trkpt>
      <trkpt lat="45.88576" lon="-0.84006">
        <ele>11</ele>
        <time>2014-06-28T17:08:05.286Z</time>
      </trkpt>
      <trkpt lat="45.88575" lon="-0.84005">
        <ele>11</ele>
        <time>2014-06-28T17:08:06.028Z</time>
      </trkpt>
      <trkpt lat="45.88571" lon="-0.83994">
        <ele>12</ele>
        <time>2014-06-28T17:08:12.976Z</time>
      </trkpt>
      <trkpt lat="45.88571" lon="-0.83993">
        <ele>12</ele>
        <time>2014-06-28T17:08:13.987Z</time>
      </trkpt>
      <trkpt lat="45.88567" lon="-0.83982">
        <ele>13</ele>
        <time>2014-06-28T17:08:23.001Z</time>
      </trkpt>
      <trkpt lat="45.88566" lon="-0.83981">
        <ele>13</ele>
        <time>2014-06-28T17:08:23.053Z</time>
      </trkpt>
      <trkpt lat="45.88563" lon="-0.83969">
        <ele>14</ele>
        <time>2014-06-28T17:08:46.002Z</time>
      </trkpt>
      <trkpt lat="45.88562" lon="-0.83967">
        <ele>14</ele>
        <time>2014-06-28T17:08:46.973Z</time>
      </trkpt>
      <trkpt lat="45.88556" lon="-0.83957">
        <ele>15</ele>
        <time>2014-06-28T17:08:55.012Z</time>
      </trkpt>
      <trkpt lat="45.88556" lon="-0.83956">
        <ele>15</ele>
        <time>2014-06-28T17:08:56.035Z</time>
      </trkpt>
      <trkpt lat="45.88551" lon="-0.83947">
        <ele>15</ele>
        <time>2014-06-28T17:09:02.998Z</time>
      </trkpt>
      <trkpt lat="45.8855" lon="-0.83945">
        <ele>15</ele>
        <time>2014-06-28T17:09:03.985Z</time>
      </trkpt>
      <trkpt lat="45.88548" lon="-0.83933">
        <ele>16</ele>
        <time>2014-06-28T17:09:16.005Z</time>
      </trkpt>
      <trkpt lat="45.88548" lon="-0.83931">
        <ele>16</ele>
        <time>2014-06-28T17:09:16.989Z</time>
      </trkpt>
      <trkpt lat="45.88544" lon="-0.83921">
        <ele>16</ele>
        <time>2014-06-28T17:09:23.037Z</time>
      </trkpt>
      <trkpt lat="45.88543" lon="-0.83919">
        <ele>16</ele>
        <time>2014-06-28T17:09:23.982Z</time>
      </trkpt>
      <trkpt lat="45.88539" lon="-0.83909">
        <ele>19</ele>
        <time>2014-06-28T17:09:31.002Z</time>
      </trkpt>
      <trkpt lat="45.88538" lon="-0.83907">
        <ele>19</ele>
        <time>2014-06-28T17:09:31.988Z</time>
      </trkpt>
      <trkpt lat="45.88535" lon="-0.83896">
        <ele>19</ele>
        <time>2014-06-28T17:09:45.013Z</time>
      </trkpt>
      <trkpt lat="45.88534" lon="-0.83895">
        <ele>19</ele>
        <time>2014-06-28T17:09:45.986Z</time>
      </trkpt>
      <trkpt lat="45.88527" lon="-0.83889">
        <ele>20</ele>
        <time>2014-06-28T17:09:53.004Z</time>
      </trkpt>
      <trkpt lat="45.88526" lon="-0.83888">
        <ele>20</ele>
        <time>2014-06-28T17:09:53.990Z</time>
      </trkpt>
      <trkpt lat="45.88523" lon="-0.83877">
        <ele>20</ele>
        <time>2014-06-28T17:10:07.776Z</time>
      </trkpt>
      <trkpt lat="45.88523" lon="-0.83875">
        <ele>20</ele>
        <time>2014-06-28T17:10:07.963Z</time>
      </trkpt>
      <trkpt lat="45.88516" lon="-0.83867">
        <ele>21</ele>
        <time>2014-06-28T17:10:15.031Z</time>
      </trkpt>
      <trkpt lat="45.88515" lon="-0.83866">
        <ele>21</ele>
        <time>2014-06-28T17:10:15.990Z</time>
      </trkpt>
      <trkpt lat="45.88508" lon="-0.83859">
        <ele>21</ele>
        <time>2014-06-28T17:10:25.047Z</time>
      </trkpt>
      <trkpt lat="45.88508" lon="-0.83859">
        <ele>21</ele>
        <time>2014-06-28T17:10:25.988Z</time>
      </trkpt>
      <trkpt lat="45.88502" lon="-0.83849">
        <ele>22</ele>
        <time>2014-06-28T17:10:35.002Z</time>
      </trkpt>
      <trkpt lat="45.88501" lon="-0.83847">
        <ele>23</ele>
        <time>2014-06-28T17:10:35.988Z</time>
      </trkpt>
      <trkpt lat="45.88495" lon="-0.83838">
        <ele>25</ele>
        <time>2014-06-28T17:10:50.015Z</time>
      </trkpt>
      <trkpt lat="45.88493" lon="-0.83837">
        <ele>25</ele>
        <time>2014-06-28T17:10:51.026Z</time>
      </trkpt>
      <trkpt lat="45.88488" lon="-0.83827">
        <ele>26</ele>
        <time>2014-06-28T17:10:54.999Z</time>
      </trkpt>
      <trkpt lat="45.88487" lon="-0.83825">
        <ele>26</ele>
        <time>2014-06-28T17:10:56.006Z</time>
      </trkpt>
      <trkpt lat="45.88481" lon="-0.83819">
        <ele>27</ele>
        <time>2014-06-28T17:11:02.769Z</time>
      </trkpt>
      <trkpt lat="45.88479" lon="-0.83817">
        <ele>27</ele>
        <time>2014-06-28T17:11:02.957Z</time>
      </trkpt>
      <trkpt lat="45.88472" lon="-0.8381">
        <ele>27</ele>
        <time>2014-06-28T17:11:08.028Z</time>
      </trkpt>
      <trkpt lat="45.88471" lon="-0.83809">
        <ele>27</ele>
        <time>2014-06-28T17:11:09.009Z</time>
      </trkpt>
      <trkpt lat="45.88466" lon="-0.838">
        <ele>27</ele>
        <time>2014-06-28T17:11:15.036Z</time>
      </trkpt>
      <trkpt lat="45.88465" lon="-0.83798">
        <ele>28</ele>
        <time>2014-06-28T17:11:15.992Z</time>
      </trkpt>
      <trkpt lat="45.8846" lon="-0.83788">
        <ele>28</ele>
        <time>2014-06-28T17:11:23.122Z</time>
      </trkpt>
      <trkpt lat="45.88463" lon="-0.83785">
        <ele>28</ele>
        <time>2014-06-28T17:11:23.999Z</time>
      </trkpt>
      <trkpt lat="45.88457" lon="-0.83776">
        <ele>28</ele>
        <time>2014-06-28T17:11:31.001Z</time>
      </trkpt>
      <trkpt lat="45.88456" lon="-0.83776">
        <ele>28</ele>
        <time>2014-06-28T17:11:31.984Z</time>
      </trkpt>
      <trkpt lat="45.88449" lon="-0.83767">
        <ele>28</ele>
        <time>2014-06-28T17:11:39.001Z</time>
      </trkpt>
      <trkpt lat="45.88448" lon="-0.83766">
        <ele>28</ele>
        <time>2014-06-28T17:11:39.998Z</time>
      </trkpt>
      <trkpt lat="45.8844" lon="-0.83761">
        <ele>29</ele>
        <time>2014-06-28T17:11:46.049Z</time>
      </trkpt>
      <trkpt lat="45.88439" lon="-0.8376">
        <ele>29</ele>
        <time>2014-06-28T17:11:47.001Z</time>
      </trkpt>
      <trkpt lat="45.88432" lon="-0.83753">
        <ele>29</ele>
        <time>2014-06-28T17:11:55.000Z</time>
      </trkpt>
      <trkpt lat="45.88432" lon="-0.83751">
        <ele>29</ele>
        <time>2014-06-28T17:11:56.013Z</time>
      </trkpt>
      <trkpt lat="45.88426" lon="-0.83743">
        <ele>30</ele>
        <time>2014-06-28T17:12:01.009Z</time>
      </trkpt>
      <trkpt lat="45.88425" lon="-0.83741">
        <ele>30</ele>
        <time>2014-06-28T17:12:01.989Z</time>
      </trkpt>
      <trkpt lat="45.88421" lon="-0.83732">
        <ele>29</ele>
        <time>2014-06-28T17:12:07.790Z</time>
      </trkpt>
      <trkpt lat="45.8842" lon="-0.8373">
        <ele>29</ele>
        <time>2014-06-28T17:12:07.992Z</time>
      </trkpt>
      <trkpt lat="45.88414" lon="-0.83722">
        <ele>30</ele>
        <time>2014-06-28T17:12:14.013Z</time>
      </trkpt>
      <trkpt lat="45.88413" lon="-0.83721">
        <ele>30</ele>
        <time>2014-06-28T17:12:15.002Z</time>
      </trkpt>
      <trkpt lat="45.88407" lon="-0.83714">
        <ele>30</ele>
        <time>2014-06-28T17:12:21.015Z</time>
      </trkpt>
      <trkpt lat="45.88406" lon="-0.83713">
        <ele>30</ele>
        <time>2014-06-28T17:12:22.001Z</time>
      </trkpt>
      <trkpt lat="45.884" lon="-0.83703">
        <ele>30</ele>
        <time>2014-06-28T17:12:29.011Z</time>
      </trkpt>
      <trkpt lat="45.88399" lon="-0.83702">
        <ele>30</ele>
        <time>2014-06-28T17:12:29.989Z</time>
      </trkpt>
      <trkpt lat="45.88395" lon="-0.83692">
        <ele>30</ele>
        <time>2014-06-28T17:12:39.014Z</time>
      </trkpt>
      <trkpt lat="45.88393" lon="-0.83691">
        <ele>30</ele>
        <time>2014-06-28T17:12:39.988Z</time>
      </trkpt>
      <trkpt lat="45.88389" lon="-0.8368">
        <ele>30</ele>
        <time>2014-06-28T17:12:47.002Z</time>
      </trkpt>
      <trkpt lat="45.88387" lon="-0.83678">
        <ele>30</ele>
        <time>2014-06-28T17:12:47.990Z</time>
      </trkpt>
      <trkpt lat="45.88381" lon="-0.8367">
        <ele>30</ele>
        <time>2014-06-28T17:12:55.010Z</time>
      </trkpt>
      <trkpt lat="45.8838" lon="-0.8367">
        <ele>30</ele>
        <time>2014-06-28T17:12:55.988Z</time>
      </trkpt>
      <trkpt lat="45.88373" lon="-0.83661">
        <ele>30</ele>
        <time>2014-06-28T17:13:05.018Z</time>
      </trkpt>
      <trkpt lat="45.88373" lon="-0.83659">
        <ele>30</ele>
        <time>2014-06-28T17:13:05.982Z</time>
      </trkpt>
      <trkpt lat="45.88368" lon="-0.8365">
        <ele>30</ele>
        <time>2014-06-28T17:13:15.010Z</time>
      </trkpt>
      <trkpt lat="45.88367" lon="-0.83649">
        <ele>30</ele>
        <time>2014-06-28T17:13:16.000Z</time>
      </trkpt>
      <trkpt lat="45.8836" lon="-0.83642">
        <ele>30</ele>
        <time>2014-06-28T17:13:23.021Z</time>
      </trkpt>
      <trkpt lat="45.88359" lon="-0.83641">
        <ele>30</ele>
        <time>2014-06-28T17:13:23.991Z</time>
      </trkpt>
      <trkpt lat="45.88352" lon="-0.83632">
        <ele>30</ele>
        <time>2014-06-28T17:13:30.003Z</time>
      </trkpt>
      <trkpt lat="45.8835" lon="-0.83631">
        <ele>30</ele>
        <time>2014-06-28T17:13:30.991Z</time>
      </trkpt>
      <trkpt lat="45.88344" lon="-0.83622">
        <ele>30</ele>
        <time>2014-06-28T17:13:37.925Z</time>
      </trkpt>
      <trkpt lat="45.88342" lon="-0.83621">
        <ele>30</ele>
        <time>2014-06-28T17:13:37.982Z</time>
      </trkpt>
      <trkpt lat="45.88336" lon="-0.83612">
        <ele>30</ele>
        <time>2014-06-28T17:13:45.057Z</time>
      </trkpt>
      <trkpt lat="45.88336" lon="-0.83611">
        <ele>30</ele>
        <time>2014-06-28T17:13:46.005Z</time>
      </trkpt>
      <trkpt lat="45.8833" lon="-0.83602">
        <ele>30</ele>
        <time>2014-06-28T17:13:52.699Z</time>
      </trkpt>
      <trkpt lat="45.88329" lon="-0.83601">
        <ele>30</ele>
        <time>2014-06-28T17:13:52.984Z</time>
      </trkpt>
      <trkpt lat="45.88323" lon="-0.83591">
        <ele>30</ele>
        <time>2014-06-28T17:14:01.022Z</time>
      </trkpt>
      <trkpt lat="45.88322" lon="-0.8359">
        <ele>30</ele>
        <time>2014-06-28T17:14:01.986Z</time>
      </trkpt>
      <trkpt lat="45.88317" lon="-0.83581">
        <ele>30</ele>
        <time>2014-06-28T17:14:10.011Z</time>
      </trkpt>
      <trkpt lat="45.88316" lon="-0.8358">
        <ele>30</ele>
        <time>2014-06-28T17:14:10.983Z</time>
      </trkpt>
      <trkpt lat="45.8831" lon="-0.83571">
        <ele>30</ele>
        <time>2014-06-28T17:14:17.983Z</time>
      </trkpt>
      <trkpt lat="45.88309" lon="-0.8357">
        <ele>30</ele>
        <time>2014-06-28T17:14:18.998Z</time>
      </trkpt>
      <trkpt lat="45.88302" lon="-0.83563">
        <ele>30</ele>
        <time>2014-06-28T17:14:26.009Z</time>
      </trkpt>
      <trkpt lat="45.88301" lon="-0.83561">
        <ele>30</ele>
        <time>2014-06-28T17:14:26.989Z</time>
      </trkpt>
      <trkpt lat="45.88295" lon="-0.83553">
        <ele>30</ele>
        <time>2014-06-28T17:14:34.009Z</time>
      </trkpt>
      <trkpt lat="45.88294" lon="-0.83551">
        <ele>30</ele>
        <time>2014-06-28T17:14:34.991Z</time>
      </trkpt>
      <trkpt lat="45.88289" lon="-0.83543">
        <ele>30</ele>
        <time>2014-06-28T17:14:42.973Z</time>
      </trkpt>
      <trkpt lat="45.88289" lon="-0.83541">
        <ele>30</ele>
        <time>2014-06-28T17:14:43.058Z</time>
      </trkpt>
      <trkpt lat="45.88284" lon="-0.8353">
        <ele>30</ele>
        <time>2014-06-28T17:14:50.023Z</time>
      </trkpt>
      <trkpt lat="45.88283" lon="-0.83528">
        <ele>30</ele>
        <time>2014-06-28T17:14:50.987Z</time>
      </trkpt>
      <trkpt lat="45.88279" lon="-0.83517">
        <ele>30</ele>
        <time>2014-06-28T17:14:57.848Z</time>
      </trkpt>
      <trkpt lat="45.88279" lon="-0.83515">
        <ele>30</ele>
        <time>2014-06-28T17:14:57.955Z</time>
      </trkpt>
      <trkpt lat="45.88273" lon="-0.83506">
        <ele>31</ele>
        <time>2014-06-28T17:15:04.033Z</time>
      </trkpt>
      <trkpt lat="45.88273" lon="-0.83504">
        <ele>31</ele>
        <time>2014-06-28T17:15:04.986Z</time>
      </trkpt>
      <trkpt lat="45.88268" lon="-0.83494">
        <ele>31</ele>
        <time>2014-06-28T17:15:12.999Z</time>
      </trkpt>
      <trkpt lat="45.88267" lon="-0.83492">
        <ele>31</ele>
        <time>2014-06-28T17:15:13.046Z</time>
      </trkpt>
      <trkpt lat="45.88262" lon="-0.83484">
        <ele>31</ele>
        <time>2014-06-28T17:15:20.025Z</time>
      </trkpt>
      <trkpt lat="45.88261" lon="-0.83483">
        <ele>31</ele>
        <time>2014-06-28T17:15:20.991Z</time>
      </trkpt>
      <trkpt lat="45.88254" lon="-0.83475">
        <ele>31</ele>
        <time>2014-06-28T17:15:30.009Z</time>
      </trkpt>
      <trkpt lat="45.88253" lon="-0.83473">
        <ele>31</ele>
        <time>2014-06-28T17:15:30.992Z</time>
      </trkpt>
      <trkpt lat="45.88248" lon="-0.83463">
        <ele>30</ele>
        <time>2014-06-28T17:15:39.022Z</time>
      </trkpt>
      <trkpt lat="45.88247" lon="-0.83462">
        <ele>30</ele>
        <time>2014-06-28T17:15:39.987Z</time>
      </trkpt>
      <trkpt lat="45.88242" lon="-0.83453">
        <ele>30</ele>
        <time>2014-06-28T17:15:47.010Z</time>
      </trkpt>
      <trkpt lat="45.88241" lon="-0.83451">
        <ele>30</ele>
        <time>2014-06-28T17:15:48.007Z</time>
      </trkpt>
      <trkpt lat="45.88236" lon="-0.83441">
        <ele>30</ele>
        <time>2014-06-28T17:15:56.030Z</time>
      </trkpt>
      <trkpt lat="45.88236" lon="-0.8344">
        <ele>30</ele>
        <time>2014-06-28T17:15:56.988Z</time>
      </trkpt>
      <trkpt lat="45.88232" lon="-0.8343">
        <ele>30</ele>
        <time>2014-06-28T17:16:05.051Z</time>
      </trkpt>
      <trkpt lat="45.88231" lon="-0.83429">
        <ele>30</ele>
        <time>2014-06-28T17:16:06.001Z</time>
      </trkpt>
      <trkpt lat="45.88225" lon="-0.8342">
        <ele>30</ele>
        <time>2014-06-28T17:16:12.978Z</time>
      </trkpt>
      <trkpt lat="45.88224" lon="-0.83418">
        <ele>30</ele>
        <time>2014-06-28T17:16:14.004Z</time>
      </trkpt>
      <trkpt lat="45.8822" lon="-0.83409">
        <ele>30</ele>
        <time>2014-06-28T17:16:20.012Z</time>
      </trkpt>
      <trkpt lat="45.88219" lon="-0.83407">
        <ele>30</ele>
        <time>2014-06-28T17:16:21.004Z</time>
      </trkpt>
      <trkpt lat="45.88213" lon="-0.83398">
        <ele>30</ele>
        <time>2014-06-28T17:16:28.097Z</time>
      </trkpt>
      <trkpt lat="45.88213" lon="-0.83396">
        <ele>30</ele>
        <time>2014-06-28T17:16:28.987Z</time>
      </trkpt>
      <trkpt lat="45.88208" lon="-0.83386">
        <ele>30</ele>
        <time>2014-06-28T17:16:36.020Z</time>
      </trkpt>
      <trkpt lat="45.88208" lon="-0.83384">
        <ele>30</ele>
        <time>2014-06-28T17:16:37.017Z</time>
      </trkpt>
      <trkpt lat="45.88204" lon="-0.83373">
        <ele>30</ele>
        <time>2014-06-28T17:16:45.020Z</time>
      </trkpt>
      <trkpt lat="45.88203" lon="-0.83372">
        <ele>30</ele>
        <time>2014-06-28T17:16:45.980Z</time>
      </trkpt>
      <trkpt lat="45.88199" lon="-0.83361">
        <ele>30</ele>
        <time>2014-06-28T17:16:54.001Z</time>
      </trkpt>
      <trkpt lat="45.88199" lon="-0.8336">
        <ele>30</ele>
        <time>2014-06-28T17:16:54.997Z</time>
      </trkpt>
      <trkpt lat="45.88192" lon="-0.83352">
        <ele>30</ele>
        <time>2014-06-28T17:17:03.004Z</time>
      </trkpt>
      <trkpt lat="45.88192" lon="-0.83352">
        <ele>30</ele>
        <time>2014-06-28T17:17:03.981Z</time>
      </trkpt>
      <trkpt lat="45.88187" lon="-0.83342">
        <ele>30</ele>
        <time>2014-06-28T17:17:11.009Z</time>
      </trkpt>
      <trkpt lat="45.88186" lon="-0.83341">
        <ele>30</ele>
        <time>2014-06-28T17:17:11.992Z</time>
      </trkpt>
      <trkpt lat="45.88178" lon="-0.83333">
        <ele>30</ele>
        <time>2014-06-28T17:17:17.958Z</time>
      </trkpt>
      <trkpt lat="45.88177" lon="-0.83332">
        <ele>30</ele>
        <time>2014-06-28T17:17:18.990Z</time>
      </trkpt>
      <trkpt lat="45.88171" lon="-0.83326">
        <ele>30</ele>
        <time>2014-06-28T17:17:25.030Z</time>
      </trkpt>
      <trkpt lat="45.88169" lon="-0.83324">
        <ele>30</ele>
        <time>2014-06-28T17:17:25.987Z</time>
      </trkpt>
      <trkpt lat="45.88164" lon="-0.83315">
        <ele>30</ele>
        <time>2014-06-28T17:17:32.993Z</time>
      </trkpt>
      <trkpt lat="45.88163" lon="-0.83313">
        <ele>30</ele>
        <time>2014-06-28T17:17:33.990Z</time>
      </trkpt>
      <trkpt lat="45.88157" lon="-0.83305">
        <ele>30</ele>
        <time>2014-06-28T17:17:42.973Z</time>
      </trkpt>
      <trkpt lat="45.88156" lon="-0.83304">
        <ele>30</ele>
        <time>2014-06-28T17:17:43.020Z</time>
      </trkpt>
      <trkpt lat="45.8815" lon="-0.83296">
        <ele>30</ele>
        <time>2014-06-28T17:17:50.037Z</time>
      </trkpt>
      <trkpt lat="45.88149" lon="-0.83294">
        <ele>30</ele>
        <time>2014-06-28T17:17:50.997Z</time>
      </trkpt>
      <trkpt lat="45.88143" lon="-0.83285">
        <ele>29</ele>
        <time>2014-06-28T17:17:59.007Z</time>
      </trkpt>
      <trkpt lat="45.88142" lon="-0.83284">
        <ele>29</ele>
        <time>2014-06-28T17:17:59.994Z</time>
      </trkpt>
      <trkpt lat="45.88136" lon="-0.83277">
        <ele>29</ele>
        <time>2014-06-28T17:18:07.788Z</time>
      </trkpt>
      <trkpt lat="45.88135" lon="-0.83276">
        <ele>29</ele>
        <time>2014-06-28T17:18:08.019Z</time>
      </trkpt>
      <trkpt lat="45.88129" lon="-0.83267">
        <ele>29</ele>
        <time>2014-06-28T17:18:16.009Z</time>
      </trkpt>
      <trkpt lat="45.88128" lon="-0.83266">
        <ele>29</ele>
        <time>2014-06-28T17:18:16.989Z</time>
      </trkpt>
      <trkpt lat="45.88122" lon="-0.83257">
        <ele>30</ele>
        <time>2014-06-28T17:18:24.003Z</time>
      </trkpt>
      <trkpt lat="45.88121" lon="-0.83257">
        <ele>30</ele>
        <time>2014-06-28T17:18:24.991Z</time>
      </trkpt>
      <trkpt lat="45.88114" lon="-0.83249">
        <ele>30</ele>
        <time>2014-06-28T17:18:32.026Z</time>
      </trkpt>
      <trkpt lat="45.88113" lon="-0.83248">
        <ele>30</ele>
        <time>2014-06-28T17:18:32.996Z</time>
      </trkpt>
      <trkpt lat="45.88109" lon="-0.83238">
        <ele>30</ele>
        <time>2014-06-28T17:18:40.009Z</time>
      </trkpt>
      <trkpt lat="45.88108" lon="-0.83236">
        <ele>30</ele>
        <time>2014-06-28T17:18:41.004Z</time>
      </trkpt>
      <trkpt lat="45.88103" lon="-0.83228">
        <ele>30</ele>
        <time>2014-06-28T17:18:49.010Z</time>
      </trkpt>
      <trkpt lat="45.88102" lon="-0.83226">
        <ele>30</ele>
        <time>2014-06-28T17:18:50.009Z</time>
      </trkpt>
      <trkpt lat="45.88099" lon="-0.83216">
        <ele>30</ele>
        <time>2014-06-28T17:18:58.998Z</time>
      </trkpt>
      <trkpt lat="45.88098" lon="-0.83214">
        <ele>30</ele>
        <time>2014-06-28T17:19:00.052Z</time>
      </trkpt>
      <trkpt lat="45.8809" lon="-0.83208">
        <ele>30</ele>
        <time>2014-06-28T17:19:06.036Z</time>
      </trkpt>
      <trkpt lat="45.88088" lon="-0.83206">
        <ele>30</ele>
        <time>2014-06-28T17:19:06.992Z</time>
      </trkpt>
      <trkpt lat="45.88082" lon="-0.832">
        <ele>30</ele>
        <time>2014-06-28T17:19:13.091Z</time>
      </trkpt>
      <trkpt lat="45.88081" lon="-0.83198">
        <ele>30</ele>
        <time>2014-06-28T17:19:13.993Z</time>
      </trkpt>
      <trkpt lat="45.88076" lon="-0.83188">
        <ele>30</ele>
        <time>2014-06-28T17:19:20.030Z</time>
      </trkpt>
      <trkpt lat="45.88076" lon="-0.83186">
        <ele>30</ele>
        <time>2014-06-28T17:19:20.994Z</time>
      </trkpt>
      <trkpt lat="45.88071" lon="-0.83177">
        <ele>30</ele>
        <time>2014-06-28T17:19:27.036Z</time>
      </trkpt>
      <trkpt lat="45.8807" lon="-0.83175">
        <ele>30</ele>
        <time>2014-06-28T17:19:28.007Z</time>
      </trkpt>
      <trkpt lat="45.88065" lon="-0.83167">
        <ele>30</ele>
        <time>2014-06-28T17:19:33.235Z</time>
      </trkpt>
      <trkpt lat="45.88065" lon="-0.83164">
        <ele>29</ele>
        <time>2014-06-28T17:19:34.006Z</time>
      </trkpt>
      <trkpt lat="45.88057" lon="-0.83159">
        <ele>29</ele>
        <time>2014-06-28T17:19:41.011Z</time>
      </trkpt>
      <trkpt lat="45.88056" lon="-0.83159">
        <ele>29</ele>
        <time>2014-06-28T17:19:41.999Z</time>
      </trkpt>
      <trkpt lat="45.88049" lon="-0.83151">
        <ele>29</ele>
        <time>2014-06-28T17:19:52.785Z</time>
      </trkpt>
      <trkpt lat="45.88047" lon="-0.8315">
        <ele>29</ele>
        <time>2014-06-28T17:19:52.975Z</time>
      </trkpt>
      <trkpt lat="45.88044" lon="-0.83141">
        <ele>28</ele>
        <time>2014-06-28T17:19:58.009Z</time>
      </trkpt>
      <trkpt lat="45.88043" lon="-0.83139">
        <ele>28</ele>
        <time>2014-06-28T17:19:58.993Z</time>
      </trkpt>
      <trkpt lat="45.88038" lon="-0.83128">
        <ele>28</ele>
        <time>2014-06-28T17:20:08.024Z</time>
      </trkpt>
      <trkpt lat="45.88038" lon="-0.83127">
        <ele>28</ele>
        <time>2014-06-28T17:20:08.991Z</time>
      </trkpt>
      <trkpt lat="45.88031" lon="-0.8312">
        <ele>28</ele>
        <time>2014-06-28T17:20:13.998Z</time>
      </trkpt>
      <trkpt lat="45.8803" lon="-0.83119">
        <ele>28</ele>
        <time>2014-06-28T17:20:14.990Z</time>
      </trkpt>
      <trkpt lat="45.88024" lon="-0.83112">
        <ele>28</ele>
        <time>2014-06-28T17:20:21.097Z</time>
      </trkpt>
      <trkpt lat="45.88023" lon="-0.8311">
        <ele>28</ele>
        <time>2014-06-28T17:20:22.006Z</time>
      </trkpt>
      <trkpt lat="45.88017" lon="-0.831">
        <ele>28</ele>
        <time>2014-06-28T17:20:29.052Z</time>
      </trkpt>
      <trkpt lat="45.88017" lon="-0.83099">
        <ele>28</ele>
        <time>2014-06-28T17:20:29.999Z</time>
      </trkpt>
      <trkpt lat="45.88012" lon="-0.83089">
        <ele>27</ele>
        <time>2014-06-28T17:20:36.024Z</time>
      </trkpt>
      <trkpt lat="45.88011" lon="-0.83088">
        <ele>27</ele>
        <time>2014-06-28T17:20:36.990Z</time>
      </trkpt>
      <trkpt lat="45.88005" lon="-0.83081">
        <ele>27</ele>
        <time>2014-06-28T17:20:45.027Z</time>
      </trkpt>
      <trkpt lat="45.88004" lon="-0.8308">
        <ele>27</ele>
        <time>2014-06-28T17:20:45.999Z</time>
      </trkpt>
      <trkpt lat="45.87998" lon="-0.83071">
        <ele>27</ele>
        <time>2014-06-28T17:20:52.705Z</time>
      </trkpt>
      <trkpt lat="45.87997" lon="-0.8307">
        <ele>27</ele>
        <time>2014-06-28T17:20:52.981Z</time>
      </trkpt>
      <trkpt lat="45.87991" lon="-0.83061">
        <ele>26</ele>
        <time>2014-06-28T17:21:01.043Z</time>
      </trkpt>
      <trkpt lat="45.8799" lon="-0.83059">
        <ele>26</ele>
        <time>2014-06-28T17:21:01.997Z</time>
      </trkpt>
      <trkpt lat="45.87985" lon="-0.8305">
        <ele>26</ele>
        <time>2014-06-28T17:21:08.006Z</time>
      </trkpt>
      <trkpt lat="45.87984" lon="-0.83048">
        <ele>26</ele>
        <time>2014-06-28T17:21:08.991Z</time>
      </trkpt>
      <trkpt lat="45.87979" lon="-0.8304">
        <ele>26</ele>
        <time>2014-06-28T17:21:15.013Z</time>
      </trkpt>
      <trkpt lat="45.87978" lon="-0.83038">
        <ele>26</ele>
        <time>2014-06-28T17:21:16.009Z</time>
      </trkpt>
      <trkpt lat="45.87972" lon="-0.8303">
        <ele>26</ele>
        <time>2014-06-28T17:21:22.981Z</time>
      </trkpt>
      <trkpt lat="45.87971" lon="-0.83029">
        <ele>26</ele>
        <time>2014-06-28T17:21:23.993Z</time>
      </trkpt>
      <trkpt lat="45.87965" lon="-0.83019">
        <ele>26</ele>
        <time>2014-06-28T17:21:33.041Z</time>
      </trkpt>
      <trkpt lat="45.87965" lon="-0.83018">
        <ele>26</ele>
        <time>2014-06-28T17:21:33.096Z</time>
      </trkpt>
      <trkpt lat="45.87958" lon="-0.8301">
        <ele>26</ele>
        <time>2014-06-28T17:21:40.028Z</time>
      </trkpt>
      <trkpt lat="45.87957" lon="-0.83009">
        <ele>26</ele>
        <time>2014-06-28T17:21:40.998Z</time>
      </trkpt>
      <trkpt lat="45.87952" lon="-0.83">
        <ele>26</ele>
        <time>2014-06-28T17:21:48.096Z</time>
      </trkpt>
      <trkpt lat="45.8795" lon="-0.82999">
        <ele>26</ele>
        <time>2014-06-28T17:21:49.013Z</time>
      </trkpt>
      <trkpt lat="45.87944" lon="-0.82991">
        <ele>26</ele>
        <time>2014-06-28T17:21:56.031Z</time>
      </trkpt>
      <trkpt lat="45.87944" lon="-0.82989">
        <ele>26</ele>
        <time>2014-06-28T17:21:56.995Z</time>
      </trkpt>
      <trkpt lat="45.87936" lon="-0.82984">
        <ele>26</ele>
        <time>2014-06-28T17:22:04.077Z</time>
      </trkpt>
      <trkpt lat="45.87936" lon="-0.82982">
        <ele>26</ele>
        <time>2014-06-28T17:22:05.019Z</time>
      </trkpt>
      <trkpt lat="45.87928" lon="-0.82977">
        <ele>26</ele>
        <time>2014-06-28T17:22:12.851Z</time>
      </trkpt>
      <trkpt lat="45.87927" lon="-0.82976">
        <ele>26</ele>
        <time>2014-06-28T17:22:12.981Z</time>
      </trkpt>
      <trkpt lat="45.87923" lon="-0.82965">
        <ele>26</ele>
        <time>2014-06-28T17:22:21.009Z</time>
      </trkpt>
      <trkpt lat="45.87922" lon="-0.82964">
        <ele>26</ele>
        <time>2014-06-28T17:22:21.990Z</time>
      </trkpt>
      <trkpt lat="45.87916" lon="-0.82956">
        <ele>26</ele>
        <time>2014-06-28T17:22:29.010Z</time>
      </trkpt>
      <trkpt lat="45.87915" lon="-0.82954">
        <ele>26</ele>
        <time>2014-06-28T17:22:30.061Z</time>
      </trkpt>
      <trkpt lat="45.87909" lon="-0.82947">
        <ele>26</ele>
        <time>2014-06-28T17:22:37.991Z</time>
      </trkpt>
      <trkpt lat="45.87908" lon="-0.82945">
        <ele>26</ele>
        <time>2014-06-28T17:22:38.044Z</time>
      </trkpt>
      <trkpt lat="45.87902" lon="-0.82938">
        <ele>26</ele>
        <time>2014-06-28T17:22:45.009Z</time>
      </trkpt>
      <trkpt lat="45.87901" lon="-0.82937">
        <ele>26</ele>
        <time>2014-06-28T17:22:45.993Z</time>
      </trkpt>
      <trkpt lat="45.87895" lon="-0.82929">
        <ele>26</ele>
        <time>2014-06-28T17:22:52.705Z</time>
      </trkpt>
      <trkpt lat="45.87894" lon="-0.82928">
        <ele>26</ele>
        <time>2014-06-28T17:22:53.038Z</time>
      </trkpt>
      <trkpt lat="45.87888" lon="-0.8292">
        <ele>26</ele>
        <time>2014-06-28T17:22:59.015Z</time>
      </trkpt>
      <trkpt lat="45.87887" lon="-0.82919">
        <ele>26</ele>
        <time>2014-06-28T17:22:59.999Z</time>
      </trkpt>
      <trkpt lat="45.87879" lon="-0.82914">
        <ele>26</ele>
        <time>2014-06-28T17:23:07.794Z</time>
      </trkpt>
      <trkpt lat="45.87878" lon="-0.82913">
        <ele>26</ele>
        <time>2014-06-28T17:23:07.992Z</time>
      </trkpt>
      <trkpt lat="45.87872" lon="-0.82905">
        <ele>26</ele>
        <time>2014-06-28T17:23:14.012Z</time>
      </trkpt>
      <trkpt lat="45.87871" lon="-0.82903">
        <ele>26</ele>
        <time>2014-06-28T17:23:14.999Z</time>
      </trkpt>
      <trkpt lat="45.87864" lon="-0.82896">
        <ele>26</ele>
        <time>2014-06-28T17:23:20.010Z</time>
      </trkpt>
      <trkpt lat="45.87863" lon="-0.82894">
        <ele>26</ele>
        <time>2014-06-28T17:23:21.001Z</time>
      </trkpt>
      <trkpt lat="45.87855" lon="-0.82889">
        <ele>26</ele>
        <time>2014-06-28T17:23:28.098Z</time>
      </trkpt>
      <trkpt lat="45.87855" lon="-0.82888">
        <ele>26</ele>
        <time>2014-06-28T17:23:28.999Z</time>
      </trkpt>
      <trkpt lat="45.87847" lon="-0.82883">
        <ele>26</ele>
        <time>2014-06-28T17:23:35.023Z</time>
      </trkpt>
      <trkpt lat="45.87846" lon="-0.82881">
        <ele>26</ele>
        <time>2014-06-28T17:23:35.998Z</time>
      </trkpt>
      <trkpt lat="45.87838" lon="-0.82878">
        <ele>26</ele>
        <time>2014-06-28T17:23:44.023Z</time>
      </trkpt>
      <trkpt lat="45.87837" lon="-0.82878">
        <ele>26</ele>
        <time>2014-06-28T17:23:44.999Z</time>
      </trkpt>
      <trkpt lat="45.8783" lon="-0.82872">
        <ele>26</ele>
        <time>2014-06-28T17:23:54.018Z</time>
      </trkpt>
      <trkpt lat="45.87829" lon="-0.8287">
        <ele>26</ele>
        <time>2014-06-28T17:23:54.999Z</time>
      </trkpt>
      <trkpt lat="45.8782" lon="-0.82866">
        <ele>26</ele>
        <time>2014-06-28T17:24:01.022Z</time>
      </trkpt>
      <trkpt lat="45.87819" lon="-0.82866">
        <ele>26</ele>
        <time>2014-06-28T17:24:02.052Z</time>
      </trkpt>
      <trkpt lat="45.87812" lon="-0.82861">
        <ele>25</ele>
        <time>2014-06-28T17:24:10.011Z</time>
      </trkpt>
      <trkpt lat="45.87811" lon="-0.8286">
        <ele>25</ele>
        <time>2014-06-28T17:24:10.999Z</time>
      </trkpt>
      <trkpt lat="45.87802" lon="-0.82857">
        <ele>25</ele>
        <time>2014-06-28T17:24:17.992Z</time>
      </trkpt>
      <trkpt lat="45.87801" lon="-0.82857">
        <ele>25</ele>
        <time>2014-06-28T17:24:18.994Z</time>
      </trkpt>
      <trkpt lat="45.87792" lon="-0.82854">
        <ele>25</ele>
        <time>2014-06-28T17:24:27.927Z</time>
      </trkpt>
      <trkpt lat="45.87791" lon="-0.82854">
        <ele>25</ele>
        <time>2014-06-28T17:24:28.004Z</time>
      </trkpt>
      <trkpt lat="45.87784" lon="-0.82852">
        <ele>25</ele>
        <time>2014-06-28T17:24:33.019Z</time>
      </trkpt>
      <trkpt lat="45.87782" lon="-0.8285">
        <ele>25</ele>
        <time>2014-06-28T17:24:33.997Z</time>
      </trkpt>
      <trkpt lat="45.87774" lon="-0.82846">
        <ele>25</ele>
        <time>2014-06-28T17:24:41.018Z</time>
      </trkpt>
      <trkpt lat="45.87774" lon="-0.82846">
        <ele>25</ele>
        <time>2014-06-28T17:24:41.995Z</time>
      </trkpt>
      <trkpt lat="45.87767" lon="-0.82841">
        <ele>25</ele>
        <time>2014-06-28T17:24:48.264Z</time>
      </trkpt>
      <trkpt lat="45.87765" lon="-0.8284">
        <ele>25</ele>
        <time>2014-06-28T17:24:49.055Z</time>
      </trkpt>
      <trkpt lat="45.87758" lon="-0.82833">
        <ele>24</ele>
        <time>2014-06-28T17:24:55.038Z</time>
      </trkpt>
      <trkpt lat="45.87756" lon="-0.82835">
        <ele>24</ele>
        <time>2014-06-28T17:24:56.000Z</time>
      </trkpt>
      <trkpt lat="45.87749" lon="-0.82831">
        <ele>24</ele>
        <time>2014-06-28T17:25:05.019Z</time>
      </trkpt>
      <trkpt lat="45.87748" lon="-0.8283">
        <ele>24</ele>
        <time>2014-06-28T17:25:05.999Z</time>
      </trkpt>
      <trkpt lat="45.87741" lon="-0.82824">
        <ele>23</ele>
        <time>2014-06-28T17:25:13.010Z</time>
      </trkpt>
      <trkpt lat="45.8774" lon="-0.82822">
        <ele>23</ele>
        <time>2014-06-28T17:25:13.998Z</time>
      </trkpt>
      <trkpt lat="45.87733" lon="-0.82821">
        <ele>22</ele>
        <time>2014-06-28T17:25:20.042Z</time>
      </trkpt>
      <trkpt lat="45.87731" lon="-0.82822">
        <ele>22</ele>
        <time>2014-06-28T17:25:21.081Z</time>
      </trkpt>
      <trkpt lat="45.87724" lon="-0.82816">
        <ele>22</ele>
        <time>2014-06-28T17:25:27.986Z</time>
      </trkpt>
      <trkpt lat="45.87723" lon="-0.82816">
        <ele>22</ele>
        <time>2014-06-28T17:25:28.999Z</time>
      </trkpt>
      <trkpt lat="45.87717" lon="-0.82807">
        <ele>21</ele>
        <time>2014-06-28T17:25:37.972Z</time>
      </trkpt>
      <trkpt lat="45.87716" lon="-0.82807">
        <ele>21</ele>
        <time>2014-06-28T17:25:38.026Z</time>
      </trkpt>
      <trkpt lat="45.8771" lon="-0.82797">
        <ele>21</ele>
        <time>2014-06-28T17:25:46.192Z</time>
      </trkpt>
      <trkpt lat="45.87709" lon="-0.82797">
        <ele>21</ele>
        <time>2014-06-28T17:25:46.998Z</time>
      </trkpt>
      <trkpt lat="45.87704" lon="-0.8279">
        <ele>21</ele>
        <time>2014-06-28T17:25:55.021Z</time>
      </trkpt>
      <trkpt lat="45.87704" lon="-0.82787">
        <ele>21</ele>
        <time>2014-06-28T17:25:55.997Z</time>
      </trkpt>
      <trkpt lat="45.877" lon="-0.82776">
        <ele>21</ele>
        <time>2014-06-28T17:26:03.010Z</time>
      </trkpt>
      <trkpt lat="45.87699" lon="-0.82774">
        <ele>20</ele>
        <time>2014-06-28T17:26:04.007Z</time>
      </trkpt>
      <trkpt lat="45.87695" lon="-0.82765">
        <ele>20</ele>
        <time>2014-06-28T17:26:12.892Z</time>
      </trkpt>
      <trkpt lat="45.87694" lon="-0.82764">
        <ele>20</ele>
        <time>2014-06-28T17:26:13.019Z</time>
      </trkpt>
      <trkpt lat="45.8769" lon="-0.82752">
        <ele>20</ele>
        <time>2014-06-28T17:26:20.040Z</time>
      </trkpt>
      <trkpt lat="45.8769" lon="-0.8275">
        <ele>20</ele>
        <time>2014-06-28T17:26:21.014Z</time>
      </trkpt>
      <trkpt lat="45.87691" lon="-0.82739">
        <ele>19</ele>
        <time>2014-06-28T17:26:27.037Z</time>
      </trkpt>
      <trkpt lat="45.87692" lon="-0.82736">
        <ele>19</ele>
        <time>2014-06-28T17:26:28.073Z</time>
      </trkpt>
      <trkpt lat="45.87695" lon="-0.82725">
        <ele>20</ele>
        <time>2014-06-28T17:26:34.023Z</time>
      </trkpt>
      <trkpt lat="45.87695" lon="-0.82723">
        <ele>20</ele>
        <time>2014-06-28T17:26:35.004Z</time>
      </trkpt>
      <trkpt lat="45.87698" lon="-0.82712">
        <ele>20</ele>
        <time>2014-06-28T17:26:41.021Z</time>
      </trkpt>
      <trkpt lat="45.87698" lon="-0.8271">
        <ele>20</ele>
        <time>2014-06-28T17:26:41.998Z</time>
      </trkpt>
      <trkpt lat="45.87698" lon="-0.82699">
        <ele>20</ele>
        <time>2014-06-28T17:26:49.031Z</time>
      </trkpt>
      <trkpt lat="45.87698" lon="-0.82697">
        <ele>20</ele>
        <time>2014-06-28T17:26:50.002Z</time>
      </trkpt>
      <trkpt lat="45.87694" lon="-0.82686">
        <ele>20</ele>
        <time>2014-06-28T17:26:59.050Z</time>
      </trkpt>
      <trkpt lat="45.87693" lon="-0.82684">
        <ele>19</ele>
        <time>2014-06-28T17:27:00.108Z</time>
      </trkpt>
      <trkpt lat="45.87689" lon="-0.82674">
        <ele>19</ele>
        <time>2014-06-28T17:27:06.039Z</time>
      </trkpt>
      <trkpt lat="45.87688" lon="-0.82672">
        <ele>19</ele>
        <time>2014-06-28T17:27:07.003Z</time>
      </trkpt>
      <trkpt lat="45.87681" lon="-0.8267">
        <ele>18</ele>
        <time>2014-06-28T17:27:12.020Z</time>
      </trkpt>
      <trkpt lat="45.87679" lon="-0.82669">
        <ele>18</ele>
        <time>2014-06-28T17:27:13.008Z</time>
      </trkpt>
      <trkpt lat="45.87674" lon="-0.82659">
        <ele>17</ele>
        <time>2014-06-28T17:27:19.028Z</time>
      </trkpt>
      <trkpt lat="45.87674" lon="-0.82658">
        <ele>17</ele>
        <time>2014-06-28T17:27:19.999Z</time>
      </trkpt>
      <trkpt lat="45.8767" lon="-0.82648">
        <ele>17</ele>
        <time>2014-06-28T17:27:27.020Z</time>
      </trkpt>
      <trkpt lat="45.8767" lon="-0.82646">
        <ele>17</ele>
        <time>2014-06-28T17:27:28.009Z</time>
      </trkpt>
      <trkpt lat="45.87664" lon="-0.82636">
        <ele>16</ele>
        <time>2014-06-28T17:27:36.032Z</time>
      </trkpt>
      <trkpt lat="45.87664" lon="-0.82635">
        <ele>16</ele>
        <time>2014-06-28T17:27:37.104Z</time>
      </trkpt>
      <trkpt lat="45.87658" lon="-0.82628">
        <ele>16</ele>
        <time>2014-06-28T17:27:43.023Z</time>
      </trkpt>
      <trkpt lat="45.87657" lon="-0.82625">
        <ele>16</ele>
        <time>2014-06-28T17:27:44.004Z</time>
      </trkpt>
      <trkpt lat="45.87654" lon="-0.82614">
        <ele>16</ele>
        <time>2014-06-28T17:27:50.991Z</time>
      </trkpt>
      <trkpt lat="45.87653" lon="-0.82612">
        <ele>16</ele>
        <time>2014-06-28T17:27:52.004Z</time>
      </trkpt>
      <trkpt lat="45.87649" lon="-0.82601">
        <ele>16</ele>
        <time>2014-06-28T17:27:59.022Z</time>
      </trkpt>
      <trkpt lat="45.87649" lon="-0.826">
        <ele>16</ele>
        <time>2014-06-28T17:28:00.114Z</time>
      </trkpt>
      <trkpt lat="45.87645" lon="-0.82589">
        <ele>16</ele>
        <time>2014-06-28T17:28:07.994Z</time>
      </trkpt>
      <trkpt lat="45.87644" lon="-0.82588">
        <ele>16</ele>
        <time>2014-06-28T17:28:09.002Z</time>
      </trkpt>
      <trkpt lat="45.87639" lon="-0.82578">
        <ele>16</ele>
        <time>2014-06-28T17:28:15.020Z</time>
      </trkpt>
      <trkpt lat="45.87638" lon="-0.82577">
        <ele>16</ele>
        <time>2014-06-28T17:28:16.001Z</time>
      </trkpt>
      <trkpt lat="45.87634" lon="-0.82567">
        <ele>16</ele>
        <time>2014-06-28T17:28:23.044Z</time>
      </trkpt>
      <trkpt lat="45.87634" lon="-0.82566">
        <ele>16</ele>
        <time>2014-06-28T17:28:24.011Z</time>
      </trkpt>
      <trkpt lat="45.87628" lon="-0.82557">
        <ele>16</ele>
        <time>2014-06-28T17:28:31.041Z</time>
      </trkpt>
      <trkpt lat="45.87627" lon="-0.82556">
        <ele>16</ele>
        <time>2014-06-28T17:28:32.003Z</time>
      </trkpt>
      <trkpt lat="45.87622" lon="-0.82547">
        <ele>16</ele>
        <time>2014-06-28T17:28:39.020Z</time>
      </trkpt>
      <trkpt lat="45.87621" lon="-0.82546">
        <ele>16</ele>
        <time>2014-06-28T17:28:40.003Z</time>
      </trkpt>
      <trkpt lat="45.87616" lon="-0.82537">
        <ele>16</ele>
        <time>2014-06-28T17:28:45.998Z</time>
      </trkpt>
      <trkpt lat="45.87616" lon="-0.82535">
        <ele>16</ele>
        <time>2014-06-28T17:28:47.001Z</time>
      </trkpt>
      <trkpt lat="45.8761" lon="-0.82527">
        <ele>16</ele>
        <time>2014-06-28T17:28:54.023Z</time>
      </trkpt>
      <trkpt lat="45.87609" lon="-0.82526">
        <ele>16</ele>
        <time>2014-06-28T17:28:55.072Z</time>
      </trkpt>
      <trkpt lat="45.87603" lon="-0.82518">
        <ele>16</ele>
        <time>2014-06-28T17:29:02.775Z</time>
      </trkpt>
      <trkpt lat="45.87602" lon="-0.82517">
        <ele>16</ele>
        <time>2014-06-28T17:29:03.003Z</time>
      </trkpt>
      <trkpt lat="45.87596" lon="-0.8251">
        <ele>16</ele>
        <time>2014-06-28T17:29:10.020Z</time>
      </trkpt>
      <trkpt lat="45.87595" lon="-0.82509">
        <ele>16</ele>
        <time>2014-06-28T17:29:11.006Z</time>
      </trkpt>
      <trkpt lat="45.87587" lon="-0.82504">
        <ele>17</ele>
        <time>2014-06-28T17:29:19.017Z</time>
      </trkpt>
      <trkpt lat="45.87586" lon="-0.82503">
        <ele>17</ele>
        <time>2014-06-28T17:29:20.009Z</time>
      </trkpt>
      <trkpt lat="45.87578" lon="-0.82499">
        <ele>17</ele>
        <time>2014-06-28T17:29:27.902Z</time>
      </trkpt>
      <trkpt lat="45.87577" lon="-0.82498">
        <ele>17</ele>
        <time>2014-06-28T17:29:27.967Z</time>
      </trkpt>
      <trkpt lat="45.8757" lon="-0.82491">
        <ele>17</ele>
        <time>2014-06-28T17:29:36.021Z</time>
      </trkpt>
      <trkpt lat="45.87569" lon="-0.8249">
        <ele>18</ele>
        <time>2014-06-28T17:29:37.015Z</time>
      </trkpt>
      <trkpt lat="45.87563" lon="-0.82483">
        <ele>18</ele>
        <time>2014-06-28T17:29:46.017Z</time>
      </trkpt>
      <trkpt lat="45.87562" lon="-0.82482">
        <ele>18</ele>
        <time>2014-06-28T17:29:47.002Z</time>
      </trkpt>
      <trkpt lat="45.87556" lon="-0.82472">
        <ele>18</ele>
        <time>2014-06-28T17:29:53.017Z</time>
      </trkpt>
      <trkpt lat="45.87556" lon="-0.82471">
        <ele>18</ele>
        <time>2014-06-28T17:29:54.009Z</time>
      </trkpt>
      <trkpt lat="45.87549" lon="-0.82466">
        <ele>18</ele>
        <time>2014-06-28T17:30:02.792Z</time>
      </trkpt>
      <trkpt lat="45.87548" lon="-0.82464">
        <ele>18</ele>
        <time>2014-06-28T17:30:02.996Z</time>
      </trkpt>
      <trkpt lat="45.8754" lon="-0.82459">
        <ele>18</ele>
        <time>2014-06-28T17:30:11.020Z</time>
      </trkpt>
      <trkpt lat="45.87539" lon="-0.82458">
        <ele>18</ele>
        <time>2014-06-28T17:30:12.014Z</time>
      </trkpt>
      <trkpt lat="45.87532" lon="-0.8245">
        <ele>18</ele>
        <time>2014-06-28T17:30:20.044Z</time>
      </trkpt>
      <trkpt lat="45.8753" lon="-0.8245">
        <ele>18</ele>
        <time>2014-06-28T17:30:21.003Z</time>
      </trkpt>
      <trkpt lat="45.87523" lon="-0.82443">
        <ele>18</ele>
        <time>2014-06-28T17:30:30.021Z</time>
      </trkpt>
      <trkpt lat="45.87522" lon="-0.82442">
        <ele>18</ele>
        <time>2014-06-28T17:30:31.006Z</time>
      </trkpt>
      <trkpt lat="45.87514" lon="-0.82437">
        <ele>18</ele>
        <time>2014-06-28T17:30:37.964Z</time>
      </trkpt>
      <trkpt lat="45.87513" lon="-0.82436">
        <ele>18</ele>
        <time>2014-06-28T17:30:38.016Z</time>
      </trkpt>
      <trkpt lat="45.87508" lon="-0.82426">
        <ele>19</ele>
        <time>2014-06-28T17:30:48.054Z</time>
      </trkpt>
      <trkpt lat="45.87507" lon="-0.82425">
        <ele>19</ele>
        <time>2014-06-28T17:30:48.096Z</time>
      </trkpt>
      <trkpt lat="45.875" lon="-0.82419">
        <ele>19</ele>
        <time>2014-06-28T17:30:55.026Z</time>
      </trkpt>
      <trkpt lat="45.87499" lon="-0.82418">
        <ele>19</ele>
        <time>2014-06-28T17:30:56.021Z</time>
      </trkpt>
      <trkpt lat="45.87492" lon="-0.82411">
        <ele>19</ele>
        <time>2014-06-28T17:31:03.024Z</time>
      </trkpt>
      <trkpt lat="45.87491" lon="-0.82411">
        <ele>19</ele>
        <time>2014-06-28T17:31:04.001Z</time>
      </trkpt>
      <trkpt lat="45.87483" lon="-0.82404">
        <ele>19</ele>
        <time>2014-06-28T17:31:12.024Z</time>
      </trkpt>
      <trkpt lat="45.87483" lon="-0.82403">
        <ele>19</ele>
        <time>2014-06-28T17:31:13.005Z</time>
      </trkpt>
      <trkpt lat="45.87477" lon="-0.82395">
        <ele>20</ele>
        <time>2014-06-28T17:31:21.025Z</time>
      </trkpt>
      <trkpt lat="45.87476" lon="-0.82394">
        <ele>20</ele>
        <time>2014-06-28T17:31:22.019Z</time>
      </trkpt>
      <trkpt lat="45.8747" lon="-0.82386">
        <ele>20</ele>
        <time>2014-06-28T17:31:29.029Z</time>
      </trkpt>
      <trkpt lat="45.87469" lon="-0.82385">
        <ele>20</ele>
        <time>2014-06-28T17:31:30.012Z</time>
      </trkpt>
      <trkpt lat="45.87462" lon="-0.82377">
        <ele>20</ele>
        <time>2014-06-28T17:31:37.054Z</time>
      </trkpt>
      <trkpt lat="45.87461" lon="-0.82376">
        <ele>20</ele>
        <time>2014-06-28T17:31:38.019Z</time>
      </trkpt>
      <trkpt lat="45.87453" lon="-0.8237">
        <ele>20</ele>
        <time>2014-06-28T17:31:45.024Z</time>
      </trkpt>
      <trkpt lat="45.87452" lon="-0.82368">
        <ele>20</ele>
        <time>2014-06-28T17:31:46.007Z</time>
      </trkpt>
      <trkpt lat="45.87446" lon="-0.8236">
        <ele>20</ele>
        <time>2014-06-28T17:31:53.051Z</time>
      </trkpt>
      <trkpt lat="45.87445" lon="-0.82359">
        <ele>20</ele>
        <time>2014-06-28T17:31:54.024Z</time>
      </trkpt>
      <trkpt lat="45.87438" lon="-0.82352">
        <ele>20</ele>
        <time>2014-06-28T17:32:01.032Z</time>
      </trkpt>
      <trkpt lat="45.87437" lon="-0.82351">
        <ele>20</ele>
        <time>2014-06-28T17:32:02.009Z</time>
      </trkpt>
      <trkpt lat="45.87431" lon="-0.82343">
        <ele>20</ele>
        <time>2014-06-28T17:32:10.030Z</time>
      </trkpt>
      <trkpt lat="45.8743" lon="-0.82341">
        <ele>20</ele>
        <time>2014-06-28T17:32:11.011Z</time>
      </trkpt>
      <trkpt lat="45.87423" lon="-0.82334">
        <ele>20</ele>
        <time>2014-06-28T17:32:19.020Z</time>
      </trkpt>
      <trkpt lat="45.87422" lon="-0.82333">
        <ele>20</ele>
        <time>2014-06-28T17:32:20.021Z</time>
      </trkpt>
      <trkpt lat="45.87418" lon="-0.82323">
        <ele>20</ele>
        <time>2014-06-28T17:32:28.146Z</time>
      </trkpt>
      <trkpt lat="45.87417" lon="-0.82322">
        <ele>20</ele>
        <time>2014-06-28T17:32:29.018Z</time>
      </trkpt>
      <trkpt lat="45.8741" lon="-0.82314">
        <ele>19</ele>
        <time>2014-06-28T17:32:36.046Z</time>
      </trkpt>
      <trkpt lat="45.87409" lon="-0.82313">
        <ele>19</ele>
        <time>2014-06-28T17:32:37.028Z</time>
      </trkpt>
      <trkpt lat="45.87402" lon="-0.82307">
        <ele>19</ele>
        <time>2014-06-28T17:32:43.333Z</time>
      </trkpt>
      <trkpt lat="45.87401" lon="-0.82306">
        <ele>19</ele>
        <time>2014-06-28T17:32:44.008Z</time>
      </trkpt>
      <trkpt lat="45.87394" lon="-0.82298">
        <ele>19</ele>
        <time>2014-06-28T17:32:50.175Z</time>
      </trkpt>
      <trkpt lat="45.87393" lon="-0.82296">
        <ele>19</ele>
        <time>2014-06-28T17:32:51.019Z</time>
      </trkpt>
      <trkpt lat="45.87389" lon="-0.82284">
        <ele>19</ele>
        <time>2014-06-28T17:32:57.778Z</time>
      </trkpt>
      <trkpt lat="45.87389" lon="-0.82282">
        <ele>19</ele>
        <time>2014-06-28T17:32:58.007Z</time>
      </trkpt>
      <trkpt lat="45.87384" lon="-0.82272">
        <ele>19</ele>
        <time>2014-06-28T17:33:05.037Z</time>
      </trkpt>
      <trkpt lat="45.87384" lon="-0.82268">
        <ele>18</ele>
        <time>2014-06-28T17:33:06.009Z</time>
      </trkpt>
      <trkpt lat="45.87378" lon="-0.82261">
        <ele>18</ele>
        <time>2014-06-28T17:33:12.871Z</time>
      </trkpt>
      <trkpt lat="45.87376" lon="-0.82259">
        <ele>18</ele>
        <time>2014-06-28T17:33:12.989Z</time>
      </trkpt>
      <trkpt lat="45.87369" lon="-0.82254">
        <ele>18</ele>
        <time>2014-06-28T17:33:19.021Z</time>
      </trkpt>
      <trkpt lat="45.87367" lon="-0.82253">
        <ele>18</ele>
        <time>2014-06-28T17:33:20.008Z</time>
      </trkpt>
      <trkpt lat="45.87361" lon="-0.82246">
        <ele>16</ele>
        <time>2014-06-28T17:33:25.051Z</time>
      </trkpt>
      <trkpt lat="45.87359" lon="-0.82246">
        <ele>16</ele>
        <time>2014-06-28T17:33:26.011Z</time>
      </trkpt>
      <trkpt lat="45.87352" lon="-0.82241">
        <ele>16</ele>
        <time>2014-06-28T17:33:31.022Z</time>
      </trkpt>
      <trkpt lat="45.8735" lon="-0.82241">
        <ele>16</ele>
        <time>2014-06-28T17:33:32.008Z</time>
      </trkpt>
      <trkpt lat="45.87342" lon="-0.82242">
        <ele>16</ele>
        <time>2014-06-28T17:33:38.107Z</time>
      </trkpt>
      <trkpt lat="45.87341" lon="-0.82242">
        <ele>16</ele>
        <time>2014-06-28T17:33:39.009Z</time>
      </trkpt>
      <trkpt lat="45.87333" lon="-0.82244">
        <ele>16</ele>
        <time>2014-06-28T17:33:45.020Z</time>
      </trkpt>
      <trkpt lat="45.87331" lon="-0.82245">
        <ele>16</ele>
        <time>2014-06-28T17:33:46.008Z</time>
      </trkpt>
      <trkpt lat="45.87323" lon="-0.82247">
        <ele>16</ele>
        <time>2014-06-28T17:33:52.717Z</time>
      </trkpt>
      <trkpt lat="45.87322" lon="-0.82247">
        <ele>16</ele>
        <time>2014-06-28T17:33:53.011Z</time>
      </trkpt>
      <trkpt lat="45.87314" lon="-0.82246">
        <ele>15</ele>
        <time>2014-06-28T17:33:57.779Z</time>
      </trkpt>
      <trkpt lat="45.87311" lon="-0.82247">
        <ele>15</ele>
        <time>2014-06-28T17:33:58.021Z</time>
      </trkpt>
      <trkpt lat="45.87303" lon="-0.82249">
        <ele>14</ele>
        <time>2014-06-28T17:34:04.049Z</time>
      </trkpt>
      <trkpt lat="45.87302" lon="-0.82248">
        <ele>14</ele>
        <time>2014-06-28T17:34:05.006Z</time>
      </trkpt>
      <trkpt lat="45.87294" lon="-0.82249">
        <ele>14</ele>
        <time>2014-06-28T17:34:12.856Z</time>
      </trkpt>
      <trkpt lat="45.87293" lon="-0.8225">
        <ele>17</ele>
        <time>2014-06-28T17:34:13.029Z</time>
      </trkpt>
      <trkpt lat="45.87284" lon="-0.82251">
        <ele>17</ele>
        <time>2014-06-28T17:34:19.023Z</time>
      </trkpt>
      <trkpt lat="45.87283" lon="-0.82252">
        <ele>17</ele>
        <time>2014-06-28T17:34:20.009Z</time>
      </trkpt>
      <trkpt lat="45.87275" lon="-0.82254">
        <ele>17</ele>
        <time>2014-06-28T17:34:26.043Z</time>
      </trkpt>
      <trkpt lat="45.87274" lon="-0.82254">
        <ele>17</ele>
        <time>2014-06-28T17:34:27.008Z</time>
      </trkpt>
      <trkpt lat="45.87266" lon="-0.82257">
        <ele>16</ele>
        <time>2014-06-28T17:34:32.972Z</time>
      </trkpt>
      <trkpt lat="45.87265" lon="-0.82257">
        <ele>16</ele>
        <time>2014-06-28T17:34:33.023Z</time>
      </trkpt>
      <trkpt lat="45.87256" lon="-0.8226">
        <ele>16</ele>
        <time>2014-06-28T17:34:41.030Z</time>
      </trkpt>
      <trkpt lat="45.87255" lon="-0.82259">
        <ele>16</ele>
        <time>2014-06-28T17:34:42.008Z</time>
      </trkpt>
      <trkpt lat="45.8725" lon="-0.8227">
        <ele>17</ele>
        <time>2014-06-28T17:46:01.040Z</time>
      </trkpt>
      <trkpt lat="45.87247" lon="-0.82271">
        <ele>14</ele>
        <time>2014-06-28T17:46:02.009Z</time>
      </trkpt>
      <trkpt lat="45.87241" lon="-0.8228">
        <ele>14</ele>
        <time>2014-06-28T17:50:43.078Z</time>
      </trkpt>
      <trkpt lat="45.8724" lon="-0.82281">
        <ele>14</ele>
        <time>2014-06-28T17:50:44.064Z</time>
      </trkpt>
      <trkpt lat="45.87233" lon="-0.82289">
        <ele>14</ele>
        <time>2014-06-28T17:51:04.055Z</time>
      </trkpt>
      <trkpt lat="45.87232" lon="-0.82289">
        <ele>14</ele>
        <time>2014-06-28T17:51:05.042Z</time>
      </trkpt>
      <trkpt lat="45.87227" lon="-0.82299">
        <ele>14</ele>
        <time>2014-06-28T17:51:37.059Z</time>
      </trkpt>
      <trkpt lat="45.87226" lon="-0.823">
        <ele>14</ele>
        <time>2014-06-28T17:51:38.028Z</time>
      </trkpt>
      <trkpt lat="45.87221" lon="-0.82309">
        <ele>14</ele>
        <time>2014-06-28T17:51:46.011Z</time>
      </trkpt>
      <trkpt lat="45.8722" lon="-0.8231">
        <ele>14</ele>
        <time>2014-06-28T17:51:47.034Z</time>
      </trkpt>
      <trkpt lat="45.87214" lon="-0.82319">
        <ele>14</ele>
        <time>2014-06-28T17:51:54.067Z</time>
      </trkpt>
      <trkpt lat="45.87214" lon="-0.8232">
        <ele>14</ele>
        <time>2014-06-28T17:51:55.021Z</time>
      </trkpt>
      <trkpt lat="45.87209" lon="-0.8233">
        <ele>14</ele>
        <time>2014-06-28T17:52:02.042Z</time>
      </trkpt>
      <trkpt lat="45.87208" lon="-0.82331">
        <ele>14</ele>
        <time>2014-06-28T17:52:03.002Z</time>
      </trkpt>
      <trkpt lat="45.87203" lon="-0.82341">
        <ele>16</ele>
        <time>2014-06-28T17:52:10.049Z</time>
      </trkpt>
      <trkpt lat="45.87202" lon="-0.82342">
        <ele>16</ele>
        <time>2014-06-28T17:52:11.032Z</time>
      </trkpt>
      <trkpt lat="45.87196" lon="-0.82351">
        <ele>16</ele>
        <time>2014-06-28T17:52:18.202Z</time>
      </trkpt>
      <trkpt lat="45.87196" lon="-0.82353">
        <ele>16</ele>
        <time>2014-06-28T17:52:19.029Z</time>
      </trkpt>
      <trkpt lat="45.87191" lon="-0.82362">
        <ele>16</ele>
        <time>2014-06-28T17:52:25.053Z</time>
      </trkpt>
      <trkpt lat="45.8719" lon="-0.82363">
        <ele>16</ele>
        <time>2014-06-28T17:52:26.063Z</time>
      </trkpt>
      <trkpt lat="45.87183" lon="-0.82371">
        <ele>16</ele>
        <time>2014-06-28T17:52:33.523Z</time>
      </trkpt>
      <trkpt lat="45.87182" lon="-0.82373">
        <ele>16</ele>
        <time>2014-06-28T17:52:34.039Z</time>
      </trkpt>
      <trkpt lat="45.87175" lon="-0.82382">
        <ele>17</ele>
        <time>2014-06-28T17:52:42.052Z</time>
      </trkpt>
      <trkpt lat="45.87175" lon="-0.82383">
        <ele>17</ele>
        <time>2014-06-28T17:52:43.041Z</time>
      </trkpt>
      <trkpt lat="45.87168" lon="-0.82392">
        <ele>17</ele>
        <time>2014-06-28T17:52:50.071Z</time>
      </trkpt>
      <trkpt lat="45.87167" lon="-0.82392">
        <ele>17</ele>
        <time>2014-06-28T17:52:51.050Z</time>
      </trkpt>
      <trkpt lat="45.8716" lon="-0.82401">
        <ele>15</ele>
        <time>2014-06-28T17:53:03.059Z</time>
      </trkpt>
      <trkpt lat="45.8716" lon="-0.82401">
        <ele>15</ele>
        <time>2014-06-28T17:53:04.030Z</time>
      </trkpt>
      <trkpt lat="45.87154" lon="-0.82408">
        <ele>15</ele>
        <time>2014-06-28T17:53:13.130Z</time>
      </trkpt>
      <trkpt lat="45.87152" lon="-0.8241">
        <ele>15</ele>
        <time>2014-06-28T17:53:14.035Z</time>
      </trkpt>
      <trkpt lat="45.87146" lon="-0.82417">
        <ele>17</ele>
        <time>2014-06-28T17:53:18.041Z</time>
      </trkpt>
      <trkpt lat="45.87144" lon="-0.82419">
        <ele>17</ele>
        <time>2014-06-28T17:53:19.016Z</time>
      </trkpt>
      <trkpt lat="45.87137" lon="-0.82423">
        <ele>17</ele>
        <time>2014-06-28T17:53:31.050Z</time>
      </trkpt>
      <trkpt lat="45.87136" lon="-0.82424">
        <ele>17</ele>
        <time>2014-06-28T17:53:32.049Z</time>
      </trkpt>
      <trkpt lat="45.87127" lon="-0.82426">
        <ele>17</ele>
        <time>2014-06-28T17:53:54.050Z</time>
      </trkpt>
      <trkpt lat="45.87126" lon="-0.82426">
        <ele>17</ele>
        <time>2014-06-28T17:53:55.032Z</time>
      </trkpt>
      <trkpt lat="45.8712" lon="-0.82434">
        <ele>16</ele>
        <time>2014-06-28T17:54:08.013Z</time>
      </trkpt>
      <trkpt lat="45.87119" lon="-0.82435">
        <ele>16</ele>
        <time>2014-06-28T17:54:09.026Z</time>
      </trkpt>
      <trkpt lat="45.87112" lon="-0.82442">
        <ele>16</ele>
        <time>2014-06-28T17:54:17.931Z</time>
      </trkpt>
      <trkpt lat="45.87111" lon="-0.82442">
        <ele>16</ele>
        <time>2014-06-28T17:54:17.991Z</time>
      </trkpt>
      <trkpt lat="45.87103" lon="-0.82444">
        <ele>16</ele>
        <time>2014-06-28T17:54:25.038Z</time>
      </trkpt>
      <trkpt lat="45.87102" lon="-0.82444">
        <ele>16</ele>
        <time>2014-06-28T17:54:26.020Z</time>
      </trkpt>
      <trkpt lat="45.87094" lon="-0.82449">
        <ele>16</ele>
        <time>2014-06-28T17:54:33.074Z</time>
      </trkpt>
      <trkpt lat="45.87093" lon="-0.82449">
        <ele>16</ele>
        <time>2014-06-28T17:54:34.031Z</time>
      </trkpt>
      <trkpt lat="45.87086" lon="-0.82453">
        <ele>16</ele>
        <time>2014-06-28T17:54:41.064Z</time>
      </trkpt>
      <trkpt lat="45.87084" lon="-0.82453">
        <ele>16</ele>
        <time>2014-06-28T17:54:42.029Z</time>
      </trkpt>
      <trkpt lat="45.87076" lon="-0.82455">
        <ele>14</ele>
        <time>2014-06-28T17:54:48.131Z</time>
      </trkpt>
      <trkpt lat="45.87075" lon="-0.82456">
        <ele>14</ele>
        <time>2014-06-28T17:54:49.034Z</time>
      </trkpt>
      <trkpt lat="45.87067" lon="-0.82459">
        <ele>14</ele>
        <time>2014-06-28T17:54:55.067Z</time>
      </trkpt>
      <trkpt lat="45.87066" lon="-0.8246">
        <ele>14</ele>
        <time>2014-06-28T17:54:56.033Z</time>
      </trkpt>
      <trkpt lat="45.87058" lon="-0.82467">
        <ele>14</ele>
        <time>2014-06-28T17:55:04.073Z</time>
      </trkpt>
      <trkpt lat="45.87057" lon="-0.82467">
        <ele>14</ele>
        <time>2014-06-28T17:55:05.035Z</time>
      </trkpt>
      <trkpt lat="45.87048" lon="-0.8247">
        <ele>14</ele>
        <time>2014-06-28T17:55:15.052Z</time>
      </trkpt>
      <trkpt lat="45.87047" lon="-0.8247">
        <ele>14</ele>
        <time>2014-06-28T17:55:16.034Z</time>
      </trkpt>
      <trkpt lat="45.87038" lon="-0.82467">
        <ele>14</ele>
        <time>2014-06-28T17:55:23.016Z</time>
      </trkpt>
      <trkpt lat="45.87037" lon="-0.82467">
        <ele>14</ele>
        <time>2014-06-28T17:55:24.050Z</time>
      </trkpt>
      <trkpt lat="45.87029" lon="-0.82467">
        <ele>13</ele>
        <time>2014-06-28T17:55:31.075Z</time>
      </trkpt>
      <trkpt lat="45.87028" lon="-0.82466">
        <ele>13</ele>
        <time>2014-06-28T17:55:32.026Z</time>
      </trkpt>
      <trkpt lat="45.87019" lon="-0.82466">
        <ele>13</ele>
        <time>2014-06-28T17:55:40.066Z</time>
      </trkpt>
      <trkpt lat="45.87018" lon="-0.82465">
        <ele>13</ele>
        <time>2014-06-28T17:55:41.041Z</time>
      </trkpt>
      <trkpt lat="45.87011" lon="-0.82458">
        <ele>13</ele>
        <time>2014-06-28T17:55:49.065Z</time>
      </trkpt>
      <trkpt lat="45.8701" lon="-0.82457">
        <ele>12</ele>
        <time>2014-06-28T17:55:50.052Z</time>
      </trkpt>
      <trkpt lat="45.87004" lon="-0.82447">
        <ele>11</ele>
        <time>2014-06-28T17:55:57.766Z</time>
      </trkpt>
      <trkpt lat="45.87004" lon="-0.82446">
        <ele>11</ele>
        <time>2014-06-28T17:55:58.041Z</time>
      </trkpt>
      <trkpt lat="45.86999" lon="-0.82436">
        <ele>9</ele>
        <time>2014-06-28T17:56:05.069Z</time>
      </trkpt>
      <trkpt lat="45.86998" lon="-0.82435">
        <ele>9</ele>
        <time>2014-06-28T17:56:06.033Z</time>
      </trkpt>
      <trkpt lat="45.8699" lon="-0.8243">
        <ele>8</ele>
        <time>2014-06-28T17:56:23.035Z</time>
      </trkpt>
      <trkpt lat="45.86989" lon="-0.82429">
        <ele>8</ele>
        <time>2014-06-28T17:56:23.083Z</time>
      </trkpt>
      <trkpt lat="45.86981" lon="-0.82422">
        <ele>8</ele>
        <time>2014-06-28T17:56:32.077Z</time>
      </trkpt>
      <trkpt lat="45.86981" lon="-0.82421">
        <ele>8</ele>
        <time>2014-06-28T17:56:33.030Z</time>
      </trkpt>
      <trkpt lat="45.86975" lon="-0.82412">
        <ele>8</ele>
        <time>2014-06-28T17:56:41.067Z</time>
      </trkpt>
      <trkpt lat="45.86974" lon="-0.82411">
        <ele>8</ele>
        <time>2014-06-28T17:56:42.033Z</time>
      </trkpt>
      <trkpt lat="45.86967" lon="-0.82402">
        <ele>8</ele>
        <time>2014-06-28T17:56:50.060Z</time>
      </trkpt>
      <trkpt lat="45.86967" lon="-0.82401">
        <ele>8</ele>
        <time>2014-06-28T17:56:51.039Z</time>
      </trkpt>
      <trkpt lat="45.86961" lon="-0.82393">
        <ele>8</ele>
        <time>2014-06-28T17:56:58.049Z</time>
      </trkpt>
      <trkpt lat="45.8696" lon="-0.82392">
        <ele>8</ele>
        <time>2014-06-28T17:56:59.083Z</time>
      </trkpt>
      <trkpt lat="45.86954" lon="-0.82383">
        <ele>8</ele>
        <time>2014-06-28T17:57:06.051Z</time>
      </trkpt>
      <trkpt lat="45.86953" lon="-0.82381">
        <ele>8</ele>
        <time>2014-06-28T17:57:07.039Z</time>
      </trkpt>
      <trkpt lat="45.86947" lon="-0.82372">
        <ele>8</ele>
        <time>2014-06-28T17:57:14.074Z</time>
      </trkpt>
      <trkpt lat="45.86946" lon="-0.82371">
        <ele>9</ele>
        <time>2014-06-28T17:57:15.040Z</time>
      </trkpt>
      <trkpt lat="45.8694" lon="-0.82362">
        <ele>9</ele>
        <time>2014-06-28T17:57:21.058Z</time>
      </trkpt>
      <trkpt lat="45.86939" lon="-0.8236">
        <ele>9</ele>
        <time>2014-06-28T17:57:22.021Z</time>
      </trkpt>
      <trkpt lat="45.86934" lon="-0.82351">
        <ele>10</ele>
        <time>2014-06-28T17:57:29.050Z</time>
      </trkpt>
      <trkpt lat="45.86933" lon="-0.8235">
        <ele>10</ele>
        <time>2014-06-28T17:57:30.040Z</time>
      </trkpt>
      <trkpt lat="45.86927" lon="-0.82341">
        <ele>10</ele>
        <time>2014-06-28T17:57:38.016Z</time>
      </trkpt>
      <trkpt lat="45.86926" lon="-0.8234">
        <ele>11</ele>
        <time>2014-06-28T17:57:38.066Z</time>
      </trkpt>
      <trkpt lat="45.86922" lon="-0.8233">
        <ele>12</ele>
        <time>2014-06-28T17:57:45.052Z</time>
      </trkpt>
      <trkpt lat="45.86922" lon="-0.82329">
        <ele>12</ele>
        <time>2014-06-28T17:57:46.034Z</time>
      </trkpt>
      <trkpt lat="45.86927" lon="-0.82319">
        <ele>13</ele>
        <time>2014-06-28T17:57:55.063Z</time>
      </trkpt>
      <trkpt lat="45.86928" lon="-0.82318">
        <ele>13</ele>
        <time>2014-06-28T17:57:56.049Z</time>
      </trkpt>
      <trkpt lat="45.86936" lon="-0.82313">
        <ele>13</ele>
        <time>2014-06-28T17:58:03.065Z</time>
      </trkpt>
      <trkpt lat="45.86937" lon="-0.82312">
        <ele>13</ele>
        <time>2014-06-28T17:58:04.050Z</time>
      </trkpt>
      <trkpt lat="45.86944" lon="-0.82306">
        <ele>14</ele>
        <time>2014-06-28T17:58:12.903Z</time>
      </trkpt>
      <trkpt lat="45.86945" lon="-0.82306">
        <ele>14</ele>
        <time>2014-06-28T17:58:13.059Z</time>
      </trkpt>
      <trkpt lat="45.86953" lon="-0.823">
        <ele>14</ele>
        <time>2014-06-28T17:58:20.071Z</time>
      </trkpt>
      <trkpt lat="45.86954" lon="-0.82299">
        <ele>14</ele>
        <time>2014-06-28T17:58:21.040Z</time>
      </trkpt>
      <trkpt lat="45.86961" lon="-0.82295">
        <ele>13</ele>
        <time>2014-06-28T17:58:27.966Z</time>
      </trkpt>
      <trkpt lat="45.86963" lon="-0.82294">
        <ele>13</ele>
        <time>2014-06-28T17:58:28.071Z</time>
      </trkpt>
      <trkpt lat="45.86971" lon="-0.82289">
        <ele>13</ele>
        <time>2014-06-28T17:58:35.059Z</time>
      </trkpt>
      <trkpt lat="45.86972" lon="-0.82288">
        <ele>13</ele>
        <time>2014-06-28T17:58:36.035Z</time>
      </trkpt>
      <trkpt lat="45.8698" lon="-0.82283">
        <ele>13</ele>
        <time>2014-06-28T17:58:42.112Z</time>
      </trkpt>
      <trkpt lat="45.86982" lon="-0.82283">
        <ele>13</ele>
        <time>2014-06-28T17:58:43.149Z</time>
      </trkpt>
      <trkpt lat="45.86989" lon="-0.82277">
        <ele>13</ele>
        <time>2014-06-28T17:58:50.061Z</time>
      </trkpt>
      <trkpt lat="45.8699" lon="-0.82276">
        <ele>13</ele>
        <time>2014-06-28T17:58:51.049Z</time>
      </trkpt>
      <trkpt lat="45.86997" lon="-0.82268">
        <ele>13</ele>
        <time>2014-06-28T17:58:59.060Z</time>
      </trkpt>
      <trkpt lat="45.86999" lon="-0.82267">
        <ele>13</ele>
        <time>2014-06-28T17:59:00.085Z</time>
      </trkpt>
      <trkpt lat="45.87006" lon="-0.82262">
        <ele>11</ele>
        <time>2014-06-28T17:59:07.060Z</time>
      </trkpt>
      <trkpt lat="45.87007" lon="-0.8226">
        <ele>11</ele>
        <time>2014-06-28T17:59:08.029Z</time>
      </trkpt>
      <trkpt lat="45.87014" lon="-0.82256">
        <ele>11</ele>
        <time>2014-06-28T17:59:13.058Z</time>
      </trkpt>
      <trkpt lat="45.87016" lon="-0.82256">
        <ele>11</ele>
        <time>2014-06-28T17:59:14.058Z</time>
      </trkpt>
      <trkpt lat="45.87022" lon="-0.82248">
        <ele>13</ele>
        <time>2014-06-28T17:59:21.069Z</time>
      </trkpt>
      <trkpt lat="45.87023" lon="-0.82247">
        <ele>13</ele>
        <time>2014-06-28T17:59:22.042Z</time>
      </trkpt>
      <trkpt lat="45.87031" lon="-0.82243">
        <ele>13</ele>
        <time>2014-06-28T17:59:27.059Z</time>
      </trkpt>
      <trkpt lat="45.87032" lon="-0.82242">
        <ele>13</ele>
        <time>2014-06-28T17:59:28.040Z</time>
      </trkpt>
      <trkpt lat="45.87038" lon="-0.82234">
        <ele>12</ele>
        <time>2014-06-28T17:59:34.117Z</time>
      </trkpt>
      <trkpt lat="45.87039" lon="-0.82233">
        <ele>12</ele>
        <time>2014-06-28T17:59:35.040Z</time>
      </trkpt>
      <trkpt lat="45.87044" lon="-0.82227">
        <ele>12</ele>
        <time>2014-06-28T17:59:40.069Z</time>
      </trkpt>
      <trkpt lat="45.87047" lon="-0.82225">
        <ele>12</ele>
        <time>2014-06-28T17:59:41.041Z</time>
      </trkpt>
      <trkpt lat="45.87052" lon="-0.82215">
        <ele>12</ele>
        <time>2014-06-28T17:59:49.072Z</time>
      </trkpt>
      <trkpt lat="45.87055" lon="-0.82214">
        <ele>12</ele>
        <time>2014-06-28T17:59:50.045Z</time>
      </trkpt>
      <trkpt lat="45.8706" lon="-0.82205">
        <ele>12</ele>
        <time>2014-06-28T17:59:57.942Z</time>
      </trkpt>
      <trkpt lat="45.8706" lon="-0.82203">
        <ele>12</ele>
        <time>2014-06-28T17:59:58.024Z</time>
      </trkpt>
      <trkpt lat="45.87061" lon="-0.82191">
        <ele>12</ele>
        <time>2014-06-28T18:00:06.080Z</time>
      </trkpt>
      <trkpt lat="45.87061" lon="-0.82189">
        <ele>12</ele>
        <time>2014-06-28T18:00:07.054Z</time>
      </trkpt>
      <trkpt lat="45.87062" lon="-0.82177">
        <ele>12</ele>
        <time>2014-06-28T18:00:14.051Z</time>
      </trkpt>
      <trkpt lat="45.87063" lon="-0.82175">
        <ele>12</ele>
        <time>2014-06-28T18:00:15.083Z</time>
      </trkpt>
      <trkpt lat="45.87068" lon="-0.82165">
        <ele>14</ele>
        <time>2014-06-28T18:00:23.299Z</time>
      </trkpt>
      <trkpt lat="45.87069" lon="-0.82163">
        <ele>14</ele>
        <time>2014-06-28T18:00:24.041Z</time>
      </trkpt>
      <trkpt lat="45.87075" lon="-0.82154">
        <ele>14</ele>
        <time>2014-06-28T18:00:31.152Z</time>
      </trkpt>
      <trkpt lat="45.87076" lon="-0.82152">
        <ele>14</ele>
        <time>2014-06-28T18:00:32.036Z</time>
      </trkpt>
      <trkpt lat="45.87076" lon="-0.82139">
        <ele>16</ele>
        <time>2014-06-28T18:00:39.053Z</time>
      </trkpt>
      <trkpt lat="45.87076" lon="-0.82137">
        <ele>16</ele>
        <time>2014-06-28T18:00:40.039Z</time>
      </trkpt>
      <trkpt lat="45.8708" lon="-0.82127">
        <ele>17</ele>
        <time>2014-06-28T18:00:47.116Z</time>
      </trkpt>
      <trkpt lat="45.87081" lon="-0.82125">
        <ele>17</ele>
        <time>2014-06-28T18:00:48.042Z</time>
      </trkpt>
      <trkpt lat="45.87087" lon="-0.82117">
        <ele>12</ele>
        <time>2014-06-28T18:00:55.058Z</time>
      </trkpt>
      <trkpt lat="45.87087" lon="-0.82115">
        <ele>12</ele>
        <time>2014-06-28T18:00:56.049Z</time>
      </trkpt>
      <trkpt lat="45.87091" lon="-0.82105">
        <ele>13</ele>
        <time>2014-06-28T18:01:03.053Z</time>
      </trkpt>
      <trkpt lat="45.87092" lon="-0.82103">
        <ele>13</ele>
        <time>2014-06-28T18:01:04.050Z</time>
      </trkpt>
      <trkpt lat="45.87095" lon="-0.82091">
        <ele>14</ele>
        <time>2014-06-28T18:01:12.060Z</time>
      </trkpt>
      <trkpt lat="45.87096" lon="-0.8209">
        <ele>14</ele>
        <time>2014-06-28T18:01:13.146Z</time>
      </trkpt>
      <trkpt lat="45.87101" lon="-0.82081">
        <ele>16</ele>
        <time>2014-06-28T18:01:19.073Z</time>
      </trkpt>
      <trkpt lat="45.87102" lon="-0.8208">
        <ele>16</ele>
        <time>2014-06-28T18:01:20.043Z</time>
      </trkpt>
      <trkpt lat="45.87109" lon="-0.82074">
        <ele>15</ele>
        <time>2014-06-28T18:01:25.081Z</time>
      </trkpt>
      <trkpt lat="45.87109" lon="-0.82072">
        <ele>15</ele>
        <time>2014-06-28T18:01:26.044Z</time>
      </trkpt>
      <trkpt lat="45.87113" lon="-0.8206">
        <ele>15</ele>
        <time>2014-06-28T18:01:35.073Z</time>
      </trkpt>
      <trkpt lat="45.87113" lon="-0.82059">
        <ele>15</ele>
        <time>2014-06-28T18:01:36.052Z</time>
      </trkpt>
      <trkpt lat="45.87119" lon="-0.82051">
        <ele>15</ele>
        <time>2014-06-28T18:01:43.256Z</time>
      </trkpt>
      <trkpt lat="45.8712" lon="-0.8205">
        <ele>15</ele>
        <time>2014-06-28T18:01:44.044Z</time>
      </trkpt>
      <trkpt lat="45.87125" lon="-0.82039">
        <ele>15</ele>
        <time>2014-06-28T18:01:52.778Z</time>
      </trkpt>
      <trkpt lat="45.87124" lon="-0.82037">
        <ele>15</ele>
        <time>2014-06-28T18:01:53.029Z</time>
      </trkpt>
      <trkpt lat="45.87131" lon="-0.82031">
        <ele>15</ele>
        <time>2014-06-28T18:01:58.073Z</time>
      </trkpt>
      <trkpt lat="45.87132" lon="-0.8203">
        <ele>15</ele>
        <time>2014-06-28T18:01:59.051Z</time>
      </trkpt>
      <trkpt lat="45.87136" lon="-0.8202">
        <ele>14</ele>
        <time>2014-06-28T18:02:07.931Z</time>
      </trkpt>
      <trkpt lat="45.87138" lon="-0.82018">
        <ele>14</ele>
        <time>2014-06-28T18:02:08.003Z</time>
      </trkpt>
      <trkpt lat="45.8714" lon="-0.82008">
        <ele>14</ele>
        <time>2014-06-28T18:02:15.051Z</time>
      </trkpt>
      <trkpt lat="45.87142" lon="-0.82007">
        <ele>14</ele>
        <time>2014-06-28T18:02:16.048Z</time>
      </trkpt>
      <trkpt lat="45.87147" lon="-0.81998">
        <ele>16</ele>
        <time>2014-06-28T18:02:23.005Z</time>
      </trkpt>
      <trkpt lat="45.87148" lon="-0.81997">
        <ele>16</ele>
        <time>2014-06-28T18:02:23.052Z</time>
      </trkpt>
      <trkpt lat="45.87154" lon="-0.8199">
        <ele>16</ele>
        <time>2014-06-28T18:02:29.074Z</time>
      </trkpt>
      <trkpt lat="45.87156" lon="-0.81989">
        <ele>16</ele>
        <time>2014-06-28T18:02:30.043Z</time>
      </trkpt>
      <trkpt lat="45.8716" lon="-0.81979">
        <ele>17</ele>
        <time>2014-06-28T18:02:39.060Z</time>
      </trkpt>
      <trkpt lat="45.8716" lon="-0.81977">
        <ele>17</ele>
        <time>2014-06-28T18:02:40.059Z</time>
      </trkpt>
      <trkpt lat="45.87168" lon="-0.8197">
        <ele>12</ele>
        <time>2014-06-28T18:02:46.059Z</time>
      </trkpt>
      <trkpt lat="45.87169" lon="-0.81969">
        <ele>12</ele>
        <time>2014-06-28T18:02:47.043Z</time>
      </trkpt>
      <trkpt lat="45.87175" lon="-0.81959">
        <ele>12</ele>
        <time>2014-06-28T18:02:55.063Z</time>
      </trkpt>
      <trkpt lat="45.87176" lon="-0.81958">
        <ele>12</ele>
        <time>2014-06-28T18:02:56.049Z</time>
      </trkpt>
      <trkpt lat="45.87183" lon="-0.81953">
        <ele>12</ele>
        <time>2014-06-28T18:03:03.023Z</time>
      </trkpt>
      <trkpt lat="45.87184" lon="-0.81952">
        <ele>12</ele>
        <time>2014-06-28T18:03:04.041Z</time>
      </trkpt>
      <trkpt lat="45.87193" lon="-0.81948">
        <ele>12</ele>
        <time>2014-06-28T18:03:14.059Z</time>
      </trkpt>
      <trkpt lat="45.87193" lon="-0.81947">
        <ele>12</ele>
        <time>2014-06-28T18:03:15.043Z</time>
      </trkpt>
      <trkpt lat="45.87202" lon="-0.81944">
        <ele>11</ele>
        <time>2014-06-28T18:03:24.071Z</time>
      </trkpt>
      <trkpt lat="45.87202" lon="-0.81945">
        <ele>11</ele>
        <time>2014-06-28T18:03:25.048Z</time>
      </trkpt>
      <trkpt lat="45.87209" lon="-0.81953">
        <ele>11</ele>
        <time>2014-06-28T18:03:34.063Z</time>
      </trkpt>
      <trkpt lat="45.87209" lon="-0.81954">
        <ele>11</ele>
        <time>2014-06-28T18:03:35.092Z</time>
      </trkpt>
      <trkpt lat="45.87212" lon="-0.81965">
        <ele>10</ele>
        <time>2014-06-28T18:03:49.081Z</time>
      </trkpt>
      <trkpt lat="45.87213" lon="-0.81966">
        <ele>10</ele>
        <time>2014-06-28T18:03:50.048Z</time>
      </trkpt>
      <trkpt lat="45.87219" lon="-0.81975">
        <ele>9</ele>
        <time>2014-06-28T18:03:59.059Z</time>
      </trkpt>
      <trkpt lat="45.87218" lon="-0.81976">
        <ele>9</ele>
        <time>2014-06-28T18:04:00.065Z</time>
      </trkpt>
      <trkpt lat="45.8722" lon="-0.81987">
        <ele>9</ele>
        <time>2014-06-28T18:04:10.130Z</time>
      </trkpt>
      <trkpt lat="45.87221" lon="-0.81988">
        <ele>9</ele>
        <time>2014-06-28T18:04:11.059Z</time>
      </trkpt>
      <trkpt lat="45.87226" lon="-0.81998">
        <ele>8</ele>
        <time>2014-06-28T18:04:19.061Z</time>
      </trkpt>
      <trkpt lat="45.87227" lon="-0.81999">
        <ele>8</ele>
        <time>2014-06-28T18:04:20.077Z</time>
      </trkpt>
      <trkpt lat="45.87235" lon="-0.82004">
        <ele>6</ele>
        <time>2014-06-28T18:04:30.078Z</time>
      </trkpt>
      <trkpt lat="45.87236" lon="-0.82005">
        <ele>6</ele>
        <time>2014-06-28T18:04:31.044Z</time>
      </trkpt>
      <trkpt lat="45.87243" lon="-0.81998">
        <ele>6</ele>
        <time>2014-06-28T18:04:43.252Z</time>
      </trkpt>
      <trkpt lat="45.87246" lon="-0.81998">
        <ele>6</ele>
        <time>2014-06-28T18:04:44.044Z</time>
      </trkpt>
      <trkpt lat="45.87254" lon="-0.81996">
        <ele>5</ele>
        <time>2014-06-28T18:04:57.833Z</time>
      </trkpt>
      <trkpt lat="45.87255" lon="-0.81996">
        <ele>5</ele>
        <time>2014-06-28T18:04:58.048Z</time>
      </trkpt>
      <trkpt lat="45.87262" lon="-0.8199">
        <ele>5</ele>
        <time>2014-06-28T18:05:07.890Z</time>
      </trkpt>
      <trkpt lat="45.87263" lon="-0.8199">
        <ele>5</ele>
        <time>2014-06-28T18:05:08.018Z</time>
      </trkpt>
      <trkpt lat="45.8727" lon="-0.81982">
        <ele>5</ele>
        <time>2014-06-28T18:05:20.064Z</time>
      </trkpt>
      <trkpt lat="45.8727" lon="-0.81982">
        <ele>5</ele>
        <time>2014-06-28T18:05:21.053Z</time>
      </trkpt>
      <trkpt lat="45.87277" lon="-0.81975">
        <ele>5</ele>
        <time>2014-06-28T18:05:35.069Z</time>
      </trkpt>
      <trkpt lat="45.87278" lon="-0.81975">
        <ele>5</ele>
        <time>2014-06-28T18:05:36.041Z</time>
      </trkpt>
      <trkpt lat="45.87286" lon="-0.8197">
        <ele>5</ele>
        <time>2014-06-28T18:05:50.057Z</time>
      </trkpt>
      <trkpt lat="45.87287" lon="-0.81969">
        <ele>5</ele>
        <time>2014-06-28T18:05:51.040Z</time>
      </trkpt>
      <trkpt lat="45.87291" lon="-0.81959">
        <ele>5</ele>
        <time>2014-06-28T18:06:03.106Z</time>
      </trkpt>
      <trkpt lat="45.87292" lon="-0.81957">
        <ele>5</ele>
        <time>2014-06-28T18:06:04.051Z</time>
      </trkpt>
      <trkpt lat="45.87291" lon="-0.81946">
        <ele>6</ele>
        <time>2014-06-28T18:06:20.060Z</time>
      </trkpt>
      <trkpt lat="45.87292" lon="-0.81945">
        <ele>5</ele>
        <time>2014-06-28T18:06:21.036Z</time>
      </trkpt>
      <trkpt lat="45.87297" lon="-0.81936">
        <ele>5</ele>
        <time>2014-06-28T18:06:30.087Z</time>
      </trkpt>
      <trkpt lat="45.87297" lon="-0.81934">
        <ele>5</ele>
        <time>2014-06-28T18:06:31.072Z</time>
      </trkpt>
      <trkpt lat="45.87297" lon="-0.81922">
        <ele>5</ele>
        <time>2014-06-28T18:06:44.071Z</time>
      </trkpt>
      <trkpt lat="45.873" lon="-0.81921">
        <ele>5</ele>
        <time>2014-06-28T18:06:45.056Z</time>
      </trkpt>
      <trkpt lat="45.87305" lon="-0.81911">
        <ele>5</ele>
        <time>2014-06-28T18:06:58.061Z</time>
      </trkpt>
      <trkpt lat="45.87305" lon="-0.81909">
        <ele>5</ele>
        <time>2014-06-28T18:06:59.031Z</time>
      </trkpt>
      <trkpt lat="45.8731" lon="-0.81902">
        <ele>5</ele>
        <time>2014-06-28T18:07:05.072Z</time>
      </trkpt>
      <trkpt lat="45.87312" lon="-0.81901">
        <ele>5</ele>
        <time>2014-06-28T18:07:06.050Z</time>
      </trkpt>
      <trkpt lat="45.87318" lon="-0.81894">
        <ele>5</ele>
        <time>2014-06-28T18:07:13.038Z</time>
      </trkpt>
      <trkpt lat="45.87319" lon="-0.81893">
        <ele>5</ele>
        <time>2014-06-28T18:07:14.049Z</time>
      </trkpt>
      <trkpt lat="45.87326" lon="-0.81886">
        <ele>5</ele>
        <time>2014-06-28T18:07:20.075Z</time>
      </trkpt>
      <trkpt lat="45.87328" lon="-0.81885">
        <ele>5</ele>
        <time>2014-06-28T18:07:21.048Z</time>
      </trkpt>
      <trkpt lat="45.87335" lon="-0.81877">
        <ele>5</ele>
        <time>2014-06-28T18:07:30.218Z</time>
      </trkpt>
      <trkpt lat="45.87337" lon="-0.81876">
        <ele>5</ele>
        <time>2014-06-28T18:07:31.090Z</time>
      </trkpt>
      <trkpt lat="45.87342" lon="-0.81869">
        <ele>5</ele>
        <time>2014-06-28T18:07:38.152Z</time>
      </trkpt>
      <trkpt lat="45.87344" lon="-0.81865">
        <ele>5</ele>
        <time>2014-06-28T18:07:39.052Z</time>
      </trkpt>
      <trkpt lat="45.8735" lon="-0.81861">
        <ele>5</ele>
        <time>2014-06-28T18:07:41.079Z</time>
      </trkpt>
      <trkpt lat="45.87353" lon="-0.8186">
        <ele>5</ele>
        <time>2014-06-28T18:07:42.052Z</time>
      </trkpt>
      <trkpt lat="45.8736" lon="-0.81857">
        <ele>6</ele>
        <time>2014-06-28T18:07:49.089Z</time>
      </trkpt>
      <trkpt lat="45.87363" lon="-0.81858">
        <ele>6</ele>
        <time>2014-06-28T18:07:50.057Z</time>
      </trkpt>
      <trkpt lat="45.87371" lon="-0.81853">
        <ele>6</ele>
        <time>2014-06-28T18:08:03.063Z</time>
      </trkpt>
      <trkpt lat="45.87373" lon="-0.81852">
        <ele>6</ele>
        <time>2014-06-28T18:08:04.078Z</time>
      </trkpt>
      <trkpt lat="45.87379" lon="-0.81846">
        <ele>6</ele>
        <time>2014-06-28T18:08:08.071Z</time>
      </trkpt>
      <trkpt lat="45.8738" lon="-0.81843">
        <ele>6</ele>
        <time>2014-06-28T18:08:09.059Z</time>
      </trkpt>
      <trkpt lat="45.87387" lon="-0.81839">
        <ele>6</ele>
        <time>2014-06-28T18:08:11.033Z</time>
      </trkpt>
      <trkpt lat="45.87388" lon="-0.81836">
        <ele>6</ele>
        <time>2014-06-28T18:08:12.049Z</time>
      </trkpt>
      <trkpt lat="45.87394" lon="-0.81829">
        <ele>5</ele>
        <time>2014-06-28T18:08:20.077Z</time>
      </trkpt>
      <trkpt lat="45.87396" lon="-0.81827">
        <ele>5</ele>
        <time>2014-06-28T18:08:21.078Z</time>
      </trkpt>
      <trkpt lat="45.87402" lon="-0.81821">
        <ele>5</ele>
        <time>2014-06-28T18:08:25.064Z</time>
      </trkpt>
      <trkpt lat="45.87403" lon="-0.81819">
        <ele>5</ele>
        <time>2014-06-28T18:08:26.129Z</time>
      </trkpt>
      <trkpt lat="45.87412" lon="-0.81816">
        <ele>5</ele>
        <time>2014-06-28T18:08:33.136Z</time>
      </trkpt>
      <trkpt lat="45.87412" lon="-0.81815">
        <ele>5</ele>
        <time>2014-06-28T18:08:34.059Z</time>
      </trkpt>
      <trkpt lat="45.87419" lon="-0.81808">
        <ele>6</ele>
        <time>2014-06-28T18:08:41.063Z</time>
      </trkpt>
      <trkpt lat="45.8742" lon="-0.81807">
        <ele>6</ele>
        <time>2014-06-28T18:08:42.058Z</time>
      </trkpt>
      <trkpt lat="45.87427" lon="-0.81799">
        <ele>6</ele>
        <time>2014-06-28T18:08:50.224Z</time>
      </trkpt>
      <trkpt lat="45.87428" lon="-0.81798">
        <ele>6</ele>
        <time>2014-06-28T18:08:51.061Z</time>
      </trkpt>
      <trkpt lat="45.87431" lon="-0.81786">
        <ele>6</ele>
        <time>2014-06-28T18:09:03.059Z</time>
      </trkpt>
      <trkpt lat="45.87431" lon="-0.81785">
        <ele>6</ele>
        <time>2014-06-28T18:09:03.087Z</time>
      </trkpt>
      <trkpt lat="45.87432" lon="-0.81774">
        <ele>6</ele>
        <time>2014-06-28T18:09:11.108Z</time>
      </trkpt>
      <trkpt lat="45.87432" lon="-0.81772">
        <ele>6</ele>
        <time>2014-06-28T18:09:12.067Z</time>
      </trkpt>
      <trkpt lat="45.87435" lon="-0.8176">
        <ele>6</ele>
        <time>2014-06-28T18:09:21.109Z</time>
      </trkpt>
      <trkpt lat="45.87439" lon="-0.81758">
        <ele>6</ele>
        <time>2014-06-28T18:09:22.083Z</time>
      </trkpt>
      <trkpt lat="45.87445" lon="-0.8175">
        <ele>5</ele>
        <time>2014-06-28T18:09:28.149Z</time>
      </trkpt>
      <trkpt lat="45.87445" lon="-0.81749">
        <ele>5</ele>
        <time>2014-06-28T18:09:29.069Z</time>
      </trkpt>
      <trkpt lat="45.8745" lon="-0.81739">
        <ele>5</ele>
        <time>2014-06-28T18:09:39.084Z</time>
      </trkpt>
      <trkpt lat="45.87451" lon="-0.81738">
        <ele>5</ele>
        <time>2014-06-28T18:09:40.060Z</time>
      </trkpt>
      <trkpt lat="45.87457" lon="-0.81729">
        <ele>5</ele>
        <time>2014-06-28T18:09:47.122Z</time>
      </trkpt>
      <trkpt lat="45.87457" lon="-0.81728">
        <ele>5</ele>
        <time>2014-06-28T18:09:48.061Z</time>
      </trkpt>
      <trkpt lat="45.87463" lon="-0.81719">
        <ele>5</ele>
        <time>2014-06-28T18:09:56.156Z</time>
      </trkpt>
      <trkpt lat="45.87464" lon="-0.81718">
        <ele>5</ele>
        <time>2014-06-28T18:09:57.058Z</time>
      </trkpt>
      <trkpt lat="45.87471" lon="-0.81714">
        <ele>5</ele>
        <time>2014-06-28T18:10:03.074Z</time>
      </trkpt>
      <trkpt lat="45.87473" lon="-0.81713">
        <ele>5</ele>
        <time>2014-06-28T18:10:04.060Z</time>
      </trkpt>
      <trkpt lat="45.8748" lon="-0.81709">
        <ele>5</ele>
        <time>2014-06-28T18:10:10.071Z</time>
      </trkpt>
      <trkpt lat="45.87482" lon="-0.81709">
        <ele>5</ele>
        <time>2014-06-28T18:10:11.055Z</time>
      </trkpt>
      <trkpt lat="45.8749" lon="-0.81708">
        <ele>5</ele>
        <time>2014-06-28T18:10:18.063Z</time>
      </trkpt>
      <trkpt lat="45.87491" lon="-0.81707">
        <ele>5</ele>
        <time>2014-06-28T18:10:19.052Z</time>
      </trkpt>
      <trkpt lat="45.87499" lon="-0.81706">
        <ele>5</ele>
        <time>2014-06-28T18:10:28.099Z</time>
      </trkpt>
      <trkpt lat="45.875" lon="-0.81707">
        <ele>5</ele>
        <time>2014-06-28T18:10:28.159Z</time>
      </trkpt>
      <trkpt lat="45.87508" lon="-0.81708">
        <ele>5</ele>
        <time>2014-06-28T18:10:41.099Z</time>
      </trkpt>
      <trkpt lat="45.87509" lon="-0.81709">
        <ele>5</ele>
        <time>2014-06-28T18:10:42.061Z</time>
      </trkpt>
      <trkpt lat="45.87517" lon="-0.81709">
        <ele>5</ele>
        <time>2014-06-28T18:10:50.071Z</time>
      </trkpt>
      <trkpt lat="45.87519" lon="-0.8171">
        <ele>5</ele>
        <time>2014-06-28T18:10:51.063Z</time>
      </trkpt>
      <trkpt lat="45.87527" lon="-0.81712">
        <ele>5</ele>
        <time>2014-06-28T18:10:58.085Z</time>
      </trkpt>
      <trkpt lat="45.87528" lon="-0.81713">
        <ele>5</ele>
        <time>2014-06-28T18:10:59.054Z</time>
      </trkpt>
      <trkpt lat="45.87536" lon="-0.81714">
        <ele>5</ele>
        <time>2014-06-28T18:11:06.071Z</time>
      </trkpt>
      <trkpt lat="45.87537" lon="-0.81714">
        <ele>5</ele>
        <time>2014-06-28T18:11:07.074Z</time>
      </trkpt>
      <trkpt lat="45.87546" lon="-0.81715">
        <ele>5</ele>
        <time>2014-06-28T18:11:15.071Z</time>
      </trkpt>
      <trkpt lat="45.87547" lon="-0.81715">
        <ele>5</ele>
        <time>2014-06-28T18:11:16.081Z</time>
      </trkpt>
      <trkpt lat="45.87555" lon="-0.81716">
        <ele>5</ele>
        <time>2014-06-28T18:11:24.071Z</time>
      </trkpt>
      <trkpt lat="45.87556" lon="-0.81716">
        <ele>5</ele>
        <time>2014-06-28T18:11:25.054Z</time>
      </trkpt>
      <trkpt lat="45.87564" lon="-0.81717">
        <ele>5</ele>
        <time>2014-06-28T18:11:33.142Z</time>
      </trkpt>
      <trkpt lat="45.87565" lon="-0.81717">
        <ele>5</ele>
        <time>2014-06-28T18:11:34.042Z</time>
      </trkpt>
      <trkpt lat="45.87574" lon="-0.81718">
        <ele>5</ele>
        <time>2014-06-28T18:11:41.092Z</time>
      </trkpt>
      <trkpt lat="45.87575" lon="-0.81718">
        <ele>5</ele>
        <time>2014-06-28T18:11:42.059Z</time>
      </trkpt>
      <trkpt lat="45.87583" lon="-0.81717">
        <ele>5</ele>
        <time>2014-06-28T18:11:51.074Z</time>
      </trkpt>
      <trkpt lat="45.87585" lon="-0.81717">
        <ele>5</ele>
        <time>2014-06-28T18:11:52.131Z</time>
      </trkpt>
      <trkpt lat="45.87593" lon="-0.81714">
        <ele>5</ele>
        <time>2014-06-28T18:12:01.072Z</time>
      </trkpt>
      <trkpt lat="45.87595" lon="-0.81713">
        <ele>5</ele>
        <time>2014-06-28T18:12:02.067Z</time>
      </trkpt>
      <trkpt lat="45.87602" lon="-0.81706">
        <ele>4</ele>
        <time>2014-06-28T18:12:10.093Z</time>
      </trkpt>
      <trkpt lat="45.87603" lon="-0.81705">
        <ele>4</ele>
        <time>2014-06-28T18:12:11.053Z</time>
      </trkpt>
      <trkpt lat="45.8761" lon="-0.81699">
        <ele>4</ele>
        <time>2014-06-28T18:12:19.072Z</time>
      </trkpt>
      <trkpt lat="45.87611" lon="-0.81698">
        <ele>4</ele>
        <time>2014-06-28T18:12:20.052Z</time>
      </trkpt>
      <trkpt lat="45.87618" lon="-0.81691">
        <ele>4</ele>
        <time>2014-06-28T18:12:28.160Z</time>
      </trkpt>
      <trkpt lat="45.87619" lon="-0.81689">
        <ele>4</ele>
        <time>2014-06-28T18:12:29.137Z</time>
      </trkpt>
      <trkpt lat="45.87626" lon="-0.81681">
        <ele>4</ele>
        <time>2014-06-28T18:12:36.111Z</time>
      </trkpt>
      <trkpt lat="45.87627" lon="-0.8168">
        <ele>4</ele>
        <time>2014-06-28T18:12:37.079Z</time>
      </trkpt>
      <trkpt lat="45.87632" lon="-0.81671">
        <ele>4</ele>
        <time>2014-06-28T18:12:44.071Z</time>
      </trkpt>
      <trkpt lat="45.87633" lon="-0.81669">
        <ele>4</ele>
        <time>2014-06-28T18:12:45.060Z</time>
      </trkpt>
      <trkpt lat="45.87637" lon="-0.81659">
        <ele>3</ele>
        <time>2014-06-28T18:12:51.079Z</time>
      </trkpt>
      <trkpt lat="45.87637" lon="-0.81658">
        <ele>3</ele>
        <time>2014-06-28T18:12:52.062Z</time>
      </trkpt>
      <trkpt lat="45.8764" lon="-0.81648">
        <ele>3</ele>
        <time>2014-06-28T18:12:58.049Z</time>
      </trkpt>
      <trkpt lat="45.87641" lon="-0.81646">
        <ele>3</ele>
        <time>2014-06-28T18:12:59.059Z</time>
      </trkpt>
      <trkpt lat="45.87643" lon="-0.81634">
        <ele>3</ele>
        <time>2014-06-28T18:13:10.131Z</time>
      </trkpt>
      <trkpt lat="45.87644" lon="-0.81632">
        <ele>3</ele>
        <time>2014-06-28T18:13:11.089Z</time>
      </trkpt>
      <trkpt lat="45.87647" lon="-0.81622">
        <ele>3</ele>
        <time>2014-06-28T18:13:17.152Z</time>
      </trkpt>
      <trkpt lat="45.87648" lon="-0.8162">
        <ele>3</ele>
        <time>2014-06-28T18:13:18.070Z</time>
      </trkpt>
      <trkpt lat="45.87651" lon="-0.81608">
        <ele>3</ele>
        <time>2014-06-28T18:13:25.085Z</time>
      </trkpt>
      <trkpt lat="45.87652" lon="-0.81607">
        <ele>2</ele>
        <time>2014-06-28T18:13:26.060Z</time>
      </trkpt>
      <trkpt lat="45.87654" lon="-0.81595">
        <ele>2</ele>
        <time>2014-06-28T18:13:36.101Z</time>
      </trkpt>
      <trkpt lat="45.87654" lon="-0.81594">
        <ele>2</ele>
        <time>2014-06-28T18:13:37.070Z</time>
      </trkpt>
      <trkpt lat="45.87658" lon="-0.81583">
        <ele>2</ele>
        <time>2014-06-28T18:13:43.423Z</time>
      </trkpt>
      <trkpt lat="45.87659" lon="-0.81581">
        <ele>2</ele>
        <time>2014-06-28T18:13:44.040Z</time>
      </trkpt>
      <trkpt lat="45.87662" lon="-0.8157">
        <ele>2</ele>
        <time>2014-06-28T18:13:50.071Z</time>
      </trkpt>
      <trkpt lat="45.87663" lon="-0.81568">
        <ele>2</ele>
        <time>2014-06-28T18:13:51.059Z</time>
      </trkpt>
      <trkpt lat="45.87666" lon="-0.81557">
        <ele>2</ele>
        <time>2014-06-28T18:13:57.823Z</time>
      </trkpt>
      <trkpt lat="45.87667" lon="-0.81555">
        <ele>2</ele>
        <time>2014-06-28T18:13:58.045Z</time>
      </trkpt>
      <trkpt lat="45.87671" lon="-0.81544">
        <ele>2</ele>
        <time>2014-06-28T18:14:05.071Z</time>
      </trkpt>
      <trkpt lat="45.87671" lon="-0.81542">
        <ele>2</ele>
        <time>2014-06-28T18:14:06.057Z</time>
      </trkpt>
      <trkpt lat="45.87675" lon="-0.81531">
        <ele>2</ele>
        <time>2014-06-28T18:14:13.066Z</time>
      </trkpt>
      <trkpt lat="45.87675" lon="-0.81529">
        <ele>2</ele>
        <time>2014-06-28T18:14:14.053Z</time>
      </trkpt>
      <trkpt lat="45.87679" lon="-0.81518">
        <ele>2</ele>
        <time>2014-06-28T18:14:21.068Z</time>
      </trkpt>
      <trkpt lat="45.87679" lon="-0.81517">
        <ele>2</ele>
        <time>2014-06-28T18:14:22.063Z</time>
      </trkpt>
      <trkpt lat="45.87682" lon="-0.81506">
        <ele>2</ele>
        <time>2014-06-28T18:14:29.090Z</time>
      </trkpt>
      <trkpt lat="45.87683" lon="-0.81504">
        <ele>2</ele>
        <time>2014-06-28T18:14:30.046Z</time>
      </trkpt>
      <trkpt lat="45.87686" lon="-0.81493">
        <ele>2</ele>
        <time>2014-06-28T18:14:38.064Z</time>
      </trkpt>
      <trkpt lat="45.87686" lon="-0.81492">
        <ele>2</ele>
        <time>2014-06-28T18:14:38.119Z</time>
      </trkpt>
      <trkpt lat="45.8769" lon="-0.81481">
        <ele>2</ele>
        <time>2014-06-28T18:14:45.070Z</time>
      </trkpt>
      <trkpt lat="45.87691" lon="-0.81479">
        <ele>2</ele>
        <time>2014-06-28T18:14:46.058Z</time>
      </trkpt>
      <trkpt lat="45.87695" lon="-0.81468">
        <ele>2</ele>
        <time>2014-06-28T18:14:53.080Z</time>
      </trkpt>
      <trkpt lat="45.87696" lon="-0.81466">
        <ele>2</ele>
        <time>2014-06-28T18:14:54.039Z</time>
      </trkpt>
      <trkpt lat="45.87698" lon="-0.81455">
        <ele>2</ele>
        <time>2014-06-28T18:15:00.105Z</time>
      </trkpt>
      <trkpt lat="45.87698" lon="-0.81453">
        <ele>2</ele>
        <time>2014-06-28T18:15:01.055Z</time>
      </trkpt>
      <trkpt lat="45.87702" lon="-0.81442">
        <ele>2</ele>
        <time>2014-06-28T18:15:08.040Z</time>
      </trkpt>
      <trkpt lat="45.87702" lon="-0.8144">
        <ele>2</ele>
        <time>2014-06-28T18:15:09.061Z</time>
      </trkpt>
      <trkpt lat="45.87705" lon="-0.81429">
        <ele>2</ele>
        <time>2014-06-28T18:15:15.086Z</time>
      </trkpt>
      <trkpt lat="45.87705" lon="-0.81428">
        <ele>2</ele>
        <time>2014-06-28T18:15:16.056Z</time>
      </trkpt>
      <trkpt lat="45.87708" lon="-0.81416">
        <ele>2</ele>
        <time>2014-06-28T18:15:23.180Z</time>
      </trkpt>
      <trkpt lat="45.87709" lon="-0.81414">
        <ele>2</ele>
        <time>2014-06-28T18:15:24.074Z</time>
      </trkpt>
      <trkpt lat="45.87712" lon="-0.81402">
        <ele>2</ele>
        <time>2014-06-28T18:15:31.078Z</time>
      </trkpt>
      <trkpt lat="45.87712" lon="-0.814">
        <ele>2</ele>
        <time>2014-06-28T18:15:32.062Z</time>
      </trkpt>
      <trkpt lat="45.87715" lon="-0.81389">
        <ele>2</ele>
        <time>2014-06-28T18:15:38.370Z</time>
      </trkpt>
      <trkpt lat="45.87715" lon="-0.81388">
        <ele>2</ele>
        <time>2014-06-28T18:15:39.066Z</time>
      </trkpt>
      <trkpt lat="45.87717" lon="-0.81375">
        <ele>2</ele>
        <time>2014-06-28T18:15:46.079Z</time>
      </trkpt>
      <trkpt lat="45.87718" lon="-0.81373">
        <ele>2</ele>
        <time>2014-06-28T18:15:47.061Z</time>
      </trkpt>
      <trkpt lat="45.87721" lon="-0.81361">
        <ele>2</ele>
        <time>2014-06-28T18:15:54.089Z</time>
      </trkpt>
      <trkpt lat="45.87721" lon="-0.81359">
        <ele>2</ele>
        <time>2014-06-28T18:15:55.059Z</time>
      </trkpt>
      <trkpt lat="45.87725" lon="-0.81348">
        <ele>2</ele>
        <time>2014-06-28T18:16:02.858Z</time>
      </trkpt>
      <trkpt lat="45.87725" lon="-0.81346">
        <ele>2</ele>
        <time>2014-06-28T18:16:03.062Z</time>
      </trkpt>
      <trkpt lat="45.87729" lon="-0.81335">
        <ele>2</ele>
        <time>2014-06-28T18:16:10.083Z</time>
      </trkpt>
      <trkpt lat="45.8773" lon="-0.81333">
        <ele>2</ele>
        <time>2014-06-28T18:16:11.059Z</time>
      </trkpt>
      <trkpt lat="45.87734" lon="-0.81323">
        <ele>2</ele>
        <time>2014-06-28T18:16:17.926Z</time>
      </trkpt>
      <trkpt lat="45.87735" lon="-0.81322">
        <ele>2</ele>
        <time>2014-06-28T18:16:18.053Z</time>
      </trkpt>
      <trkpt lat="45.8774" lon="-0.81311">
        <ele>2</ele>
        <time>2014-06-28T18:16:25.080Z</time>
      </trkpt>
      <trkpt lat="45.8774" lon="-0.81309">
        <ele>2</ele>
        <time>2014-06-28T18:16:26.045Z</time>
      </trkpt>
      <trkpt lat="45.87744" lon="-0.813">
        <ele>2</ele>
        <time>2014-06-28T18:16:32.994Z</time>
      </trkpt>
      <trkpt lat="45.87744" lon="-0.81298">
        <ele>2</ele>
        <time>2014-06-28T18:16:33.046Z</time>
      </trkpt>
      <trkpt lat="45.87749" lon="-0.81289">
        <ele>2</ele>
        <time>2014-06-28T18:16:39.079Z</time>
      </trkpt>
      <trkpt lat="45.8775" lon="-0.81287">
        <ele>2</ele>
        <time>2014-06-28T18:16:40.198Z</time>
      </trkpt>
      <trkpt lat="45.87754" lon="-0.81277">
        <ele>3</ele>
        <time>2014-06-28T18:16:46.094Z</time>
      </trkpt>
      <trkpt lat="45.87755" lon="-0.81276">
        <ele>3</ele>
        <time>2014-06-28T18:16:47.069Z</time>
      </trkpt>
      <trkpt lat="45.87759" lon="-0.81265">
        <ele>3</ele>
        <time>2014-06-28T18:16:54.091Z</time>
      </trkpt>
      <trkpt lat="45.8776" lon="-0.81264">
        <ele>3</ele>
        <time>2014-06-28T18:16:55.074Z</time>
      </trkpt>
      <trkpt lat="45.87765" lon="-0.81253">
        <ele>3</ele>
        <time>2014-06-28T18:17:02.912Z</time>
      </trkpt>
      <trkpt lat="45.87765" lon="-0.81252">
        <ele>3</ele>
        <time>2014-06-28T18:17:03.048Z</time>
      </trkpt>
      <trkpt lat="45.8777" lon="-0.81241">
        <ele>3</ele>
        <time>2014-06-28T18:17:10.084Z</time>
      </trkpt>
      <trkpt lat="45.8777" lon="-0.81239">
        <ele>3</ele>
        <time>2014-06-28T18:17:11.058Z</time>
      </trkpt>
      <trkpt lat="45.87774" lon="-0.81228">
        <ele>3</ele>
        <time>2014-06-28T18:17:18.301Z</time>
      </trkpt>
      <trkpt lat="45.87775" lon="-0.81227">
        <ele>3</ele>
        <time>2014-06-28T18:17:19.060Z</time>
      </trkpt>
      <trkpt lat="45.87779" lon="-0.81216">
        <ele>3</ele>
        <time>2014-06-28T18:17:26.095Z</time>
      </trkpt>
      <trkpt lat="45.8778" lon="-0.81214">
        <ele>3</ele>
        <time>2014-06-28T18:17:27.069Z</time>
      </trkpt>
      <trkpt lat="45.87784" lon="-0.81204">
        <ele>2</ele>
        <time>2014-06-28T18:17:33.373Z</time>
      </trkpt>
      <trkpt lat="45.87784" lon="-0.81202">
        <ele>2</ele>
        <time>2014-06-28T18:17:34.061Z</time>
      </trkpt>
      <trkpt lat="45.87788" lon="-0.81191">
        <ele>2</ele>
        <time>2014-06-28T18:17:41.157Z</time>
      </trkpt>
      <trkpt lat="45.87789" lon="-0.81189">
        <ele>2</ele>
        <time>2014-06-28T18:17:42.075Z</time>
      </trkpt>
      <trkpt lat="45.87793" lon="-0.81178">
        <ele>2</ele>
        <time>2014-06-28T18:17:49.072Z</time>
      </trkpt>
      <trkpt lat="45.87793" lon="-0.81177">
        <ele>2</ele>
        <time>2014-06-28T18:17:50.063Z</time>
      </trkpt>
      <trkpt lat="45.87797" lon="-0.81166">
        <ele>2</ele>
        <time>2014-06-28T18:17:57.851Z</time>
      </trkpt>
      <trkpt lat="45.87798" lon="-0.81164">
        <ele>2</ele>
        <time>2014-06-28T18:17:58.060Z</time>
      </trkpt>
      <trkpt lat="45.87802" lon="-0.81154">
        <ele>2</ele>
        <time>2014-06-28T18:18:05.078Z</time>
      </trkpt>
      <trkpt lat="45.87803" lon="-0.81152">
        <ele>2</ele>
        <time>2014-06-28T18:18:06.070Z</time>
      </trkpt>
      <trkpt lat="45.8781" lon="-0.81144">
        <ele>2</ele>
        <time>2014-06-28T18:18:13.089Z</time>
      </trkpt>
      <trkpt lat="45.87811" lon="-0.81143">
        <ele>2</ele>
        <time>2014-06-28T18:18:14.058Z</time>
      </trkpt>
      <trkpt lat="45.87817" lon="-0.81137">
        <ele>2</ele>
        <time>2014-06-28T18:18:20.101Z</time>
      </trkpt>
      <trkpt lat="45.87819" lon="-0.81137">
        <ele>2</ele>
        <time>2014-06-28T18:18:21.062Z</time>
      </trkpt>
      <trkpt lat="45.87826" lon="-0.81131">
        <ele>2</ele>
        <time>2014-06-28T18:18:28.108Z</time>
      </trkpt>
      <trkpt lat="45.87827" lon="-0.81131">
        <ele>2</ele>
        <time>2014-06-28T18:18:29.059Z</time>
      </trkpt>
      <trkpt lat="45.87835" lon="-0.81127">
        <ele>2</ele>
        <time>2014-06-28T18:18:38.040Z</time>
      </trkpt>
      <trkpt lat="45.87836" lon="-0.81127">
        <ele>2</ele>
        <time>2014-06-28T18:18:38.089Z</time>
      </trkpt>
      <trkpt lat="45.87844" lon="-0.81125">
        <ele>2</ele>
        <time>2014-06-28T18:18:46.122Z</time>
      </trkpt>
      <trkpt lat="45.87845" lon="-0.81124">
        <ele>2</ele>
        <time>2014-06-28T18:18:47.079Z</time>
      </trkpt>
      <trkpt lat="45.87854" lon="-0.81122">
        <ele>2</ele>
        <time>2014-06-28T18:18:55.107Z</time>
      </trkpt>
      <trkpt lat="45.87855" lon="-0.81122">
        <ele>2</ele>
        <time>2014-06-28T18:18:56.070Z</time>
      </trkpt>
      <trkpt lat="45.87863" lon="-0.8112">
        <ele>2</ele>
        <time>2014-06-28T18:19:02.853Z</time>
      </trkpt>
      <trkpt lat="45.87864" lon="-0.8112">
        <ele>2</ele>
        <time>2014-06-28T18:19:03.063Z</time>
      </trkpt>
      <trkpt lat="45.87873" lon="-0.81118">
        <ele>2</ele>
        <time>2014-06-28T18:19:11.080Z</time>
      </trkpt>
      <trkpt lat="45.87874" lon="-0.81118">
        <ele>2</ele>
        <time>2014-06-28T18:19:12.062Z</time>
      </trkpt>
      <trkpt lat="45.87882" lon="-0.81116">
        <ele>2</ele>
        <time>2014-06-28T18:19:18.124Z</time>
      </trkpt>
      <trkpt lat="45.87883" lon="-0.81116">
        <ele>2</ele>
        <time>2014-06-28T18:19:19.063Z</time>
      </trkpt>
      <trkpt lat="45.87892" lon="-0.81114">
        <ele>2</ele>
        <time>2014-06-28T18:19:26.081Z</time>
      </trkpt>
      <trkpt lat="45.87893" lon="-0.81114">
        <ele>2</ele>
        <time>2014-06-28T18:19:27.062Z</time>
      </trkpt>
      <trkpt lat="45.87901" lon="-0.81114">
        <ele>2</ele>
        <time>2014-06-28T18:19:32.107Z</time>
      </trkpt>
      <trkpt lat="45.87902" lon="-0.81115">
        <ele>2</ele>
        <time>2014-06-28T18:19:33.099Z</time>
      </trkpt>
      <trkpt lat="45.8791" lon="-0.81116">
        <ele>2</ele>
        <time>2014-06-28T18:19:39.130Z</time>
      </trkpt>
      <trkpt lat="45.87911" lon="-0.81116">
        <ele>2</ele>
        <time>2014-06-28T18:19:40.049Z</time>
      </trkpt>
      <trkpt lat="45.8792" lon="-0.81118">
        <ele>2</ele>
        <time>2014-06-28T18:19:46.089Z</time>
      </trkpt>
      <trkpt lat="45.87921" lon="-0.81118">
        <ele>2</ele>
        <time>2014-06-28T18:19:47.063Z</time>
      </trkpt>
      <trkpt lat="45.8793" lon="-0.81121">
        <ele>2</ele>
        <time>2014-06-28T18:19:54.086Z</time>
      </trkpt>
      <trkpt lat="45.87931" lon="-0.81122">
        <ele>2</ele>
        <time>2014-06-28T18:19:55.161Z</time>
      </trkpt>
      <trkpt lat="45.87939" lon="-0.81124">
        <ele>2</ele>
        <time>2014-06-28T18:20:01.113Z</time>
      </trkpt>
      <trkpt lat="45.8794" lon="-0.81125">
        <ele>2</ele>
        <time>2014-06-28T18:20:02.113Z</time>
      </trkpt>
      <trkpt lat="45.87949" lon="-0.81128">
        <ele>2</ele>
        <time>2014-06-28T18:20:09.127Z</time>
      </trkpt>
      <trkpt lat="45.8795" lon="-0.81129">
        <ele>2</ele>
        <time>2014-06-28T18:20:10.158Z</time>
      </trkpt>
      <trkpt lat="45.87959" lon="-0.81132">
        <ele>2</ele>
        <time>2014-06-28T18:20:17.086Z</time>
      </trkpt>
      <trkpt lat="45.8796" lon="-0.81133">
        <ele>2</ele>
        <time>2014-06-28T18:20:18.073Z</time>
      </trkpt>
      <trkpt lat="45.87968" lon="-0.81137">
        <ele>2</ele>
        <time>2014-06-28T18:20:25.105Z</time>
      </trkpt>
      <trkpt lat="45.87969" lon="-0.81137">
        <ele>2</ele>
        <time>2014-06-28T18:20:26.052Z</time>
      </trkpt>
      <trkpt lat="45.87977" lon="-0.81141">
        <ele>2</ele>
        <time>2014-06-28T18:20:33.094Z</time>
      </trkpt>
      <trkpt lat="45.87979" lon="-0.81142">
        <ele>2</ele>
        <time>2014-06-28T18:20:34.065Z</time>
      </trkpt>
      <trkpt lat="45.87986" lon="-0.81146">
        <ele>2</ele>
        <time>2014-06-28T18:20:41.087Z</time>
      </trkpt>
      <trkpt lat="45.87988" lon="-0.81147">
        <ele>2</ele>
        <time>2014-06-28T18:20:42.070Z</time>
      </trkpt>
      <trkpt lat="45.87996" lon="-0.81151">
        <ele>2</ele>
        <time>2014-06-28T18:20:49.170Z</time>
      </trkpt>
      <trkpt lat="45.87997" lon="-0.81152">
        <ele>2</ele>
        <time>2014-06-28T18:20:50.066Z</time>
      </trkpt>
      <trkpt lat="45.88004" lon="-0.81156">
        <ele>2</ele>
        <time>2014-06-28T18:20:57.859Z</time>
      </trkpt>
      <trkpt lat="45.88006" lon="-0.81157">
        <ele>2</ele>
        <time>2014-06-28T18:20:58.160Z</time>
      </trkpt>
      <trkpt lat="45.88014" lon="-0.81161">
        <ele>2</ele>
        <time>2014-06-28T18:21:05.083Z</time>
      </trkpt>
      <trkpt lat="45.88015" lon="-0.81161">
        <ele>2</ele>
        <time>2014-06-28T18:21:06.068Z</time>
      </trkpt>
      <trkpt lat="45.88022" lon="-0.81166">
        <ele>2</ele>
        <time>2014-06-28T18:21:13.050Z</time>
      </trkpt>
      <trkpt lat="45.88023" lon="-0.81167">
        <ele>3</ele>
        <time>2014-06-28T18:21:14.070Z</time>
      </trkpt>
      <trkpt lat="45.88031" lon="-0.81173">
        <ele>3</ele>
        <time>2014-06-28T18:21:21.096Z</time>
      </trkpt>
      <trkpt lat="45.88032" lon="-0.81174">
        <ele>3</ele>
        <time>2014-06-28T18:21:22.053Z</time>
      </trkpt>
      <trkpt lat="45.88038" lon="-0.8118">
        <ele>3</ele>
        <time>2014-06-28T18:21:29.196Z</time>
      </trkpt>
      <trkpt lat="45.88039" lon="-0.81182">
        <ele>3</ele>
        <time>2014-06-28T18:21:30.069Z</time>
      </trkpt>
      <trkpt lat="45.88047" lon="-0.81184">
        <ele>3</ele>
        <time>2014-06-28T18:21:38.064Z</time>
      </trkpt>
      <trkpt lat="45.88048" lon="-0.81187">
        <ele>3</ele>
        <time>2014-06-28T18:21:38.118Z</time>
      </trkpt>
      <trkpt lat="45.88055" lon="-0.81192">
        <ele>3</ele>
        <time>2014-06-28T18:21:45.048Z</time>
      </trkpt>
      <trkpt lat="45.88056" lon="-0.81194">
        <ele>3</ele>
        <time>2014-06-28T18:21:46.069Z</time>
      </trkpt>
      <trkpt lat="45.88063" lon="-0.81201">
        <ele>3</ele>
        <time>2014-06-28T18:21:53.078Z</time>
      </trkpt>
      <trkpt lat="45.88064" lon="-0.812">
        <ele>3</ele>
        <time>2014-06-28T18:21:54.161Z</time>
      </trkpt>
      <trkpt lat="45.8807" lon="-0.81208">
        <ele>3</ele>
        <time>2014-06-28T18:22:01.081Z</time>
      </trkpt>
      <trkpt lat="45.88072" lon="-0.81209">
        <ele>3</ele>
        <time>2014-06-28T18:22:02.068Z</time>
      </trkpt>
      <trkpt lat="45.88078" lon="-0.81217">
        <ele>4</ele>
        <time>2014-06-28T18:22:09.080Z</time>
      </trkpt>
      <trkpt lat="45.88079" lon="-0.81217">
        <ele>4</ele>
        <time>2014-06-28T18:22:10.069Z</time>
      </trkpt>
      <trkpt lat="45.88085" lon="-0.81227">
        <ele>4</ele>
        <time>2014-06-28T18:22:18.088Z</time>
      </trkpt>
      <trkpt lat="45.88085" lon="-0.81228">
        <ele>4</ele>
        <time>2014-06-28T18:22:18.135Z</time>
      </trkpt>
      <trkpt lat="45.8809" lon="-0.81238">
        <ele>4</ele>
        <time>2014-06-28T18:22:24.105Z</time>
      </trkpt>
      <trkpt lat="45.88091" lon="-0.81238">
        <ele>4</ele>
        <time>2014-06-28T18:22:25.071Z</time>
      </trkpt>
      <trkpt lat="45.88098" lon="-0.81245">
        <ele>4</ele>
        <time>2014-06-28T18:22:34.102Z</time>
      </trkpt>
      <trkpt lat="45.88099" lon="-0.81245">
        <ele>4</ele>
        <time>2014-06-28T18:22:35.074Z</time>
      </trkpt>
      <trkpt lat="45.88106" lon="-0.81251">
        <ele>5</ele>
        <time>2014-06-28T18:22:48.421Z</time>
      </trkpt>
      <trkpt lat="45.88106" lon="-0.81252">
        <ele>5</ele>
        <time>2014-06-28T18:22:49.069Z</time>
      </trkpt>
      <trkpt lat="45.88113" lon="-0.8126">
        <ele>5</ele>
        <time>2014-06-28T18:22:59.111Z</time>
      </trkpt>
      <trkpt lat="45.88114" lon="-0.8126">
        <ele>5</ele>
        <time>2014-06-28T18:23:00.081Z</time>
      </trkpt>
      <trkpt lat="45.88118" lon="-0.81269">
        <ele>5</ele>
        <time>2014-06-28T18:23:08.070Z</time>
      </trkpt>
      <trkpt lat="45.88119" lon="-0.81271">
        <ele>5</ele>
        <time>2014-06-28T18:23:09.070Z</time>
      </trkpt>
      <trkpt lat="45.88125" lon="-0.8128">
        <ele>4</ele>
        <time>2014-06-28T18:23:14.082Z</time>
      </trkpt>
      <trkpt lat="45.88127" lon="-0.81282">
        <ele>4</ele>
        <time>2014-06-28T18:23:15.075Z</time>
      </trkpt>
      <trkpt lat="45.88134" lon="-0.8129">
        <ele>4</ele>
        <time>2014-06-28T18:23:26.099Z</time>
      </trkpt>
      <trkpt lat="45.88136" lon="-0.81292">
        <ele>4</ele>
        <time>2014-06-28T18:23:27.079Z</time>
      </trkpt>
      <trkpt lat="45.88139" lon="-0.81303">
        <ele>4</ele>
        <time>2014-06-28T18:23:34.082Z</time>
      </trkpt>
      <trkpt lat="45.88139" lon="-0.81305">
        <ele>4</ele>
        <time>2014-06-28T18:23:35.072Z</time>
      </trkpt>
      <trkpt lat="45.88143" lon="-0.81315">
        <ele>4</ele>
        <time>2014-06-28T18:23:43.078Z</time>
      </trkpt>
      <trkpt lat="45.88144" lon="-0.81317">
        <ele>4</ele>
        <time>2014-06-28T18:23:43.123Z</time>
      </trkpt>
      <trkpt lat="45.88145" lon="-0.81329">
        <ele>4</ele>
        <time>2014-06-28T18:23:52.796Z</time>
      </trkpt>
      <trkpt lat="45.88146" lon="-0.81331">
        <ele>4</ele>
        <time>2014-06-28T18:23:53.084Z</time>
      </trkpt>
      <trkpt lat="45.8815" lon="-0.81339">
        <ele>4</ele>
        <time>2014-06-28T18:23:57.070Z</time>
      </trkpt>
      <trkpt lat="45.88151" lon="-0.81342">
        <ele>4</ele>
        <time>2014-06-28T18:23:58.082Z</time>
      </trkpt>
      <trkpt lat="45.88153" lon="-0.81349">
        <ele>4</ele>
        <time>2014-06-28T18:24:00.127Z</time>
      </trkpt>
      <trkpt lat="45.88154" lon="-0.81354">
        <ele>4</ele>
        <time>2014-06-28T18:24:01.072Z</time>
      </trkpt>
      <trkpt lat="45.88148" lon="-0.81362">
        <ele>4</ele>
        <time>2014-06-28T18:24:13.078Z</time>
      </trkpt>
      <trkpt lat="45.88148" lon="-0.81363">
        <ele>4</ele>
        <time>2014-06-28T18:24:14.059Z</time>
      </trkpt>
      <trkpt lat="45.88141" lon="-0.81371">
        <ele>4</ele>
        <time>2014-06-28T18:24:24.153Z</time>
      </trkpt>
      <trkpt lat="45.8814" lon="-0.81372">
        <ele>4</ele>
        <time>2014-06-28T18:24:25.081Z</time>
      </trkpt>
      <trkpt lat="45.88135" lon="-0.81377">
        <ele>4</ele>
        <time>2014-06-28T18:24:35.139Z</time>
      </trkpt>
      <trkpt lat="45.88133" lon="-0.8138">
        <ele>4</ele>
        <time>2014-06-28T18:24:36.080Z</time>
      </trkpt>
      <trkpt lat="45.88127" lon="-0.81386">
        <ele>4</ele>
        <time>2014-06-28T18:24:48.129Z</time>
      </trkpt>
      <trkpt lat="45.88125" lon="-0.81387">
        <ele>4</ele>
        <time>2014-06-28T18:24:49.077Z</time>
      </trkpt>
      <trkpt lat="45.88117" lon="-0.81392">
        <ele>4</ele>
        <time>2014-06-28T18:24:56.094Z</time>
      </trkpt>
      <trkpt lat="45.88117" lon="-0.81393">
        <ele>4</ele>
        <time>2014-06-28T18:24:57.078Z</time>
      </trkpt>
      <trkpt lat="45.8811" lon="-0.81402">
        <ele>4</ele>
        <time>2014-06-28T18:25:02.982Z</time>
      </trkpt>
      <trkpt lat="45.8811" lon="-0.81402">
        <ele>4</ele>
        <time>2014-06-28T18:25:03.070Z</time>
      </trkpt>
      <trkpt lat="45.88103" lon="-0.81406">
        <ele>4</ele>
        <time>2014-06-28T18:25:15.083Z</time>
      </trkpt>
      <trkpt lat="45.881" lon="-0.8141">
        <ele>4</ele>
        <time>2014-06-28T18:25:16.079Z</time>
      </trkpt>
      <trkpt lat="45.88095" lon="-0.81416">
        <ele>4</ele>
        <time>2014-06-28T18:25:20.083Z</time>
      </trkpt>
      <trkpt lat="45.88093" lon="-0.8142">
        <ele>3</ele>
        <time>2014-06-28T18:25:21.070Z</time>
      </trkpt>
      <trkpt lat="45.88088" lon="-0.81426">
        <ele>3</ele>
        <time>2014-06-28T18:25:30.113Z</time>
      </trkpt>
      <trkpt lat="45.88086" lon="-0.81429">
        <ele>3</ele>
        <time>2014-06-28T18:25:31.072Z</time>
      </trkpt>
      <trkpt lat="45.88081" lon="-0.81436">
        <ele>3</ele>
        <time>2014-06-28T18:25:37.092Z</time>
      </trkpt>
      <trkpt lat="45.88079" lon="-0.81438">
        <ele>3</ele>
        <time>2014-06-28T18:25:38.074Z</time>
      </trkpt>
      <trkpt lat="45.88072" lon="-0.81446">
        <ele>3</ele>
        <time>2014-06-28T18:25:45.092Z</time>
      </trkpt>
      <trkpt lat="45.88072" lon="-0.81446">
        <ele>3</ele>
        <time>2014-06-28T18:25:46.073Z</time>
      </trkpt>
      <trkpt lat="45.88067" lon="-0.81455">
        <ele>3</ele>
        <time>2014-06-28T18:25:53.100Z</time>
      </trkpt>
      <trkpt lat="45.88066" lon="-0.81457">
        <ele>3</ele>
        <time>2014-06-28T18:25:54.072Z</time>
      </trkpt>
      <trkpt lat="45.88061" lon="-0.81467">
        <ele>3</ele>
        <time>2014-06-28T18:26:02.864Z</time>
      </trkpt>
      <trkpt lat="45.88061" lon="-0.81469">
        <ele>3</ele>
        <time>2014-06-28T18:26:03.069Z</time>
      </trkpt>
      <trkpt lat="45.88057" lon="-0.8148">
        <ele>3</ele>
        <time>2014-06-28T18:26:14.149Z</time>
      </trkpt>
      <trkpt lat="45.88056" lon="-0.81482">
        <ele>3</ele>
        <time>2014-06-28T18:26:15.074Z</time>
      </trkpt>
      <trkpt lat="45.88053" lon="-0.81493">
        <ele>3</ele>
        <time>2014-06-28T18:26:21.112Z</time>
      </trkpt>
      <trkpt lat="45.88052" lon="-0.81494">
        <ele>3</ele>
        <time>2014-06-28T18:26:22.074Z</time>
      </trkpt>
      <trkpt lat="45.88048" lon="-0.81505">
        <ele>4</ele>
        <time>2014-06-28T18:26:33.022Z</time>
      </trkpt>
      <trkpt lat="45.88047" lon="-0.81506">
        <ele>4</ele>
        <time>2014-06-28T18:26:33.078Z</time>
      </trkpt>
      <trkpt lat="45.88043" lon="-0.81515">
        <ele>4</ele>
        <time>2014-06-28T18:26:38.056Z</time>
      </trkpt>
      <trkpt lat="45.88042" lon="-0.81517">
        <ele>4</ele>
        <time>2014-06-28T18:26:38.105Z</time>
      </trkpt>
      <trkpt lat="45.88039" lon="-0.81526">
        <ele>4</ele>
        <time>2014-06-28T18:26:45.112Z</time>
      </trkpt>
      <trkpt lat="45.88038" lon="-0.81529">
        <ele>4</ele>
        <time>2014-06-28T18:26:46.073Z</time>
      </trkpt>
      <trkpt lat="45.88037" lon="-0.81539">
        <ele>4</ele>
        <time>2014-06-28T18:26:53.121Z</time>
      </trkpt>
      <trkpt lat="45.88037" lon="-0.81542">
        <ele>4</ele>
        <time>2014-06-28T18:26:54.076Z</time>
      </trkpt>
      <trkpt lat="45.88034" lon="-0.81552">
        <ele>4</ele>
        <time>2014-06-28T18:26:57.835Z</time>
      </trkpt>
      <trkpt lat="45.88035" lon="-0.81554">
        <ele>4</ele>
        <time>2014-06-28T18:26:58.076Z</time>
      </trkpt>
      <trkpt lat="45.88036" lon="-0.81566">
        <ele>4</ele>
        <time>2014-06-28T18:27:03.088Z</time>
      </trkpt>
      <trkpt lat="45.88036" lon="-0.81567">
        <ele>4</ele>
        <time>2014-06-28T18:27:04.080Z</time>
      </trkpt>
      <trkpt lat="45.88041" lon="-0.81578">
        <ele>4</ele>
        <time>2014-06-28T18:27:11.111Z</time>
      </trkpt>
      <trkpt lat="45.88042" lon="-0.8158">
        <ele>4</ele>
        <time>2014-06-28T18:27:12.078Z</time>
      </trkpt>
      <trkpt lat="45.88045" lon="-0.81591">
        <ele>5</ele>
        <time>2014-06-28T18:27:20.150Z</time>
      </trkpt>
      <trkpt lat="45.88045" lon="-0.81593">
        <ele>5</ele>
        <time>2014-06-28T18:27:21.071Z</time>
      </trkpt>
      <trkpt lat="45.88048" lon="-0.81605">
        <ele>5</ele>
        <time>2014-06-28T18:27:28.148Z</time>
      </trkpt>
      <trkpt lat="45.88049" lon="-0.81607">
        <ele>5</ele>
        <time>2014-06-28T18:27:29.073Z</time>
      </trkpt>
      <trkpt lat="45.88052" lon="-0.81616">
        <ele>5</ele>
        <time>2014-06-28T18:27:35.090Z</time>
      </trkpt>
      <trkpt lat="45.88053" lon="-0.81618">
        <ele>5</ele>
        <time>2014-06-28T18:27:36.079Z</time>
      </trkpt>
      <trkpt lat="45.88057" lon="-0.81629">
        <ele>5</ele>
        <time>2014-06-28T18:27:43.395Z</time>
      </trkpt>
      <trkpt lat="45.88057" lon="-0.81631">
        <ele>5</ele>
        <time>2014-06-28T18:27:44.072Z</time>
      </trkpt>
      <trkpt lat="45.8806" lon="-0.81642">
        <ele>6</ele>
        <time>2014-06-28T18:27:51.102Z</time>
      </trkpt>
      <trkpt lat="45.88061" lon="-0.81643">
        <ele>6</ele>
        <time>2014-06-28T18:27:52.069Z</time>
      </trkpt>
      <trkpt lat="45.88063" lon="-0.81654">
        <ele>6</ele>
        <time>2014-06-28T18:27:59.090Z</time>
      </trkpt>
      <trkpt lat="45.88064" lon="-0.81656">
        <ele>6</ele>
        <time>2014-06-28T18:28:00.086Z</time>
      </trkpt>
      <trkpt lat="45.88068" lon="-0.81666">
        <ele>6</ele>
        <time>2014-06-28T18:28:07.931Z</time>
      </trkpt>
      <trkpt lat="45.88069" lon="-0.81667">
        <ele>6</ele>
        <time>2014-06-28T18:28:08.035Z</time>
      </trkpt>
      <trkpt lat="45.88072" lon="-0.81678">
        <ele>6</ele>
        <time>2014-06-28T18:28:16.105Z</time>
      </trkpt>
      <trkpt lat="45.88073" lon="-0.81679">
        <ele>6</ele>
        <time>2014-06-28T18:28:17.079Z</time>
      </trkpt>
      <trkpt lat="45.88079" lon="-0.81687">
        <ele>6</ele>
        <time>2014-06-28T18:28:25.098Z</time>
      </trkpt>
      <trkpt lat="45.8808" lon="-0.81688">
        <ele>6</ele>
        <time>2014-06-28T18:28:26.070Z</time>
      </trkpt>
      <trkpt lat="45.88088" lon="-0.81694">
        <ele>8</ele>
        <time>2014-06-28T18:28:36.129Z</time>
      </trkpt>
      <trkpt lat="45.88088" lon="-0.81694">
        <ele>8</ele>
        <time>2014-06-28T18:28:37.089Z</time>
      </trkpt>
      <trkpt lat="45.88096" lon="-0.81697">
        <ele>8</ele>
        <time>2014-06-28T18:28:45.091Z</time>
      </trkpt>
      <trkpt lat="45.88097" lon="-0.81698">
        <ele>8</ele>
        <time>2014-06-28T18:28:46.078Z</time>
      </trkpt>
      <trkpt lat="45.88105" lon="-0.81702">
        <ele>8</ele>
        <time>2014-06-28T18:28:55.091Z</time>
      </trkpt>
      <trkpt lat="45.88106" lon="-0.81702">
        <ele>8</ele>
        <time>2014-06-28T18:28:56.075Z</time>
      </trkpt>
      <trkpt lat="45.88114" lon="-0.81702">
        <ele>8</ele>
        <time>2014-06-28T18:29:02.876Z</time>
      </trkpt>
      <trkpt lat="45.88115" lon="-0.81702">
        <ele>8</ele>
        <time>2014-06-28T18:29:03.068Z</time>
      </trkpt>
      <trkpt lat="45.88124" lon="-0.81702">
        <ele>8</ele>
        <time>2014-06-28T18:29:07.925Z</time>
      </trkpt>
      <trkpt lat="45.88126" lon="-0.81701">
        <ele>8</ele>
        <time>2014-06-28T18:29:08.090Z</time>
      </trkpt>
      <trkpt lat="45.88131" lon="-0.8171">
        <ele>9</ele>
        <time>2014-06-28T18:29:17.957Z</time>
      </trkpt>
      <trkpt lat="45.88132" lon="-0.81711">
        <ele>9</ele>
        <time>2014-06-28T18:29:18.039Z</time>
      </trkpt>
      <trkpt lat="45.88138" lon="-0.8172">
        <ele>9</ele>
        <time>2014-06-28T18:29:26.089Z</time>
      </trkpt>
      <trkpt lat="45.8814" lon="-0.81721">
        <ele>9</ele>
        <time>2014-06-28T18:29:27.078Z</time>
      </trkpt>
      <trkpt lat="45.88145" lon="-0.8173">
        <ele>9</ele>
        <time>2014-06-28T18:29:34.041Z</time>
      </trkpt>
      <trkpt lat="45.88146" lon="-0.81732">
        <ele>9</ele>
        <time>2014-06-28T18:29:35.091Z</time>
      </trkpt>
      <trkpt lat="45.88149" lon="-0.81744">
        <ele>9</ele>
        <time>2014-06-28T18:29:44.094Z</time>
      </trkpt>
      <trkpt lat="45.88149" lon="-0.81745">
        <ele>9</ele>
        <time>2014-06-28T18:29:45.081Z</time>
      </trkpt>
      <trkpt lat="45.88154" lon="-0.81754">
        <ele>9</ele>
        <time>2014-06-28T18:29:52.806Z</time>
      </trkpt>
      <trkpt lat="45.88155" lon="-0.81756">
        <ele>9</ele>
        <time>2014-06-28T18:29:53.066Z</time>
      </trkpt>
      <trkpt lat="45.8816" lon="-0.81765">
        <ele>9</ele>
        <time>2014-06-28T18:29:59.094Z</time>
      </trkpt>
      <trkpt lat="45.88161" lon="-0.81767">
        <ele>9</ele>
        <time>2014-06-28T18:30:00.090Z</time>
      </trkpt>
      <trkpt lat="45.88161" lon="-0.81779">
        <ele>9</ele>
        <time>2014-06-28T18:30:10.116Z</time>
      </trkpt>
      <trkpt lat="45.88162" lon="-0.81781">
        <ele>9</ele>
        <time>2014-06-28T18:30:11.075Z</time>
      </trkpt>
      <trkpt lat="45.8817" lon="-0.81779">
        <ele>11</ele>
        <time>2014-06-28T18:31:38.102Z</time>
      </trkpt>
      <trkpt lat="45.88172" lon="-0.81779">
        <ele>11</ele>
        <time>2014-06-28T18:31:38.160Z</time>
      </trkpt>
      <trkpt lat="45.88178" lon="-0.8177">
        <ele>11</ele>
        <time>2014-06-28T18:33:16.105Z</time>
      </trkpt>
      <trkpt lat="45.88179" lon="-0.8177">
        <ele>11</ele>
        <time>2014-06-28T18:33:17.080Z</time>
      </trkpt>
      <trkpt lat="45.88171" lon="-0.81775">
        <ele>11</ele>
        <time>2014-06-28T18:34:13.133Z</time>
      </trkpt>
      <trkpt lat="45.88171" lon="-0.81775">
        <ele>11</ele>
        <time>2014-06-28T18:34:14.080Z</time>
      </trkpt>
      <trkpt lat="45.88172" lon="-0.81763">
        <ele>11</ele>
        <time>2014-06-28T19:07:08.107Z</time>
      </trkpt>
      <trkpt lat="45.88172" lon="-0.81758">
        <ele>11</ele>
        <time>2014-06-28T19:07:09.115Z</time>
      </trkpt>
      <trkpt lat="45.88164" lon="-0.81753">
        <ele>10</ele>
        <time>2014-06-28T19:07:23.152Z</time>
      </trkpt>
      <trkpt lat="45.88163" lon="-0.81752">
        <ele>10</ele>
        <time>2014-06-28T19:07:23.194Z</time>
      </trkpt>
      <trkpt lat="45.88159" lon="-0.81742">
        <ele>9</ele>
        <time>2014-06-28T19:09:53.170Z</time>
      </trkpt>
      <trkpt lat="45.88159" lon="-0.81741">
        <ele>9</ele>
        <time>2014-06-28T19:09:54.133Z</time>
      </trkpt>
      <trkpt lat="45.88152" lon="-0.81733">
        <ele>9</ele>
        <time>2014-06-28T19:10:05.182Z</time>
      </trkpt>
      <trkpt lat="45.88151" lon="-0.81732">
        <ele>9</ele>
        <time>2014-06-28T19:10:06.143Z</time>
      </trkpt>
      <trkpt lat="45.88143" lon="-0.81725">
        <ele>9</ele>
        <time>2014-06-28T19:10:13.141Z</time>
      </trkpt>
      <trkpt lat="45.88143" lon="-0.81725">
        <ele>9</ele>
        <time>2014-06-28T19:10:14.127Z</time>
      </trkpt>
      <trkpt lat="45.88136" lon="-0.81716">
        <ele>9</ele>
        <time>2014-06-28T19:10:22.151Z</time>
      </trkpt>
      <trkpt lat="45.88135" lon="-0.81715">
        <ele>9</ele>
        <time>2014-06-28T19:10:23.130Z</time>
      </trkpt>
      <trkpt lat="45.8813" lon="-0.81706">
        <ele>9</ele>
        <time>2014-06-28T19:10:32.774Z</time>
      </trkpt>
      <trkpt lat="45.88129" lon="-0.81705">
        <ele>9</ele>
        <time>2014-06-28T19:10:33.115Z</time>
      </trkpt>
      <trkpt lat="45.88122" lon="-0.817">
        <ele>8</ele>
        <time>2014-06-28T19:10:41.136Z</time>
      </trkpt>
      <trkpt lat="45.88121" lon="-0.817">
        <ele>8</ele>
        <time>2014-06-28T19:10:42.130Z</time>
      </trkpt>
      <trkpt lat="45.88113" lon="-0.817">
        <ele>8</ele>
        <time>2014-06-28T19:10:49.140Z</time>
      </trkpt>
      <trkpt lat="45.88112" lon="-0.81699">
        <ele>8</ele>
        <time>2014-06-28T19:10:50.121Z</time>
      </trkpt>
      <trkpt lat="45.88103" lon="-0.81699">
        <ele>8</ele>
        <time>2014-06-28T19:10:57.884Z</time>
      </trkpt>
      <trkpt lat="45.88101" lon="-0.81699">
        <ele>8</ele>
        <time>2014-06-28T19:10:58.130Z</time>
      </trkpt>
      <trkpt lat="45.88093" lon="-0.81698">
        <ele>8</ele>
        <time>2014-06-28T19:11:08.166Z</time>
      </trkpt>
      <trkpt lat="45.88092" lon="-0.81697">
        <ele>8</ele>
        <time>2014-06-28T19:11:09.124Z</time>
      </trkpt>
      <trkpt lat="45.88085" lon="-0.8169">
        <ele>8</ele>
        <time>2014-06-28T19:11:20.145Z</time>
      </trkpt>
      <trkpt lat="45.88085" lon="-0.8169">
        <ele>8</ele>
        <time>2014-06-28T19:11:21.130Z</time>
      </trkpt>
      <trkpt lat="45.88077" lon="-0.81684">
        <ele>6</ele>
        <time>2014-06-28T19:11:32.203Z</time>
      </trkpt>
      <trkpt lat="45.88076" lon="-0.81683">
        <ele>6</ele>
        <time>2014-06-28T19:11:33.179Z</time>
      </trkpt>
      <trkpt lat="45.88071" lon="-0.81673">
        <ele>6</ele>
        <time>2014-06-28T19:11:41.142Z</time>
      </trkpt>
      <trkpt lat="45.88071" lon="-0.81672">
        <ele>6</ele>
        <time>2014-06-28T19:11:42.139Z</time>
      </trkpt>
      <trkpt lat="45.88067" lon="-0.81661">
        <ele>6</ele>
        <time>2014-06-28T19:11:51.170Z</time>
      </trkpt>
      <trkpt lat="45.88067" lon="-0.81659">
        <ele>6</ele>
        <time>2014-06-28T19:11:52.135Z</time>
      </trkpt>
      <trkpt lat="45.88064" lon="-0.81648">
        <ele>6</ele>
        <time>2014-06-28T19:12:02.933Z</time>
      </trkpt>
      <trkpt lat="45.88064" lon="-0.81646">
        <ele>6</ele>
        <time>2014-06-28T19:12:03.129Z</time>
      </trkpt>
      <trkpt lat="45.88059" lon="-0.81636">
        <ele>6</ele>
        <time>2014-06-28T19:12:14.161Z</time>
      </trkpt>
      <trkpt lat="45.88059" lon="-0.81634">
        <ele>5</ele>
        <time>2014-06-28T19:12:15.128Z</time>
      </trkpt>
      <trkpt lat="45.88055" lon="-0.81623">
        <ele>5</ele>
        <time>2014-06-28T19:12:24.135Z</time>
      </trkpt>
      <trkpt lat="45.88055" lon="-0.81621">
        <ele>5</ele>
        <time>2014-06-28T19:12:25.128Z</time>
      </trkpt>
      <trkpt lat="45.88051" lon="-0.8161">
        <ele>5</ele>
        <time>2014-06-28T19:12:33.119Z</time>
      </trkpt>
      <trkpt lat="45.88051" lon="-0.81609">
        <ele>5</ele>
        <time>2014-06-28T19:12:34.125Z</time>
      </trkpt>
      <trkpt lat="45.88046" lon="-0.81598">
        <ele>5</ele>
        <time>2014-06-28T19:12:44.143Z</time>
      </trkpt>
      <trkpt lat="45.88045" lon="-0.81597">
        <ele>5</ele>
        <time>2014-06-28T19:12:45.129Z</time>
      </trkpt>
      <trkpt lat="45.8804" lon="-0.81587">
        <ele>5</ele>
        <time>2014-06-28T19:12:53.213Z</time>
      </trkpt>
      <trkpt lat="45.88039" lon="-0.81586">
        <ele>5</ele>
        <time>2014-06-28T19:12:54.129Z</time>
      </trkpt>
      <trkpt lat="45.88035" lon="-0.81576">
        <ele>4</ele>
        <time>2014-06-28T19:14:28.230Z</time>
      </trkpt>
      <trkpt lat="45.88033" lon="-0.81573">
        <ele>4</ele>
        <time>2014-06-28T19:14:29.149Z</time>
      </trkpt>
      <trkpt lat="45.88031" lon="-0.81561">
        <ele>4</ele>
        <time>2014-06-28T19:14:36.143Z</time>
      </trkpt>
      <trkpt lat="45.88031" lon="-0.8156">
        <ele>4</ele>
        <time>2014-06-28T19:14:37.139Z</time>
      </trkpt>
      <trkpt lat="45.88029" lon="-0.81548">
        <ele>4</ele>
        <time>2014-06-28T19:14:46.178Z</time>
      </trkpt>
      <trkpt lat="45.8803" lon="-0.81546">
        <ele>4</ele>
        <time>2014-06-28T19:14:47.137Z</time>
      </trkpt>
      <trkpt lat="45.88033" lon="-0.81535">
        <ele>4</ele>
        <time>2014-06-28T19:14:56.142Z</time>
      </trkpt>
      <trkpt lat="45.88035" lon="-0.81533">
        <ele>4</ele>
        <time>2014-06-28T19:14:57.130Z</time>
      </trkpt>
      <trkpt lat="45.88039" lon="-0.81523">
        <ele>4</ele>
        <time>2014-06-28T19:15:06.144Z</time>
      </trkpt>
      <trkpt lat="45.8804" lon="-0.81522">
        <ele>4</ele>
        <time>2014-06-28T19:15:07.138Z</time>
      </trkpt>
      <trkpt lat="45.88042" lon="-0.81512">
        <ele>4</ele>
        <time>2014-06-28T19:15:12.997Z</time>
      </trkpt>
      <trkpt lat="45.88045" lon="-0.81509">
        <ele>4</ele>
        <time>2014-06-28T19:15:13.116Z</time>
      </trkpt>
      <trkpt lat="45.88051" lon="-0.815">
        <ele>3</ele>
        <time>2014-06-28T19:15:21.151Z</time>
      </trkpt>
      <trkpt lat="45.8805" lon="-0.81498">
        <ele>3</ele>
        <time>2014-06-28T19:15:22.134Z</time>
      </trkpt>
      <trkpt lat="45.88054" lon="-0.81487">
        <ele>3</ele>
        <time>2014-06-28T19:15:30.144Z</time>
      </trkpt>
      <trkpt lat="45.88054" lon="-0.81486">
        <ele>3</ele>
        <time>2014-06-28T19:15:31.134Z</time>
      </trkpt>
      <trkpt lat="45.88058" lon="-0.81474">
        <ele>3</ele>
        <time>2014-06-28T19:15:41.149Z</time>
      </trkpt>
      <trkpt lat="45.88058" lon="-0.81473">
        <ele>3</ele>
        <time>2014-06-28T19:15:42.092Z</time>
      </trkpt>
      <trkpt lat="45.88063" lon="-0.81465">
        <ele>3</ele>
        <time>2014-06-28T19:15:51.182Z</time>
      </trkpt>
      <trkpt lat="45.88064" lon="-0.81463">
        <ele>3</ele>
        <time>2014-06-28T19:15:52.137Z</time>
      </trkpt>
      <trkpt lat="45.88071" lon="-0.81459">
        <ele>3</ele>
        <time>2014-06-28T19:15:55.164Z</time>
      </trkpt>
      <trkpt lat="45.88072" lon="-0.81457">
        <ele>3</ele>
        <time>2014-06-28T19:15:56.128Z</time>
      </trkpt>
      <trkpt lat="45.88078" lon="-0.81449">
        <ele>3</ele>
        <time>2014-06-28T19:16:02.930Z</time>
      </trkpt>
      <trkpt lat="45.88079" lon="-0.81448">
        <ele>3</ele>
        <time>2014-06-28T19:16:03.131Z</time>
      </trkpt>
      <trkpt lat="45.88087" lon="-0.81442">
        <ele>3</ele>
        <time>2014-06-28T19:16:07.953Z</time>
      </trkpt>
      <trkpt lat="45.88087" lon="-0.81441">
        <ele>3</ele>
        <time>2014-06-28T19:16:08.131Z</time>
      </trkpt>
      <trkpt lat="45.88093" lon="-0.81432">
        <ele>3</ele>
        <time>2014-06-28T19:16:19.145Z</time>
      </trkpt>
      <trkpt lat="45.88093" lon="-0.81432">
        <ele>3</ele>
        <time>2014-06-28T19:16:20.141Z</time>
      </trkpt>
      <trkpt lat="45.88099" lon="-0.81423">
        <ele>3</ele>
        <time>2014-06-28T19:16:28.132Z</time>
      </trkpt>
      <trkpt lat="45.88099" lon="-0.81422">
        <ele>3</ele>
        <time>2014-06-28T19:16:29.129Z</time>
      </trkpt>
      <trkpt lat="45.88105" lon="-0.81414">
        <ele>4</ele>
        <time>2014-06-28T19:16:35.157Z</time>
      </trkpt>
      <trkpt lat="45.88107" lon="-0.81413">
        <ele>4</ele>
        <time>2014-06-28T19:16:36.159Z</time>
      </trkpt>
      <trkpt lat="45.88113" lon="-0.81404">
        <ele>4</ele>
        <time>2014-06-28T19:16:45.188Z</time>
      </trkpt>
      <trkpt lat="45.88114" lon="-0.81404">
        <ele>4</ele>
        <time>2014-06-28T19:16:46.132Z</time>
      </trkpt>
      <trkpt lat="45.88121" lon="-0.81397">
        <ele>4</ele>
        <time>2014-06-28T19:16:54.168Z</time>
      </trkpt>
      <trkpt lat="45.88122" lon="-0.81396">
        <ele>4</ele>
        <time>2014-06-28T19:16:55.140Z</time>
      </trkpt>
      <trkpt lat="45.88128" lon="-0.81387">
        <ele>4</ele>
        <time>2014-06-28T19:17:06.143Z</time>
      </trkpt>
      <trkpt lat="45.88129" lon="-0.81386">
        <ele>4</ele>
        <time>2014-06-28T19:17:07.130Z</time>
      </trkpt>
      <trkpt lat="45.88134" lon="-0.81377">
        <ele>4</ele>
        <time>2014-06-28T19:17:16.155Z</time>
      </trkpt>
      <trkpt lat="45.88135" lon="-0.81375">
        <ele>4</ele>
        <time>2014-06-28T19:17:17.130Z</time>
      </trkpt>
      <trkpt lat="45.88142" lon="-0.81369">
        <ele>4</ele>
        <time>2014-06-28T19:17:23.132Z</time>
      </trkpt>
      <trkpt lat="45.88143" lon="-0.81367">
        <ele>4</ele>
        <time>2014-06-28T19:17:23.228Z</time>
      </trkpt>
      <trkpt lat="45.8815" lon="-0.8136">
        <ele>4</ele>
        <time>2014-06-28T19:17:31.172Z</time>
      </trkpt>
      <trkpt lat="45.88151" lon="-0.8136">
        <ele>4</ele>
        <time>2014-06-28T19:17:32.130Z</time>
      </trkpt>
      <trkpt lat="45.88159" lon="-0.81359">
        <ele>4</ele>
        <time>2014-06-28T19:17:40.163Z</time>
      </trkpt>
      <trkpt lat="45.88162" lon="-0.81358">
        <ele>4</ele>
        <time>2014-06-28T19:17:41.159Z</time>
      </trkpt>
      <trkpt lat="45.8817" lon="-0.81361">
        <ele>4</ele>
        <time>2014-06-28T19:17:50.153Z</time>
      </trkpt>
      <trkpt lat="45.88171" lon="-0.81362">
        <ele>4</ele>
        <time>2014-06-28T19:17:51.129Z</time>
      </trkpt>
      <trkpt lat="45.88177" lon="-0.81372">
        <ele>4</ele>
        <time>2014-06-28T19:17:59.167Z</time>
      </trkpt>
      <trkpt lat="45.88178" lon="-0.81374">
        <ele>4</ele>
        <time>2014-06-28T19:18:00.161Z</time>
      </trkpt>
      <trkpt lat="45.88185" lon="-0.81382">
        <ele>4</ele>
        <time>2014-06-28T19:18:10.159Z</time>
      </trkpt>
      <trkpt lat="45.88185" lon="-0.81382">
        <ele>4</ele>
        <time>2014-06-28T19:18:11.131Z</time>
      </trkpt>
      <trkpt lat="45.88191" lon="-0.81391">
        <ele>4</ele>
        <time>2014-06-28T19:18:19.144Z</time>
      </trkpt>
      <trkpt lat="45.88192" lon="-0.81392">
        <ele>4</ele>
        <time>2014-06-28T19:18:20.133Z</time>
      </trkpt>
      <trkpt lat="45.88198" lon="-0.81401">
        <ele>4</ele>
        <time>2014-06-28T19:18:28.081Z</time>
      </trkpt>
      <trkpt lat="45.88199" lon="-0.81402">
        <ele>4</ele>
        <time>2014-06-28T19:18:28.147Z</time>
      </trkpt>
      <trkpt lat="45.88205" lon="-0.81409">
        <ele>5</ele>
        <time>2014-06-28T19:18:38.143Z</time>
      </trkpt>
      <trkpt lat="45.88206" lon="-0.8141">
        <ele>5</ele>
        <time>2014-06-28T19:18:38.311Z</time>
      </trkpt>
      <trkpt lat="45.88211" lon="-0.81418">
        <ele>5</ele>
        <time>2014-06-28T19:18:48.176Z</time>
      </trkpt>
      <trkpt lat="45.88212" lon="-0.81419">
        <ele>5</ele>
        <time>2014-06-28T19:18:48.211Z</time>
      </trkpt>
      <trkpt lat="45.88219" lon="-0.81428">
        <ele>6</ele>
        <time>2014-06-28T19:18:56.155Z</time>
      </trkpt>
      <trkpt lat="45.88219" lon="-0.81429">
        <ele>6</ele>
        <time>2014-06-28T19:18:57.138Z</time>
      </trkpt>
      <trkpt lat="45.88226" lon="-0.81437">
        <ele>6</ele>
        <time>2014-06-28T19:19:13.098Z</time>
      </trkpt>
      <trkpt lat="45.88227" lon="-0.81439">
        <ele>6</ele>
        <time>2014-06-28T19:19:13.162Z</time>
      </trkpt>
      <trkpt lat="45.88233" lon="-0.81445">
        <ele>6</ele>
        <time>2014-06-28T19:19:24.152Z</time>
      </trkpt>
      <trkpt lat="45.88234" lon="-0.81447">
        <ele>6</ele>
        <time>2014-06-28T19:19:25.139Z</time>
      </trkpt>
      <trkpt lat="45.8824" lon="-0.81454">
        <ele>6</ele>
        <time>2014-06-28T19:19:31.162Z</time>
      </trkpt>
      <trkpt lat="45.88241" lon="-0.81456">
        <ele>6</ele>
        <time>2014-06-28T19:19:32.147Z</time>
      </trkpt>
      <trkpt lat="45.88248" lon="-0.81463">
        <ele>6</ele>
        <time>2014-06-28T19:19:39.188Z</time>
      </trkpt>
      <trkpt lat="45.88249" lon="-0.81464">
        <ele>6</ele>
        <time>2014-06-28T19:19:40.204Z</time>
      </trkpt>
      <trkpt lat="45.88254" lon="-0.81472">
        <ele>7</ele>
        <time>2014-06-28T19:19:45.159Z</time>
      </trkpt>
      <trkpt lat="45.88255" lon="-0.81474">
        <ele>7</ele>
        <time>2014-06-28T19:19:46.139Z</time>
      </trkpt>
      <trkpt lat="45.88263" lon="-0.81479">
        <ele>7</ele>
        <time>2014-06-28T19:19:54.148Z</time>
      </trkpt>
      <trkpt lat="45.88264" lon="-0.81479">
        <ele>7</ele>
        <time>2014-06-28T19:19:55.122Z</time>
      </trkpt>
      <trkpt lat="45.88271" lon="-0.81483">
        <ele>7</ele>
        <time>2014-06-28T19:20:01.158Z</time>
      </trkpt>
      <trkpt lat="45.88272" lon="-0.81485">
        <ele>7</ele>
        <time>2014-06-28T19:20:02.130Z</time>
      </trkpt>
      <trkpt lat="45.8828" lon="-0.81488">
        <ele>7</ele>
        <time>2014-06-28T19:20:12.963Z</time>
      </trkpt>
      <trkpt lat="45.88281" lon="-0.81488">
        <ele>7</ele>
        <time>2014-06-28T19:20:13.140Z</time>
      </trkpt>
      <trkpt lat="45.88289" lon="-0.81482">
        <ele>7</ele>
        <time>2014-06-28T19:20:21.185Z</time>
      </trkpt>
      <trkpt lat="45.8829" lon="-0.81481">
        <ele>7</ele>
        <time>2014-06-28T19:20:22.152Z</time>
      </trkpt>
      <trkpt lat="45.88296" lon="-0.81473">
        <ele>6</ele>
        <time>2014-06-28T19:20:30.148Z</time>
      </trkpt>
      <trkpt lat="45.88297" lon="-0.81472">
        <ele>6</ele>
        <time>2014-06-28T19:20:31.135Z</time>
      </trkpt>
      <trkpt lat="45.88304" lon="-0.81465">
        <ele>6</ele>
        <time>2014-06-28T19:20:41.150Z</time>
      </trkpt>
      <trkpt lat="45.88306" lon="-0.81463">
        <ele>6</ele>
        <time>2014-06-28T19:20:42.132Z</time>
      </trkpt>
      <trkpt lat="45.88315" lon="-0.81463">
        <ele>6</ele>
        <time>2014-06-28T19:20:52.846Z</time>
      </trkpt>
      <trkpt lat="45.88316" lon="-0.81466">
        <ele>6</ele>
        <time>2014-06-28T19:20:53.139Z</time>
      </trkpt>
      <trkpt lat="45.88322" lon="-0.81474">
        <ele>6</ele>
        <time>2014-06-28T19:21:00.184Z</time>
      </trkpt>
      <trkpt lat="45.88322" lon="-0.81475">
        <ele>6</ele>
        <time>2014-06-28T19:21:01.135Z</time>
      </trkpt>
      <trkpt lat="45.88326" lon="-0.81487">
        <ele>7</ele>
        <time>2014-06-28T19:21:16.151Z</time>
      </trkpt>
      <trkpt lat="45.88326" lon="-0.81487">
        <ele>7</ele>
        <time>2014-06-28T19:21:17.120Z</time>
      </trkpt>
      <trkpt lat="45.8833" lon="-0.81497">
        <ele>7</ele>
        <time>2014-06-28T19:21:28.128Z</time>
      </trkpt>
      <trkpt lat="45.88331" lon="-0.815">
        <ele>7</ele>
        <time>2014-06-28T19:21:29.128Z</time>
      </trkpt>
      <trkpt lat="45.88335" lon="-0.8151">
        <ele>8</ele>
        <time>2014-06-28T19:21:36.151Z</time>
      </trkpt>
      <trkpt lat="45.88336" lon="-0.81511">
        <ele>8</ele>
        <time>2014-06-28T19:21:37.139Z</time>
      </trkpt>
      <trkpt lat="45.8834" lon="-0.81522">
        <ele>9</ele>
        <time>2014-06-28T19:21:45.216Z</time>
      </trkpt>
      <trkpt lat="45.88341" lon="-0.81524">
        <ele>9</ele>
        <time>2014-06-28T19:21:46.143Z</time>
      </trkpt>
      <trkpt lat="45.88345" lon="-0.81534">
        <ele>9</ele>
        <time>2014-06-28T19:21:52.846Z</time>
      </trkpt>
      <trkpt lat="45.88347" lon="-0.81536">
        <ele>9</ele>
        <time>2014-06-28T19:21:53.139Z</time>
      </trkpt>
      <trkpt lat="45.88351" lon="-0.81545">
        <ele>9</ele>
        <time>2014-06-28T19:21:58.130Z</time>
      </trkpt>
      <trkpt lat="45.88352" lon="-0.81547">
        <ele>10</ele>
        <time>2014-06-28T19:21:59.147Z</time>
      </trkpt>
      <trkpt lat="45.88354" lon="-0.81558">
        <ele>10</ele>
        <time>2014-06-28T19:22:05.149Z</time>
      </trkpt>
      <trkpt lat="45.88355" lon="-0.81559">
        <ele>10</ele>
        <time>2014-06-28T19:22:06.139Z</time>
      </trkpt>
      <trkpt lat="45.88361" lon="-0.81568">
        <ele>10</ele>
        <time>2014-06-28T19:22:14.177Z</time>
      </trkpt>
      <trkpt lat="45.88361" lon="-0.81569">
        <ele>10</ele>
        <time>2014-06-28T19:22:15.141Z</time>
      </trkpt>
      <trkpt lat="45.88366" lon="-0.81579">
        <ele>10</ele>
        <time>2014-06-28T19:22:25.158Z</time>
      </trkpt>
      <trkpt lat="45.88366" lon="-0.8158">
        <ele>10</ele>
        <time>2014-06-28T19:22:26.102Z</time>
      </trkpt>
      <trkpt lat="45.88367" lon="-0.81592">
        <ele>13</ele>
        <time>2014-06-28T19:22:34.160Z</time>
      </trkpt>
      <trkpt lat="45.88368" lon="-0.81593">
        <ele>13</ele>
        <time>2014-06-28T19:22:35.199Z</time>
      </trkpt>
      <trkpt lat="45.88373" lon="-0.81603">
        <ele>14</ele>
        <time>2014-06-28T19:22:45.191Z</time>
      </trkpt>
      <trkpt lat="45.88373" lon="-0.81604">
        <ele>14</ele>
        <time>2014-06-28T19:22:46.143Z</time>
      </trkpt>
      <trkpt lat="45.88374" lon="-0.81616">
        <ele>14</ele>
        <time>2014-06-28T19:22:53.114Z</time>
      </trkpt>
      <trkpt lat="45.88375" lon="-0.81618">
        <ele>14</ele>
        <time>2014-06-28T19:22:54.114Z</time>
      </trkpt>
      <trkpt lat="45.88379" lon="-0.81628">
        <ele>15</ele>
        <time>2014-06-28T19:23:02.923Z</time>
      </trkpt>
      <trkpt lat="45.8838" lon="-0.81629">
        <ele>15</ele>
        <time>2014-06-28T19:23:03.137Z</time>
      </trkpt>
      <trkpt lat="45.88381" lon="-0.81642">
        <ele>15</ele>
        <time>2014-06-28T19:23:13.004Z</time>
      </trkpt>
      <trkpt lat="45.88381" lon="-0.81643">
        <ele>15</ele>
        <time>2014-06-28T19:23:13.120Z</time>
      </trkpt>
      <trkpt lat="45.88387" lon="-0.81652">
        <ele>16</ele>
        <time>2014-06-28T19:23:25.153Z</time>
      </trkpt>
      <trkpt lat="45.88388" lon="-0.81653">
        <ele>16</ele>
        <time>2014-06-28T19:23:26.140Z</time>
      </trkpt>
      <trkpt lat="45.88392" lon="-0.81664">
        <ele>16</ele>
        <time>2014-06-28T19:23:52.846Z</time>
      </trkpt>
      <trkpt lat="45.88396" lon="-0.81664">
        <ele>17</ele>
        <time>2014-06-28T19:23:53.162Z</time>
      </trkpt>
      <trkpt lat="45.88403" lon="-0.8167">
        <ele>19</ele>
        <time>2014-06-28T19:24:09.172Z</time>
      </trkpt>
      <trkpt lat="45.88405" lon="-0.81671">
        <ele>19</ele>
        <time>2014-06-28T19:24:10.139Z</time>
      </trkpt>
      <trkpt lat="45.88413" lon="-0.81674">
        <ele>19</ele>
        <time>2014-06-28T19:24:20.199Z</time>
      </trkpt>
      <trkpt lat="45.88414" lon="-0.81675">
        <ele>19</ele>
        <time>2014-06-28T19:24:21.163Z</time>
      </trkpt>
      <trkpt lat="45.88421" lon="-0.81682">
        <ele>20</ele>
        <time>2014-06-28T19:24:33.134Z</time>
      </trkpt>
      <trkpt lat="45.88421" lon="-0.81683">
        <ele>21</ele>
        <time>2014-06-28T19:24:34.142Z</time>
      </trkpt>
      <trkpt lat="45.88427" lon="-0.81691">
        <ele>21</ele>
        <time>2014-06-28T19:24:41.165Z</time>
      </trkpt>
      <trkpt lat="45.88428" lon="-0.81693">
        <ele>21</ele>
        <time>2014-06-28T19:24:42.139Z</time>
      </trkpt>
      <trkpt lat="45.88433" lon="-0.81698">
        <ele>22</ele>
        <time>2014-06-28T19:24:46.160Z</time>
      </trkpt>
      <trkpt lat="45.88436" lon="-0.817">
        <ele>22</ele>
        <time>2014-06-28T19:24:47.137Z</time>
      </trkpt>
      <trkpt lat="45.8844" lon="-0.81711">
        <ele>22</ele>
        <time>2014-06-28T19:24:56.168Z</time>
      </trkpt>
      <trkpt lat="45.88439" lon="-0.81713">
        <ele>22</ele>
        <time>2014-06-28T19:24:57.146Z</time>
      </trkpt>
      <trkpt lat="45.88443" lon="-0.81725">
        <ele>23</ele>
        <time>2014-06-28T19:25:08.219Z</time>
      </trkpt>
      <trkpt lat="45.88444" lon="-0.81725">
        <ele>23</ele>
        <time>2014-06-28T19:25:09.161Z</time>
      </trkpt>
      <trkpt lat="45.88449" lon="-0.81735">
        <ele>23</ele>
        <time>2014-06-28T19:25:20.189Z</time>
      </trkpt>
      <trkpt lat="45.8845" lon="-0.81736">
        <ele>23</ele>
        <time>2014-06-28T19:25:21.140Z</time>
      </trkpt>
      <trkpt lat="45.88452" lon="-0.81747">
        <ele>24</ele>
        <time>2014-06-28T19:25:44.151Z</time>
      </trkpt>
      <trkpt lat="45.88453" lon="-0.81748">
        <ele>24</ele>
        <time>2014-06-28T19:25:45.140Z</time>
      </trkpt>
      <trkpt lat="45.88455" lon="-0.81758">
        <ele>28</ele>
        <time>2014-06-28T19:25:48.514Z</time>
      </trkpt>
      <trkpt lat="45.88458" lon="-0.8176">
        <ele>28</ele>
        <time>2014-06-28T19:25:49.159Z</time>
      </trkpt>
      <trkpt lat="45.88457" lon="-0.81772">
        <ele>28</ele>
        <time>2014-06-28T19:25:52.855Z</time>
      </trkpt>
      <trkpt lat="45.88457" lon="-0.81774">
        <ele>28</ele>
        <time>2014-06-28T19:25:53.138Z</time>
      </trkpt>
      <trkpt lat="45.88455" lon="-0.81787">
        <ele>28</ele>
        <time>2014-06-28T19:25:57.909Z</time>
      </trkpt>
      <trkpt lat="45.88455" lon="-0.81788">
        <ele>28</ele>
        <time>2014-06-28T19:25:58.124Z</time>
      </trkpt>
      <trkpt lat="45.88455" lon="-0.818">
        <ele>28</ele>
        <time>2014-06-28T19:26:03.142Z</time>
      </trkpt>
      <trkpt lat="45.88456" lon="-0.81801">
        <ele>28</ele>
        <time>2014-06-28T19:26:04.139Z</time>
      </trkpt>
      <trkpt lat="45.88457" lon="-0.8181">
        <ele>29</ele>
        <time>2014-06-28T19:26:08.136Z</time>
      </trkpt>
      <trkpt lat="45.88456" lon="-0.81814">
        <ele>29</ele>
        <time>2014-06-28T19:26:09.110Z</time>
      </trkpt>
      <trkpt lat="45.88458" lon="-0.81827">
        <ele>29</ele>
        <time>2014-06-28T19:26:19.145Z</time>
      </trkpt>
      <trkpt lat="45.88458" lon="-0.81829">
        <ele>29</ele>
        <time>2014-06-28T19:26:20.125Z</time>
      </trkpt>
      <trkpt lat="45.88458" lon="-0.81841">
        <ele>30</ele>
        <time>2014-06-28T19:26:28.132Z</time>
      </trkpt>
      <trkpt lat="45.88459" lon="-0.81842">
        <ele>30</ele>
        <time>2014-06-28T19:26:29.182Z</time>
      </trkpt>
      <trkpt lat="45.88461" lon="-0.81854">
        <ele>30</ele>
        <time>2014-06-28T19:26:38.180Z</time>
      </trkpt>
      <trkpt lat="45.88461" lon="-0.81856">
        <ele>30</ele>
        <time>2014-06-28T19:26:39.150Z</time>
      </trkpt>
      <trkpt lat="45.88462" lon="-0.81867">
        <ele>30</ele>
        <time>2014-06-28T19:26:48.163Z</time>
      </trkpt>
      <trkpt lat="45.88462" lon="-0.81869">
        <ele>30</ele>
        <time>2014-06-28T19:26:49.139Z</time>
      </trkpt>
      <trkpt lat="45.88464" lon="-0.81881">
        <ele>30</ele>
        <time>2014-06-28T19:26:57.967Z</time>
      </trkpt>
      <trkpt lat="45.88464" lon="-0.81882">
        <ele>30</ele>
        <time>2014-06-28T19:26:58.154Z</time>
      </trkpt>
      <trkpt lat="45.88465" lon="-0.81894">
        <ele>30</ele>
        <time>2014-06-28T19:27:08.123Z</time>
      </trkpt>
      <trkpt lat="45.88465" lon="-0.81896">
        <ele>30</ele>
        <time>2014-06-28T19:27:09.160Z</time>
      </trkpt>
      <trkpt lat="45.88467" lon="-0.81908">
        <ele>31</ele>
        <time>2014-06-28T19:27:18.150Z</time>
      </trkpt>
      <trkpt lat="45.88467" lon="-0.81909">
        <ele>31</ele>
        <time>2014-06-28T19:27:19.141Z</time>
      </trkpt>
      <trkpt lat="45.88468" lon="-0.81922">
        <ele>31</ele>
        <time>2014-06-28T19:27:28.477Z</time>
      </trkpt>
      <trkpt lat="45.88469" lon="-0.81923">
        <ele>31</ele>
        <time>2014-06-28T19:27:29.412Z</time>
      </trkpt>
      <trkpt lat="45.8847" lon="-0.81934">
        <ele>31</ele>
        <time>2014-06-28T19:27:37.427Z</time>
      </trkpt>
      <trkpt lat="45.8847" lon="-0.81935">
        <ele>31</ele>
        <time>2014-06-28T19:27:38.452Z</time>
      </trkpt>
      <trkpt lat="45.88471" lon="-0.81947">
        <ele>31</ele>
        <time>2014-06-28T19:27:46.450Z</time>
      </trkpt>
      <trkpt lat="45.88472" lon="-0.81948">
        <ele>31</ele>
        <time>2014-06-28T19:27:47.413Z</time>
      </trkpt>
      <trkpt lat="45.88472" lon="-0.81961">
        <ele>31</ele>
        <time>2014-06-28T19:27:54.501Z</time>
      </trkpt>
      <trkpt lat="45.88473" lon="-0.81962">
        <ele>31</ele>
        <time>2014-06-28T19:27:55.408Z</time>
      </trkpt>
      <trkpt lat="45.88474" lon="-0.81974">
        <ele>31</ele>
        <time>2014-06-28T19:28:02.468Z</time>
      </trkpt>
      <trkpt lat="45.88474" lon="-0.81975">
        <ele>31</ele>
        <time>2014-06-28T19:28:03.485Z</time>
      </trkpt>
      <trkpt lat="45.88477" lon="-0.81986">
        <ele>31</ele>
        <time>2014-06-28T19:28:11.423Z</time>
      </trkpt>
      <trkpt lat="45.88477" lon="-0.81987">
        <ele>31</ele>
        <time>2014-06-28T19:28:12.418Z</time>
      </trkpt>
      <trkpt lat="45.88478" lon="-0.81999">
        <ele>31</ele>
        <time>2014-06-28T19:28:21.438Z</time>
      </trkpt>
      <trkpt lat="45.88478" lon="-0.82001">
        <ele>31</ele>
        <time>2014-06-28T19:28:22.408Z</time>
      </trkpt>
      <trkpt lat="45.88477" lon="-0.82013">
        <ele>31</ele>
        <time>2014-06-28T19:28:30.416Z</time>
      </trkpt>
      <trkpt lat="45.88477" lon="-0.82014">
        <ele>31</ele>
        <time>2014-06-28T19:28:31.391Z</time>
      </trkpt>
      <trkpt lat="45.88476" lon="-0.82027">
        <ele>31</ele>
        <time>2014-06-28T19:28:39.436Z</time>
      </trkpt>
      <trkpt lat="45.88476" lon="-0.82028">
        <ele>31</ele>
        <time>2014-06-28T19:28:40.470Z</time>
      </trkpt>
      <trkpt lat="45.88474" lon="-0.8204">
        <ele>31</ele>
        <time>2014-06-28T19:28:47.424Z</time>
      </trkpt>
      <trkpt lat="45.88474" lon="-0.82042">
        <ele>31</ele>
        <time>2014-06-28T19:28:48.409Z</time>
      </trkpt>
      <trkpt lat="45.88474" lon="-0.82055">
        <ele>31</ele>
        <time>2014-06-28T19:28:58.423Z</time>
      </trkpt>
      <trkpt lat="45.88474" lon="-0.82057">
        <ele>31</ele>
        <time>2014-06-28T19:28:59.414Z</time>
      </trkpt>
      <trkpt lat="45.88473" lon="-0.82067">
        <ele>31</ele>
        <time>2014-06-28T19:29:06.423Z</time>
      </trkpt>
      <trkpt lat="45.88473" lon="-0.8207">
        <ele>31</ele>
        <time>2014-06-28T19:29:07.422Z</time>
      </trkpt>
      <trkpt lat="45.8847" lon="-0.82081">
        <ele>31</ele>
        <time>2014-06-28T19:29:16.434Z</time>
      </trkpt>
      <trkpt lat="45.88469" lon="-0.82083">
        <ele>31</ele>
        <time>2014-06-28T19:29:17.504Z</time>
      </trkpt>
      <trkpt lat="45.88468" lon="-0.82095">
        <ele>32</ele>
        <time>2014-06-28T19:29:23.399Z</time>
      </trkpt>
      <trkpt lat="45.88468" lon="-0.82097">
        <ele>32</ele>
        <time>2014-06-28T19:29:24.400Z</time>
      </trkpt>
      <trkpt lat="45.88466" lon="-0.82109">
        <ele>32</ele>
        <time>2014-06-28T19:29:31.435Z</time>
      </trkpt>
      <trkpt lat="45.88466" lon="-0.82111">
        <ele>32</ele>
        <time>2014-06-28T19:29:32.421Z</time>
      </trkpt>
      <trkpt lat="45.88467" lon="-0.82122">
        <ele>33</ele>
        <time>2014-06-28T19:29:39.423Z</time>
      </trkpt>
      <trkpt lat="45.88468" lon="-0.82123">
        <ele>33</ele>
        <time>2014-06-28T19:29:40.410Z</time>
      </trkpt>
      <trkpt lat="45.8847" lon="-0.82135">
        <ele>33</ele>
        <time>2014-06-28T19:29:48.506Z</time>
      </trkpt>
      <trkpt lat="45.8847" lon="-0.82136">
        <ele>33</ele>
        <time>2014-06-28T19:29:49.431Z</time>
      </trkpt>
      <trkpt lat="45.88472" lon="-0.82148">
        <ele>33</ele>
        <time>2014-06-28T19:29:58.166Z</time>
      </trkpt>
      <trkpt lat="45.88473" lon="-0.82149">
        <ele>33</ele>
        <time>2014-06-28T19:29:58.416Z</time>
      </trkpt>
      <trkpt lat="45.88478" lon="-0.82159">
        <ele>33</ele>
        <time>2014-06-28T19:30:05.442Z</time>
      </trkpt>
      <trkpt lat="45.88478" lon="-0.82162">
        <ele>33</ele>
        <time>2014-06-28T19:30:06.419Z</time>
      </trkpt>
      <trkpt lat="45.88484" lon="-0.82171">
        <ele>34</ele>
        <time>2014-06-28T19:30:14.414Z</time>
      </trkpt>
      <trkpt lat="45.88484" lon="-0.82173">
        <ele>34</ele>
        <time>2014-06-28T19:30:15.408Z</time>
      </trkpt>
      <trkpt lat="45.88488" lon="-0.82184">
        <ele>34</ele>
        <time>2014-06-28T19:30:24.443Z</time>
      </trkpt>
      <trkpt lat="45.88488" lon="-0.82186">
        <ele>34</ele>
        <time>2014-06-28T19:30:25.408Z</time>
      </trkpt>
      <trkpt lat="45.8849" lon="-0.82197">
        <ele>33</ele>
        <time>2014-06-28T19:30:34.422Z</time>
      </trkpt>
      <trkpt lat="45.88492" lon="-0.82198">
        <ele>33</ele>
        <time>2014-06-28T19:30:35.408Z</time>
      </trkpt>
      <trkpt lat="45.88492" lon="-0.82209">
        <ele>33</ele>
        <time>2014-06-28T19:30:42.429Z</time>
      </trkpt>
      <trkpt lat="45.88491" lon="-0.82211">
        <ele>33</ele>
        <time>2014-06-28T19:30:43.410Z</time>
      </trkpt>
      <trkpt lat="45.88496" lon="-0.8222">
        <ele>33</ele>
        <time>2014-06-28T19:30:49.445Z</time>
      </trkpt>
      <trkpt lat="45.88497" lon="-0.82222">
        <ele>33</ele>
        <time>2014-06-28T19:30:50.420Z</time>
      </trkpt>
      <trkpt lat="45.88504" lon="-0.82228">
        <ele>32</ele>
        <time>2014-06-28T19:30:58.177Z</time>
      </trkpt>
      <trkpt lat="45.88505" lon="-0.82229">
        <ele>32</ele>
        <time>2014-06-28T19:30:58.409Z</time>
      </trkpt>
      <trkpt lat="45.88514" lon="-0.82231">
        <ele>32</ele>
        <time>2014-06-28T19:31:05.431Z</time>
      </trkpt>
      <trkpt lat="45.88515" lon="-0.82231">
        <ele>32</ele>
        <time>2014-06-28T19:31:06.407Z</time>
      </trkpt>
      <trkpt lat="45.88523" lon="-0.82229">
        <ele>32</ele>
        <time>2014-06-28T19:31:16.442Z</time>
      </trkpt>
      <trkpt lat="45.88524" lon="-0.82228">
        <ele>32</ele>
        <time>2014-06-28T19:31:17.441Z</time>
      </trkpt>
      <trkpt lat="45.88531" lon="-0.82221">
        <ele>32</ele>
        <time>2014-06-28T19:31:29.421Z</time>
      </trkpt>
      <trkpt lat="45.88533" lon="-0.8222">
        <ele>32</ele>
        <time>2014-06-28T19:31:30.411Z</time>
      </trkpt>
      <trkpt lat="45.88542" lon="-0.82217">
        <ele>32</ele>
        <time>2014-06-28T19:31:36.420Z</time>
      </trkpt>
      <trkpt lat="45.88542" lon="-0.82217">
        <ele>32</ele>
        <time>2014-06-28T19:31:37.417Z</time>
      </trkpt>
      <trkpt lat="45.8855" lon="-0.82212">
        <ele>32</ele>
        <time>2014-06-28T19:31:44.422Z</time>
      </trkpt>
      <trkpt lat="45.88552" lon="-0.82211">
        <ele>32</ele>
        <time>2014-06-28T19:31:45.408Z</time>
      </trkpt>
      <trkpt lat="45.8856" lon="-0.82208">
        <ele>32</ele>
        <time>2014-06-28T19:31:53.422Z</time>
      </trkpt>
      <trkpt lat="45.88561" lon="-0.82207">
        <ele>32</ele>
        <time>2014-06-28T19:31:54.406Z</time>
      </trkpt>
      <trkpt lat="45.88569" lon="-0.82203">
        <ele>32</ele>
        <time>2014-06-28T19:31:59.450Z</time>
      </trkpt>
      <trkpt lat="45.8857" lon="-0.82203">
        <ele>32</ele>
        <time>2014-06-28T19:32:00.420Z</time>
      </trkpt>
      <trkpt lat="45.88577" lon="-0.82197">
        <ele>32</ele>
        <time>2014-06-28T19:32:08.235Z</time>
      </trkpt>
      <trkpt lat="45.88578" lon="-0.82197">
        <ele>32</ele>
        <time>2014-06-28T19:32:08.405Z</time>
      </trkpt>
      <trkpt lat="45.88585" lon="-0.8219">
        <ele>29</ele>
        <time>2014-06-28T19:32:15.425Z</time>
      </trkpt>
      <trkpt lat="45.88586" lon="-0.8219">
        <ele>29</ele>
        <time>2014-06-28T19:32:16.408Z</time>
      </trkpt>
      <trkpt lat="45.88593" lon="-0.82184">
        <ele>29</ele>
        <time>2014-06-28T19:32:23.306Z</time>
      </trkpt>
      <trkpt lat="45.88594" lon="-0.82183">
        <ele>29</ele>
        <time>2014-06-28T19:32:23.373Z</time>
      </trkpt>
      <trkpt lat="45.88602" lon="-0.82178">
        <ele>29</ele>
        <time>2014-06-28T19:32:33.438Z</time>
      </trkpt>
      <trkpt lat="45.88603" lon="-0.82177">
        <ele>28</ele>
        <time>2014-06-28T19:32:34.411Z</time>
      </trkpt>
      <trkpt lat="45.8861" lon="-0.82171">
        <ele>28</ele>
        <time>2014-06-28T19:33:11.422Z</time>
      </trkpt>
      <trkpt lat="45.88613" lon="-0.8217">
        <ele>28</ele>
        <time>2014-06-28T19:33:12.403Z</time>
      </trkpt>
      <trkpt lat="45.88619" lon="-0.82165">
        <ele>28</ele>
        <time>2014-06-28T19:33:15.422Z</time>
      </trkpt>
      <trkpt lat="45.88622" lon="-0.82163">
        <ele>28</ele>
        <time>2014-06-28T19:33:16.411Z</time>
      </trkpt>
      <trkpt lat="45.8863" lon="-0.82157">
        <ele>27</ele>
        <time>2014-06-28T19:33:20.443Z</time>
      </trkpt>
      <trkpt lat="45.88631" lon="-0.82157">
        <ele>27</ele>
        <time>2014-06-28T19:33:21.450Z</time>
      </trkpt>
      <trkpt lat="45.88638" lon="-0.82155">
        <ele>27</ele>
        <time>2014-06-28T19:33:39.420Z</time>
      </trkpt>
      <trkpt lat="45.88642" lon="-0.82153">
        <ele>26</ele>
        <time>2014-06-28T19:33:40.439Z</time>
      </trkpt>
      <trkpt lat="45.8865" lon="-0.82155">
        <ele>26</ele>
        <time>2014-06-28T19:33:45.454Z</time>
      </trkpt>
      <trkpt lat="45.88654" lon="-0.82154">
        <ele>26</ele>
        <time>2014-06-28T19:33:46.418Z</time>
      </trkpt>
      <trkpt lat="45.8866" lon="-0.8215">
        <ele>26</ele>
        <time>2014-06-28T19:33:48.573Z</time>
      </trkpt>
      <trkpt lat="45.88663" lon="-0.82151">
        <ele>25</ele>
        <time>2014-06-28T19:33:49.389Z</time>
      </trkpt>
      <trkpt lat="45.88671" lon="-0.8215">
        <ele>21</ele>
        <time>2014-06-28T19:33:53.124Z</time>
      </trkpt>
      <trkpt lat="45.88674" lon="-0.82151">
        <ele>21</ele>
        <time>2014-06-28T19:33:53.409Z</time>
      </trkpt>
      <trkpt lat="45.88681" lon="-0.82147">
        <ele>21</ele>
        <time>2014-06-28T19:34:00.423Z</time>
      </trkpt>
      <trkpt lat="45.88682" lon="-0.82147">
        <ele>20</ele>
        <time>2014-06-28T19:34:01.410Z</time>
      </trkpt>
      <trkpt lat="45.88689" lon="-0.82142">
        <ele>20</ele>
        <time>2014-06-28T19:34:06.427Z</time>
      </trkpt>
      <trkpt lat="45.88691" lon="-0.82142">
        <ele>20</ele>
        <time>2014-06-28T19:34:07.416Z</time>
      </trkpt>
      <trkpt lat="45.88696" lon="-0.82131">
        <ele>19</ele>
        <time>2014-06-28T19:34:18.291Z</time>
      </trkpt>
      <trkpt lat="45.88697" lon="-0.8213">
        <ele>19</ele>
        <time>2014-06-28T19:34:18.386Z</time>
      </trkpt>
      <trkpt lat="45.88704" lon="-0.82126">
        <ele>19</ele>
        <time>2014-06-28T19:34:23.313Z</time>
      </trkpt>
      <trkpt lat="45.88706" lon="-0.82125">
        <ele>18</ele>
        <time>2014-06-28T19:34:23.409Z</time>
      </trkpt>
      <trkpt lat="45.88713" lon="-0.82121">
        <ele>18</ele>
        <time>2014-06-28T19:34:28.464Z</time>
      </trkpt>
      <trkpt lat="45.88714" lon="-0.8212">
        <ele>18</ele>
        <time>2014-06-28T19:34:29.410Z</time>
      </trkpt>
      <trkpt lat="45.88723" lon="-0.82117">
        <ele>17</ele>
        <time>2014-06-28T19:34:38.479Z</time>
      </trkpt>
      <trkpt lat="45.88725" lon="-0.82117">
        <ele>17</ele>
        <time>2014-06-28T19:34:39.409Z</time>
      </trkpt>
      <trkpt lat="45.88733" lon="-0.82113">
        <ele>16</ele>
        <time>2014-06-28T19:34:46.456Z</time>
      </trkpt>
      <trkpt lat="45.88735" lon="-0.82113">
        <ele>16</ele>
        <time>2014-06-28T19:34:47.419Z</time>
      </trkpt>
      <trkpt lat="45.88743" lon="-0.82109">
        <ele>16</ele>
        <time>2014-06-28T19:34:55.437Z</time>
      </trkpt>
      <trkpt lat="45.88744" lon="-0.82109">
        <ele>16</ele>
        <time>2014-06-28T19:34:56.412Z</time>
      </trkpt>
      <trkpt lat="45.88752" lon="-0.82113">
        <ele>10</ele>
        <time>2014-06-28T19:35:10.430Z</time>
      </trkpt>
      <trkpt lat="45.88753" lon="-0.82113">
        <ele>10</ele>
        <time>2014-06-28T19:35:11.417Z</time>
      </trkpt>
      <trkpt lat="45.88761" lon="-0.8212">
        <ele>10</ele>
        <time>2014-06-28T19:35:18.425Z</time>
      </trkpt>
      <trkpt lat="45.88761" lon="-0.82121">
        <ele>10</ele>
        <time>2014-06-28T19:35:19.410Z</time>
      </trkpt>
      <trkpt lat="45.88767" lon="-0.82129">
        <ele>10</ele>
        <time>2014-06-28T19:35:31.428Z</time>
      </trkpt>
      <trkpt lat="45.88768" lon="-0.8213">
        <ele>10</ele>
        <time>2014-06-28T19:35:32.429Z</time>
      </trkpt>
      <trkpt lat="45.88774" lon="-0.82137">
        <ele>10</ele>
        <time>2014-06-28T19:35:41.429Z</time>
      </trkpt>
      <trkpt lat="45.88776" lon="-0.82138">
        <ele>10</ele>
        <time>2014-06-28T19:35:42.408Z</time>
      </trkpt>
      <trkpt lat="45.88782" lon="-0.82143">
        <ele>10</ele>
        <time>2014-06-28T19:35:47.442Z</time>
      </trkpt>
      <trkpt lat="45.88784" lon="-0.82145">
        <ele>10</ele>
        <time>2014-06-28T19:35:48.430Z</time>
      </trkpt>
      <trkpt lat="45.88791" lon="-0.82151">
        <ele>9</ele>
        <time>2014-06-28T19:35:55.459Z</time>
      </trkpt>
      <trkpt lat="45.88792" lon="-0.82152">
        <ele>9</ele>
        <time>2014-06-28T19:35:56.412Z</time>
      </trkpt>
      <trkpt lat="45.88799" lon="-0.82157">
        <ele>9</ele>
        <time>2014-06-28T19:36:03.419Z</time>
      </trkpt>
      <trkpt lat="45.888" lon="-0.82158">
        <ele>9</ele>
        <time>2014-06-28T19:36:04.421Z</time>
      </trkpt>
      <trkpt lat="45.88808" lon="-0.82164">
        <ele>8</ele>
        <time>2014-06-28T19:36:13.412Z</time>
      </trkpt>
      <trkpt lat="45.88809" lon="-0.82165">
        <ele>8</ele>
        <time>2014-06-28T19:36:13.463Z</time>
      </trkpt>
      <trkpt lat="45.88814" lon="-0.82172">
        <ele>8</ele>
        <time>2014-06-28T19:36:21.459Z</time>
      </trkpt>
      <trkpt lat="45.88816" lon="-0.82173">
        <ele>8</ele>
        <time>2014-06-28T19:36:22.418Z</time>
      </trkpt>
      <trkpt lat="45.88825" lon="-0.82176">
        <ele>7</ele>
        <time>2014-06-28T19:36:34.428Z</time>
      </trkpt>
      <trkpt lat="45.88826" lon="-0.82175">
        <ele>7</ele>
        <time>2014-06-28T19:36:35.408Z</time>
      </trkpt>
      <trkpt lat="45.88833" lon="-0.82171">
        <ele>6</ele>
        <time>2014-06-28T19:36:39.514Z</time>
      </trkpt>
      <trkpt lat="45.88834" lon="-0.8217">
        <ele>6</ele>
        <time>2014-06-28T19:36:40.421Z</time>
      </trkpt>
      <trkpt lat="45.88842" lon="-0.82169">
        <ele>6</ele>
        <time>2014-06-28T19:36:46.423Z</time>
      </trkpt>
      <trkpt lat="45.88844" lon="-0.82169">
        <ele>5</ele>
        <time>2014-06-28T19:36:47.430Z</time>
      </trkpt>
      <trkpt lat="45.8885" lon="-0.82175">
        <ele>5</ele>
        <time>2014-06-28T19:37:08.440Z</time>
      </trkpt>
      <trkpt lat="45.88852" lon="-0.82176">
        <ele>5</ele>
        <time>2014-06-28T19:37:09.427Z</time>
      </trkpt>
      <trkpt lat="45.8886" lon="-0.82182">
        <ele>5</ele>
        <time>2014-06-28T19:37:19.422Z</time>
      </trkpt>
      <trkpt lat="45.88861" lon="-0.82183">
        <ele>5</ele>
        <time>2014-06-28T19:37:20.428Z</time>
      </trkpt>
      <trkpt lat="45.88869" lon="-0.8218">
        <ele>5</ele>
        <time>2014-06-28T19:37:33.456Z</time>
      </trkpt>
      <trkpt lat="45.88871" lon="-0.82181">
        <ele>5</ele>
        <time>2014-06-28T19:37:34.419Z</time>
      </trkpt>
      <trkpt lat="45.88877" lon="-0.8219">
        <ele>4</ele>
        <time>2014-06-28T19:37:40.469Z</time>
      </trkpt>
      <trkpt lat="45.88878" lon="-0.82193">
        <ele>4</ele>
        <time>2014-06-28T19:37:41.442Z</time>
      </trkpt>
      <trkpt lat="45.88883" lon="-0.82201">
        <ele>4</ele>
        <time>2014-06-28T19:37:46.431Z</time>
      </trkpt>
      <trkpt lat="45.88883" lon="-0.82203">
        <ele>4</ele>
        <time>2014-06-28T19:37:47.422Z</time>
      </trkpt>
      <trkpt lat="45.88887" lon="-0.82213">
        <ele>4</ele>
        <time>2014-06-28T19:37:55.430Z</time>
      </trkpt>
      <trkpt lat="45.88888" lon="-0.82214">
        <ele>4</ele>
        <time>2014-06-28T19:37:56.423Z</time>
      </trkpt>
      <trkpt lat="45.88893" lon="-0.82222">
        <ele>4</ele>
        <time>2014-06-28T19:38:04.431Z</time>
      </trkpt>
      <trkpt lat="45.88894" lon="-0.82224">
        <ele>4</ele>
        <time>2014-06-28T19:38:05.418Z</time>
      </trkpt>
      <trkpt lat="45.889" lon="-0.82233">
        <ele>4</ele>
        <time>2014-06-28T19:38:13.452Z</time>
      </trkpt>
      <trkpt lat="45.889" lon="-0.82234">
        <ele>4</ele>
        <time>2014-06-28T19:38:14.417Z</time>
      </trkpt>
      <trkpt lat="45.88906" lon="-0.82243">
        <ele>4</ele>
        <time>2014-06-28T19:38:21.434Z</time>
      </trkpt>
      <trkpt lat="45.88907" lon="-0.82244">
        <ele>4</ele>
        <time>2014-06-28T19:38:22.420Z</time>
      </trkpt>
      <trkpt lat="45.88912" lon="-0.82254">
        <ele>4</ele>
        <time>2014-06-28T19:38:29.474Z</time>
      </trkpt>
      <trkpt lat="45.88913" lon="-0.82255">
        <ele>4</ele>
        <time>2014-06-28T19:38:30.430Z</time>
      </trkpt>
      <trkpt lat="45.88919" lon="-0.82262">
        <ele>4</ele>
        <time>2014-06-28T19:38:38.451Z</time>
      </trkpt>
      <trkpt lat="45.8892" lon="-0.82263">
        <ele>4</ele>
        <time>2014-06-28T19:38:38.493Z</time>
      </trkpt>
      <trkpt lat="45.88926" lon="-0.82271">
        <ele>5</ele>
        <time>2014-06-28T19:38:45.459Z</time>
      </trkpt>
      <trkpt lat="45.88927" lon="-0.82272">
        <ele>5</ele>
        <time>2014-06-28T19:38:46.421Z</time>
      </trkpt>
      <trkpt lat="45.88933" lon="-0.82281">
        <ele>5</ele>
        <time>2014-06-28T19:38:53.420Z</time>
      </trkpt>
      <trkpt lat="45.88934" lon="-0.82283">
        <ele>5</ele>
        <time>2014-06-28T19:38:54.422Z</time>
      </trkpt>
      <trkpt lat="45.88938" lon="-0.82293">
        <ele>5</ele>
        <time>2014-06-28T19:39:00.456Z</time>
      </trkpt>
      <trkpt lat="45.88939" lon="-0.82295">
        <ele>5</ele>
        <time>2014-06-28T19:39:01.445Z</time>
      </trkpt>
      <trkpt lat="45.88939" lon="-0.82307">
        <ele>5</ele>
        <time>2014-06-28T19:39:08.304Z</time>
      </trkpt>
      <trkpt lat="45.88939" lon="-0.82309">
        <ele>5</ele>
        <time>2014-06-28T19:39:08.423Z</time>
      </trkpt>
      <trkpt lat="45.88934" lon="-0.82319">
        <ele>6</ele>
        <time>2014-06-28T19:39:15.435Z</time>
      </trkpt>
      <trkpt lat="45.88934" lon="-0.82321">
        <ele>6</ele>
        <time>2014-06-28T19:39:16.430Z</time>
      </trkpt>
      <trkpt lat="45.88928" lon="-0.82331">
        <ele>6</ele>
        <time>2014-06-28T19:39:24.434Z</time>
      </trkpt>
      <trkpt lat="45.88927" lon="-0.82332">
        <ele>6</ele>
        <time>2014-06-28T19:39:25.402Z</time>
      </trkpt>
      <trkpt lat="45.88922" lon="-0.82342">
        <ele>7</ele>
        <time>2014-06-28T19:39:32.442Z</time>
      </trkpt>
      <trkpt lat="45.88922" lon="-0.82343">
        <ele>7</ele>
        <time>2014-06-28T19:39:33.448Z</time>
      </trkpt>
      <trkpt lat="45.88918" lon="-0.82354">
        <ele>8</ele>
        <time>2014-06-28T19:39:42.442Z</time>
      </trkpt>
      <trkpt lat="45.88916" lon="-0.82357">
        <ele>8</ele>
        <time>2014-06-28T19:39:43.418Z</time>
      </trkpt>
      <trkpt lat="45.88913" lon="-0.82368">
        <ele>8</ele>
        <time>2014-06-28T19:39:53.129Z</time>
      </trkpt>
      <trkpt lat="45.88912" lon="-0.8237">
        <ele>8</ele>
        <time>2014-06-28T19:39:53.428Z</time>
      </trkpt>
      <trkpt lat="45.8891" lon="-0.82381">
        <ele>9</ele>
        <time>2014-06-28T19:40:01.433Z</time>
      </trkpt>
      <trkpt lat="45.88909" lon="-0.82383">
        <ele>9</ele>
        <time>2014-06-28T19:40:02.421Z</time>
      </trkpt>
      <trkpt lat="45.88911" lon="-0.82394">
        <ele>9</ele>
        <time>2014-06-28T19:40:10.434Z</time>
      </trkpt>
      <trkpt lat="45.8891" lon="-0.82397">
        <ele>9</ele>
        <time>2014-06-28T19:40:11.421Z</time>
      </trkpt>
      <trkpt lat="45.88911" lon="-0.82409">
        <ele>10</ele>
        <time>2014-06-28T19:40:19.433Z</time>
      </trkpt>
      <trkpt lat="45.88911" lon="-0.82411">
        <ele>10</ele>
        <time>2014-06-28T19:40:20.437Z</time>
      </trkpt>
      <trkpt lat="45.88914" lon="-0.82423">
        <ele>10</ele>
        <time>2014-06-28T19:40:28.428Z</time>
      </trkpt>
      <trkpt lat="45.88914" lon="-0.82424">
        <ele>10</ele>
        <time>2014-06-28T19:40:29.419Z</time>
      </trkpt>
      <trkpt lat="45.88919" lon="-0.82435">
        <ele>10</ele>
        <time>2014-06-28T19:40:38.433Z</time>
      </trkpt>
      <trkpt lat="45.8892" lon="-0.82436">
        <ele>10</ele>
        <time>2014-06-28T19:40:38.522Z</time>
      </trkpt>
      <trkpt lat="45.88923" lon="-0.82447">
        <ele>10</ele>
        <time>2014-06-28T19:40:45.434Z</time>
      </trkpt>
      <trkpt lat="45.88924" lon="-0.82448">
        <ele>10</ele>
        <time>2014-06-28T19:40:46.418Z</time>
      </trkpt>
      <trkpt lat="45.88927" lon="-0.82458">
        <ele>10</ele>
        <time>2014-06-28T19:40:53.133Z</time>
      </trkpt>
      <trkpt lat="45.88928" lon="-0.82459">
        <ele>11</ele>
        <time>2014-06-28T19:40:53.411Z</time>
      </trkpt>
      <trkpt lat="45.88934" lon="-0.82469">
        <ele>11</ele>
        <time>2014-06-28T19:40:59.483Z</time>
      </trkpt>
      <trkpt lat="45.88935" lon="-0.8247">
        <ele>11</ele>
        <time>2014-06-28T19:41:00.425Z</time>
      </trkpt>
      <trkpt lat="45.88942" lon="-0.82478">
        <ele>11</ele>
        <time>2014-06-28T19:41:08.437Z</time>
      </trkpt>
      <trkpt lat="45.88943" lon="-0.82479">
        <ele>11</ele>
        <time>2014-06-28T19:41:09.428Z</time>
      </trkpt>
      <trkpt lat="45.88949" lon="-0.82486">
        <ele>11</ele>
        <time>2014-06-28T19:41:18.300Z</time>
      </trkpt>
      <trkpt lat="45.88951" lon="-0.82487">
        <ele>11</ele>
        <time>2014-06-28T19:41:18.505Z</time>
      </trkpt>
      <trkpt lat="45.88957" lon="-0.82496">
        <ele>11</ele>
        <time>2014-06-28T19:41:26.430Z</time>
      </trkpt>
      <trkpt lat="45.88958" lon="-0.82497">
        <ele>11</ele>
        <time>2014-06-28T19:41:27.419Z</time>
      </trkpt>
      <trkpt lat="45.88964" lon="-0.82505">
        <ele>12</ele>
        <time>2014-06-28T19:41:34.473Z</time>
      </trkpt>
      <trkpt lat="45.88964" lon="-0.82506">
        <ele>12</ele>
        <time>2014-06-28T19:41:35.430Z</time>
      </trkpt>
      <trkpt lat="45.8897" lon="-0.82515">
        <ele>12</ele>
        <time>2014-06-28T19:41:43.444Z</time>
      </trkpt>
      <trkpt lat="45.8897" lon="-0.82517">
        <ele>12</ele>
        <time>2014-06-28T19:41:43.494Z</time>
      </trkpt>
      <trkpt lat="45.88976" lon="-0.82525">
        <ele>12</ele>
        <time>2014-06-28T19:41:50.432Z</time>
      </trkpt>
      <trkpt lat="45.88976" lon="-0.82527">
        <ele>12</ele>
        <time>2014-06-28T19:41:51.420Z</time>
      </trkpt>
      <trkpt lat="45.88981" lon="-0.82536">
        <ele>12</ele>
        <time>2014-06-28T19:41:59.431Z</time>
      </trkpt>
      <trkpt lat="45.88982" lon="-0.82537">
        <ele>12</ele>
        <time>2014-06-28T19:42:00.424Z</time>
      </trkpt>
      <trkpt lat="45.88987" lon="-0.82546">
        <ele>12</ele>
        <time>2014-06-28T19:42:08.409Z</time>
      </trkpt>
      <trkpt lat="45.88988" lon="-0.82547">
        <ele>12</ele>
        <time>2014-06-28T19:42:08.467Z</time>
      </trkpt>
      <trkpt lat="45.88993" lon="-0.82556">
        <ele>12</ele>
        <time>2014-06-28T19:42:15.433Z</time>
      </trkpt>
      <trkpt lat="45.88994" lon="-0.82558">
        <ele>12</ele>
        <time>2014-06-28T19:42:16.427Z</time>
      </trkpt>
      <trkpt lat="45.89" lon="-0.82566">
        <ele>12</ele>
        <time>2014-06-28T19:42:23.521Z</time>
      </trkpt>
      <trkpt lat="45.89001" lon="-0.82568">
        <ele>12</ele>
        <time>2014-06-28T19:42:24.429Z</time>
      </trkpt>
      <trkpt lat="45.89006" lon="-0.82577">
        <ele>12</ele>
        <time>2014-06-28T19:42:31.442Z</time>
      </trkpt>
      <trkpt lat="45.89007" lon="-0.82578">
        <ele>12</ele>
        <time>2014-06-28T19:42:32.419Z</time>
      </trkpt>
      <trkpt lat="45.89013" lon="-0.82587">
        <ele>12</ele>
        <time>2014-06-28T19:42:40.433Z</time>
      </trkpt>
      <trkpt lat="45.89014" lon="-0.82589">
        <ele>12</ele>
        <time>2014-06-28T19:42:41.430Z</time>
      </trkpt>
      <trkpt lat="45.89019" lon="-0.82599">
        <ele>13</ele>
        <time>2014-06-28T19:42:49.433Z</time>
      </trkpt>
      <trkpt lat="45.8902" lon="-0.826">
        <ele>13</ele>
        <time>2014-06-28T19:42:50.418Z</time>
      </trkpt>
      <trkpt lat="45.89025" lon="-0.8261">
        <ele>13</ele>
        <time>2014-06-28T19:42:58.185Z</time>
      </trkpt>
      <trkpt lat="45.89026" lon="-0.82611">
        <ele>13</ele>
        <time>2014-06-28T19:42:58.418Z</time>
      </trkpt>
      <trkpt lat="45.89031" lon="-0.8262">
        <ele>13</ele>
        <time>2014-06-28T19:43:04.435Z</time>
      </trkpt>
      <trkpt lat="45.89032" lon="-0.82621">
        <ele>13</ele>
        <time>2014-06-28T19:43:05.428Z</time>
      </trkpt>
      <trkpt lat="45.89039" lon="-0.8263">
        <ele>13</ele>
        <time>2014-06-28T19:43:13.298Z</time>
      </trkpt>
      <trkpt lat="45.8904" lon="-0.82631">
        <ele>13</ele>
        <time>2014-06-28T19:43:13.388Z</time>
      </trkpt>
      <trkpt lat="45.89046" lon="-0.8264">
        <ele>13</ele>
        <time>2014-06-28T19:43:20.527Z</time>
      </trkpt>
      <trkpt lat="45.89047" lon="-0.82642">
        <ele>13</ele>
        <time>2014-06-28T19:43:21.423Z</time>
      </trkpt>
      <trkpt lat="45.89053" lon="-0.8265">
        <ele>13</ele>
        <time>2014-06-28T19:43:28.387Z</time>
      </trkpt>
      <trkpt lat="45.89054" lon="-0.82651">
        <ele>13</ele>
        <time>2014-06-28T19:43:28.447Z</time>
      </trkpt>
      <trkpt lat="45.8906" lon="-0.82658">
        <ele>13</ele>
        <time>2014-06-28T19:43:34.463Z</time>
      </trkpt>
      <trkpt lat="45.89062" lon="-0.82659">
        <ele>13</ele>
        <time>2014-06-28T19:43:35.418Z</time>
      </trkpt>
      <trkpt lat="45.89069" lon="-0.82665">
        <ele>12</ele>
        <time>2014-06-28T19:43:42.434Z</time>
      </trkpt>
      <trkpt lat="45.8907" lon="-0.82666">
        <ele>12</ele>
        <time>2014-06-28T19:43:43.386Z</time>
      </trkpt>
      <trkpt lat="45.89077" lon="-0.8267">
        <ele>12</ele>
        <time>2014-06-28T19:43:49.461Z</time>
      </trkpt>
      <trkpt lat="45.89079" lon="-0.82671">
        <ele>12</ele>
        <time>2014-06-28T19:43:50.415Z</time>
      </trkpt>
      <trkpt lat="45.89086" lon="-0.82673">
        <ele>11</ele>
        <time>2014-06-28T19:43:56.465Z</time>
      </trkpt>
      <trkpt lat="45.89088" lon="-0.82673">
        <ele>11</ele>
        <time>2014-06-28T19:43:57.423Z</time>
      </trkpt>
      <trkpt lat="45.89096" lon="-0.82676">
        <ele>11</ele>
        <time>2014-06-28T19:44:03.431Z</time>
      </trkpt>
      <trkpt lat="45.89097" lon="-0.82677">
        <ele>11</ele>
        <time>2014-06-28T19:44:04.442Z</time>
      </trkpt>
      <trkpt lat="45.89105" lon="-0.8268">
        <ele>10</ele>
        <time>2014-06-28T19:44:10.431Z</time>
      </trkpt>
      <trkpt lat="45.89106" lon="-0.8268">
        <ele>10</ele>
        <time>2014-06-28T19:44:11.410Z</time>
      </trkpt>
      <trkpt lat="45.89114" lon="-0.82682">
        <ele>10</ele>
        <time>2014-06-28T19:44:18.397Z</time>
      </trkpt>
      <trkpt lat="45.89116" lon="-0.82682">
        <ele>10</ele>
        <time>2014-06-28T19:44:19.416Z</time>
      </trkpt>
      <trkpt lat="45.89124" lon="-0.82686">
        <ele>9</ele>
        <time>2014-06-28T19:44:26.459Z</time>
      </trkpt>
      <trkpt lat="45.89125" lon="-0.82687">
        <ele>9</ele>
        <time>2014-06-28T19:44:27.420Z</time>
      </trkpt>
      <trkpt lat="45.89132" lon="-0.82692">
        <ele>9</ele>
        <time>2014-06-28T19:44:34.432Z</time>
      </trkpt>
      <trkpt lat="45.89134" lon="-0.82694">
        <ele>9</ele>
        <time>2014-06-28T19:44:35.427Z</time>
      </trkpt>
      <trkpt lat="45.8914" lon="-0.827">
        <ele>9</ele>
        <time>2014-06-28T19:44:41.433Z</time>
      </trkpt>
      <trkpt lat="45.89141" lon="-0.82701">
        <ele>9</ele>
        <time>2014-06-28T19:44:42.428Z</time>
      </trkpt>
      <trkpt lat="45.89147" lon="-0.82709">
        <ele>9</ele>
        <time>2014-06-28T19:44:49.440Z</time>
      </trkpt>
      <trkpt lat="45.89148" lon="-0.8271">
        <ele>9</ele>
        <time>2014-06-28T19:44:50.427Z</time>
      </trkpt>
      <trkpt lat="45.89153" lon="-0.82719">
        <ele>9</ele>
        <time>2014-06-28T19:44:58.179Z</time>
      </trkpt>
      <trkpt lat="45.89154" lon="-0.8272">
        <ele>9</ele>
        <time>2014-06-28T19:44:58.428Z</time>
      </trkpt>
      <trkpt lat="45.89159" lon="-0.82731">
        <ele>8</ele>
        <time>2014-06-28T19:45:05.440Z</time>
      </trkpt>
      <trkpt lat="45.89159" lon="-0.82733">
        <ele>8</ele>
        <time>2014-06-28T19:45:06.420Z</time>
      </trkpt>
      <trkpt lat="45.89163" lon="-0.82743">
        <ele>8</ele>
        <time>2014-06-28T19:45:13.398Z</time>
      </trkpt>
      <trkpt lat="45.89163" lon="-0.82745">
        <ele>8</ele>
        <time>2014-06-28T19:45:14.419Z</time>
      </trkpt>
      <trkpt lat="45.89166" lon="-0.82755">
        <ele>7</ele>
        <time>2014-06-28T19:45:21.436Z</time>
      </trkpt>
      <trkpt lat="45.89167" lon="-0.82757">
        <ele>7</ele>
        <time>2014-06-28T19:45:22.419Z</time>
      </trkpt>
      <trkpt lat="45.8917" lon="-0.82768">
        <ele>6</ele>
        <time>2014-06-28T19:45:28.435Z</time>
      </trkpt>
      <trkpt lat="45.8917" lon="-0.8277">
        <ele>6</ele>
        <time>2014-06-28T19:45:29.400Z</time>
      </trkpt>
      <trkpt lat="45.89174" lon="-0.8278">
        <ele>6</ele>
        <time>2014-06-28T19:45:35.440Z</time>
      </trkpt>
      <trkpt lat="45.89175" lon="-0.82782">
        <ele>6</ele>
        <time>2014-06-28T19:45:36.428Z</time>
      </trkpt>
      <trkpt lat="45.89178" lon="-0.82792">
        <ele>6</ele>
        <time>2014-06-28T19:45:42.440Z</time>
      </trkpt>
      <trkpt lat="45.89179" lon="-0.82795">
        <ele>6</ele>
        <time>2014-06-28T19:45:43.408Z</time>
      </trkpt>
      <trkpt lat="45.89182" lon="-0.82806">
        <ele>6</ele>
        <time>2014-06-28T19:45:50.440Z</time>
      </trkpt>
      <trkpt lat="45.89183" lon="-0.82808">
        <ele>6</ele>
        <time>2014-06-28T19:45:51.427Z</time>
      </trkpt>
      <trkpt lat="45.89187" lon="-0.82819">
        <ele>6</ele>
        <time>2014-06-28T19:45:58.441Z</time>
      </trkpt>
      <trkpt lat="45.89187" lon="-0.8282">
        <ele>6</ele>
        <time>2014-06-28T19:45:59.428Z</time>
      </trkpt>
      <trkpt lat="45.89192" lon="-0.8283">
        <ele>6</ele>
        <time>2014-06-28T19:46:06.447Z</time>
      </trkpt>
      <trkpt lat="45.89192" lon="-0.82832">
        <ele>6</ele>
        <time>2014-06-28T19:46:07.417Z</time>
      </trkpt>
      <trkpt lat="45.89197" lon="-0.82843">
        <ele>6</ele>
        <time>2014-06-28T19:46:15.431Z</time>
      </trkpt>
      <trkpt lat="45.89197" lon="-0.82845">
        <ele>6</ele>
        <time>2014-06-28T19:46:16.419Z</time>
      </trkpt>
      <trkpt lat="45.89201" lon="-0.82855">
        <ele>6</ele>
        <time>2014-06-28T19:46:23.464Z</time>
      </trkpt>
      <trkpt lat="45.89202" lon="-0.82856">
        <ele>6</ele>
        <time>2014-06-28T19:46:23.521Z</time>
      </trkpt>
      <trkpt lat="45.89205" lon="-0.82867">
        <ele>6</ele>
        <time>2014-06-28T19:46:29.474Z</time>
      </trkpt>
      <trkpt lat="45.89206" lon="-0.82868">
        <ele>6</ele>
        <time>2014-06-28T19:46:30.428Z</time>
      </trkpt>
      <trkpt lat="45.8921" lon="-0.82879">
        <ele>6</ele>
        <time>2014-06-28T19:46:37.440Z</time>
      </trkpt>
      <trkpt lat="45.89211" lon="-0.82881">
        <ele>6</ele>
        <time>2014-06-28T19:46:38.438Z</time>
      </trkpt>
      <trkpt lat="45.89215" lon="-0.82891">
        <ele>6</ele>
        <time>2014-06-28T19:46:46.440Z</time>
      </trkpt>
      <trkpt lat="45.89215" lon="-0.82893">
        <ele>6</ele>
        <time>2014-06-28T19:46:47.446Z</time>
      </trkpt>
      <trkpt lat="45.89218" lon="-0.82904">
        <ele>6</ele>
        <time>2014-06-28T19:46:56.453Z</time>
      </trkpt>
      <trkpt lat="45.89217" lon="-0.82905">
        <ele>6</ele>
        <time>2014-06-28T19:46:57.410Z</time>
      </trkpt>
      <trkpt lat="45.89219" lon="-0.82916">
        <ele>6</ele>
        <time>2014-06-28T19:47:05.473Z</time>
      </trkpt>
      <trkpt lat="45.8922" lon="-0.82918">
        <ele>7</ele>
        <time>2014-06-28T19:47:06.451Z</time>
      </trkpt>
      <trkpt lat="45.89223" lon="-0.82929">
        <ele>7</ele>
        <time>2014-06-28T19:47:14.442Z</time>
      </trkpt>
      <trkpt lat="45.89224" lon="-0.82931">
        <ele>7</ele>
        <time>2014-06-28T19:47:15.440Z</time>
      </trkpt>
      <trkpt lat="45.89227" lon="-0.82941">
        <ele>7</ele>
        <time>2014-06-28T19:47:21.442Z</time>
      </trkpt>
      <trkpt lat="45.89228" lon="-0.82943">
        <ele>7</ele>
        <time>2014-06-28T19:47:22.428Z</time>
      </trkpt>
      <trkpt lat="45.89232" lon="-0.82954">
        <ele>7</ele>
        <time>2014-06-28T19:47:29.495Z</time>
      </trkpt>
      <trkpt lat="45.89233" lon="-0.82956">
        <ele>7</ele>
        <time>2014-06-28T19:47:30.428Z</time>
      </trkpt>
      <trkpt lat="45.89236" lon="-0.82966">
        <ele>7</ele>
        <time>2014-06-28T19:47:36.442Z</time>
      </trkpt>
      <trkpt lat="45.89237" lon="-0.82968">
        <ele>7</ele>
        <time>2014-06-28T19:47:37.429Z</time>
      </trkpt>
      <trkpt lat="45.89241" lon="-0.82977">
        <ele>7</ele>
        <time>2014-06-28T19:47:43.696Z</time>
      </trkpt>
      <trkpt lat="45.89242" lon="-0.8298">
        <ele>7</ele>
        <time>2014-06-28T19:47:44.427Z</time>
      </trkpt>
      <trkpt lat="45.89246" lon="-0.82989">
        <ele>6</ele>
        <time>2014-06-28T19:47:50.468Z</time>
      </trkpt>
      <trkpt lat="45.89247" lon="-0.82991">
        <ele>6</ele>
        <time>2014-06-28T19:47:51.435Z</time>
      </trkpt>
      <trkpt lat="45.89253" lon="-0.83">
        <ele>6</ele>
        <time>2014-06-28T19:47:58.176Z</time>
      </trkpt>
      <trkpt lat="45.89254" lon="-0.83002">
        <ele>6</ele>
        <time>2014-06-28T19:47:58.440Z</time>
      </trkpt>
      <trkpt lat="45.89258" lon="-0.83011">
        <ele>6</ele>
        <time>2014-06-28T19:48:04.456Z</time>
      </trkpt>
      <trkpt lat="45.89259" lon="-0.83013">
        <ele>6</ele>
        <time>2014-06-28T19:48:05.451Z</time>
      </trkpt>
      <trkpt lat="45.89263" lon="-0.83022">
        <ele>5</ele>
        <time>2014-06-28T19:48:13.518Z</time>
      </trkpt>
      <trkpt lat="45.89264" lon="-0.83024">
        <ele>5</ele>
        <time>2014-06-28T19:48:13.553Z</time>
      </trkpt>
      <trkpt lat="45.89268" lon="-0.83033">
        <ele>5</ele>
        <time>2014-06-28T19:48:19.468Z</time>
      </trkpt>
      <trkpt lat="45.89269" lon="-0.83035">
        <ele>5</ele>
        <time>2014-06-28T19:48:20.458Z</time>
      </trkpt>
      <trkpt lat="45.89275" lon="-0.83044">
        <ele>5</ele>
        <time>2014-06-28T19:48:29.439Z</time>
      </trkpt>
      <trkpt lat="45.89276" lon="-0.83045">
        <ele>5</ele>
        <time>2014-06-28T19:48:30.436Z</time>
      </trkpt>
      <trkpt lat="45.8928" lon="-0.83055">
        <ele>5</ele>
        <time>2014-06-28T19:48:36.463Z</time>
      </trkpt>
      <trkpt lat="45.8928" lon="-0.83056">
        <ele>5</ele>
        <time>2014-06-28T19:48:37.439Z</time>
      </trkpt>
      <trkpt lat="45.89285" lon="-0.83067">
        <ele>5</ele>
        <time>2014-06-28T19:48:45.443Z</time>
      </trkpt>
      <trkpt lat="45.89285" lon="-0.83068">
        <ele>5</ele>
        <time>2014-06-28T19:48:46.432Z</time>
      </trkpt>
      <trkpt lat="45.8929" lon="-0.83079">
        <ele>5</ele>
        <time>2014-06-28T19:48:54.441Z</time>
      </trkpt>
      <trkpt lat="45.89291" lon="-0.83081">
        <ele>5</ele>
        <time>2014-06-28T19:48:55.429Z</time>
      </trkpt>
      <trkpt lat="45.89295" lon="-0.8309">
        <ele>5</ele>
        <time>2014-06-28T19:49:03.358Z</time>
      </trkpt>
      <trkpt lat="45.89296" lon="-0.83091">
        <ele>5</ele>
        <time>2014-06-28T19:49:03.415Z</time>
      </trkpt>
      <trkpt lat="45.893" lon="-0.831">
        <ele>5</ele>
        <time>2014-06-28T19:49:09.451Z</time>
      </trkpt>
      <trkpt lat="45.89301" lon="-0.83105">
        <ele>5</ele>
        <time>2014-06-28T19:49:10.525Z</time>
      </trkpt>
      <trkpt lat="45.89306" lon="-0.83114">
        <ele>5</ele>
        <time>2014-06-28T19:49:19.462Z</time>
      </trkpt>
      <trkpt lat="45.89307" lon="-0.83115">
        <ele>5</ele>
        <time>2014-06-28T19:49:20.429Z</time>
      </trkpt>
      <trkpt lat="45.89312" lon="-0.83126">
        <ele>5</ele>
        <time>2014-06-28T19:49:27.431Z</time>
      </trkpt>
      <trkpt lat="45.89313" lon="-0.83128">
        <ele>5</ele>
        <time>2014-06-28T19:49:28.403Z</time>
      </trkpt>
      <trkpt lat="45.89317" lon="-0.83137">
        <ele>5</ele>
        <time>2014-06-28T19:49:34.449Z</time>
      </trkpt>
      <trkpt lat="45.89318" lon="-0.83139">
        <ele>5</ele>
        <time>2014-06-28T19:49:35.429Z</time>
      </trkpt>
      <trkpt lat="45.89322" lon="-0.83149">
        <ele>5</ele>
        <time>2014-06-28T19:49:43.591Z</time>
      </trkpt>
      <trkpt lat="45.89323" lon="-0.8315">
        <ele>5</ele>
        <time>2014-06-28T19:49:44.431Z</time>
      </trkpt>
      <trkpt lat="45.89329" lon="-0.83158">
        <ele>5</ele>
        <time>2014-06-28T19:49:50.467Z</time>
      </trkpt>
      <trkpt lat="45.8933" lon="-0.83159">
        <ele>5</ele>
        <time>2014-06-28T19:49:51.448Z</time>
      </trkpt>
      <trkpt lat="45.89338" lon="-0.83161">
        <ele>5</ele>
        <time>2014-06-28T19:50:06.471Z</time>
      </trkpt>
      <trkpt lat="45.89342" lon="-0.83159">
        <ele>5</ele>
        <time>2014-06-28T19:50:07.430Z</time>
      </trkpt>
      <trkpt lat="45.89349" lon="-0.83153">
        <ele>5</ele>
        <time>2014-06-28T19:50:15.451Z</time>
      </trkpt>
      <trkpt lat="45.89351" lon="-0.83152">
        <ele>5</ele>
        <time>2014-06-28T19:50:16.424Z</time>
      </trkpt>
      <trkpt lat="45.89357" lon="-0.83147">
        <ele>5</ele>
        <time>2014-06-28T19:50:20.488Z</time>
      </trkpt>
      <trkpt lat="45.89359" lon="-0.83145">
        <ele>5</ele>
        <time>2014-06-28T19:50:21.464Z</time>
      </trkpt>
      <trkpt lat="45.89366" lon="-0.83138">
        <ele>5</ele>
        <time>2014-06-28T19:50:29.468Z</time>
      </trkpt>
      <trkpt lat="45.89366" lon="-0.83137">
        <ele>5</ele>
        <time>2014-06-28T19:50:30.463Z</time>
      </trkpt>
      <trkpt lat="45.89375" lon="-0.83134">
        <ele>5</ele>
        <time>2014-06-28T19:50:39.463Z</time>
      </trkpt>
      <trkpt lat="45.89376" lon="-0.83135">
        <ele>5</ele>
        <time>2014-06-28T19:50:40.437Z</time>
      </trkpt>
      <trkpt lat="45.89382" lon="-0.83141">
        <ele>5</ele>
        <time>2014-06-28T19:50:47.581Z</time>
      </trkpt>
      <trkpt lat="45.89384" lon="-0.83142">
        <ele>5</ele>
        <time>2014-06-28T19:50:48.502Z</time>
      </trkpt>
      <trkpt lat="45.89389" lon="-0.83151">
        <ele>5</ele>
        <time>2014-06-28T19:50:56.442Z</time>
      </trkpt>
      <trkpt lat="45.89391" lon="-0.83152">
        <ele>5</ele>
        <time>2014-06-28T19:50:57.432Z</time>
      </trkpt>
      <trkpt lat="45.89397" lon="-0.83155">
        <ele>5</ele>
        <time>2014-06-28T19:51:01.435Z</time>
      </trkpt>
      <trkpt lat="45.894" lon="-0.83158">
        <ele>5</ele>
        <time>2014-06-28T19:51:02.417Z</time>
      </trkpt>
      <trkpt lat="45.89408" lon="-0.83157">
        <ele>5</ele>
        <time>2014-06-28T19:51:15.458Z</time>
      </trkpt>
      <trkpt lat="45.89409" lon="-0.83156">
        <ele>5</ele>
        <time>2014-06-28T19:51:16.424Z</time>
      </trkpt>
      <trkpt lat="45.89418" lon="-0.83155">
        <ele>5</ele>
        <time>2014-06-28T19:51:25.448Z</time>
      </trkpt>
      <trkpt lat="45.89419" lon="-0.83156">
        <ele>5</ele>
        <time>2014-06-28T19:51:26.442Z</time>
      </trkpt>
      <trkpt lat="45.89427" lon="-0.83156">
        <ele>5</ele>
        <time>2014-06-28T19:53:52.458Z</time>
      </trkpt>
      <trkpt lat="45.89428" lon="-0.83156">
        <ele>5</ele>
        <time>2014-06-28T19:53:53.428Z</time>
      </trkpt>
      <trkpt lat="45.89434" lon="-0.83164">
        <ele>5</ele>
        <time>2014-06-28T19:59:39.503Z</time>
      </trkpt>
      <trkpt lat="45.89435" lon="-0.83164">
        <ele>5</ele>
        <time>2014-06-28T19:59:40.438Z</time>
      </trkpt>
      <trkpt lat="45.89442" lon="-0.83173">
        <ele>5</ele>
        <time>2014-06-28T19:59:50.474Z</time>
      </trkpt>
      <trkpt lat="45.89443" lon="-0.83174">
        <ele>5</ele>
        <time>2014-06-28T19:59:51.440Z</time>
      </trkpt>
      <trkpt lat="45.8945" lon="-0.83178">
        <ele>4</ele>
        <time>2014-06-28T19:59:58.191Z</time>
      </trkpt>
      <trkpt lat="45.89451" lon="-0.8318">
        <ele>4</ele>
        <time>2014-06-28T19:59:58.460Z</time>
      </trkpt>
      <trkpt lat="45.8946" lon="-0.8318">
        <ele>4</ele>
        <time>2014-06-28T20:00:06.472Z</time>
      </trkpt>
      <trkpt lat="45.89461" lon="-0.83179">
        <ele>4</ele>
        <time>2014-06-28T20:00:07.440Z</time>
      </trkpt>
      <trkpt lat="45.89468" lon="-0.83172">
        <ele>4</ele>
        <time>2014-06-28T20:00:16.453Z</time>
      </trkpt>
      <trkpt lat="45.89468" lon="-0.83171">
        <ele>4</ele>
        <time>2014-06-28T20:00:17.411Z</time>
      </trkpt>
      <trkpt lat="45.89475" lon="-0.83164">
        <ele>4</ele>
        <time>2014-06-28T20:00:25.455Z</time>
      </trkpt>
      <trkpt lat="45.89476" lon="-0.83163">
        <ele>4</ele>
        <time>2014-06-28T20:00:26.468Z</time>
      </trkpt>
      <trkpt lat="45.89483" lon="-0.83156">
        <ele>4</ele>
        <time>2014-06-28T20:00:33.504Z</time>
      </trkpt>
      <trkpt lat="45.89484" lon="-0.83154">
        <ele>4</ele>
        <time>2014-06-28T20:00:34.443Z</time>
      </trkpt>
      <trkpt lat="45.8949" lon="-0.83148">
        <ele>4</ele>
        <time>2014-06-28T20:00:41.467Z</time>
      </trkpt>
      <trkpt lat="45.89492" lon="-0.83146">
        <ele>4</ele>
        <time>2014-06-28T20:00:42.456Z</time>
      </trkpt>
      <trkpt lat="45.89499" lon="-0.8314">
        <ele>5</ele>
        <time>2014-06-28T20:00:49.483Z</time>
      </trkpt>
      <trkpt lat="45.895" lon="-0.83139">
        <ele>4</ele>
        <time>2014-06-28T20:00:50.440Z</time>
      </trkpt>
      <trkpt lat="45.89507" lon="-0.83132">
        <ele>4</ele>
        <time>2014-06-28T20:00:58.187Z</time>
      </trkpt>
      <trkpt lat="45.89508" lon="-0.83131">
        <ele>4</ele>
        <time>2014-06-28T20:00:58.450Z</time>
      </trkpt>
      <trkpt lat="45.89512" lon="-0.8312">
        <ele>4</ele>
        <time>2014-06-28T20:01:06.452Z</time>
      </trkpt>
      <trkpt lat="45.89512" lon="-0.83119">
        <ele>4</ele>
        <time>2014-06-28T20:01:07.508Z</time>
      </trkpt>
      <trkpt lat="45.89519" lon="-0.83113">
        <ele>4</ele>
        <time>2014-06-28T20:01:13.435Z</time>
      </trkpt>
      <trkpt lat="45.8952" lon="-0.83112">
        <ele>4</ele>
        <time>2014-06-28T20:01:14.450Z</time>
      </trkpt>
      <trkpt lat="45.89528" lon="-0.83106">
        <ele>4</ele>
        <time>2014-06-28T20:01:20.464Z</time>
      </trkpt>
      <trkpt lat="45.89529" lon="-0.83106">
        <ele>4</ele>
        <time>2014-06-28T20:01:21.436Z</time>
      </trkpt>
      <trkpt lat="45.89536" lon="-0.831">
        <ele>4</ele>
        <time>2014-06-28T20:01:26.511Z</time>
      </trkpt>
      <trkpt lat="45.89536" lon="-0.83099">
        <ele>4</ele>
        <time>2014-06-28T20:01:27.448Z</time>
      </trkpt>
      <trkpt lat="45.89544" lon="-0.83092">
        <ele>4</ele>
        <time>2014-06-28T20:01:33.612Z</time>
      </trkpt>
      <trkpt lat="45.89545" lon="-0.83092">
        <ele>4</ele>
        <time>2014-06-28T20:01:34.438Z</time>
      </trkpt>
      <trkpt lat="45.89551" lon="-0.83085">
        <ele>4</ele>
        <time>2014-06-28T20:01:41.473Z</time>
      </trkpt>
      <trkpt lat="45.89552" lon="-0.83084">
        <ele>4</ele>
        <time>2014-06-28T20:01:42.449Z</time>
      </trkpt>
      <trkpt lat="45.89559" lon="-0.83078">
        <ele>4</ele>
        <time>2014-06-28T20:01:47.479Z</time>
      </trkpt>
      <trkpt lat="45.8956" lon="-0.83077">
        <ele>4</ele>
        <time>2014-06-28T20:01:48.448Z</time>
      </trkpt>
      <trkpt lat="45.89567" lon="-0.8307">
        <ele>4</ele>
        <time>2014-06-28T20:01:55.454Z</time>
      </trkpt>
      <trkpt lat="45.89568" lon="-0.83068">
        <ele>4</ele>
        <time>2014-06-28T20:01:56.442Z</time>
      </trkpt>
      <trkpt lat="45.89575" lon="-0.83061">
        <ele>4</ele>
        <time>2014-06-28T20:02:03.516Z</time>
      </trkpt>
      <trkpt lat="45.89576" lon="-0.8306">
        <ele>4</ele>
        <time>2014-06-28T20:02:04.440Z</time>
      </trkpt>
      <trkpt lat="45.89582" lon="-0.83051">
        <ele>4</ele>
        <time>2014-06-28T20:02:10.452Z</time>
      </trkpt>
      <trkpt lat="45.89583" lon="-0.8305">
        <ele>4</ele>
        <time>2014-06-28T20:02:11.441Z</time>
      </trkpt>
      <trkpt lat="45.89589" lon="-0.83043">
        <ele>3</ele>
        <time>2014-06-28T20:02:16.485Z</time>
      </trkpt>
      <trkpt lat="45.8959" lon="-0.83041">
        <ele>3</ele>
        <time>2014-06-28T20:02:17.447Z</time>
      </trkpt>
      <trkpt lat="45.89596" lon="-0.83033">
        <ele>3</ele>
        <time>2014-06-28T20:02:23.510Z</time>
      </trkpt>
      <trkpt lat="45.89597" lon="-0.83032">
        <ele>3</ele>
        <time>2014-06-28T20:02:24.448Z</time>
      </trkpt>
      <trkpt lat="45.89605" lon="-0.83025">
        <ele>3</ele>
        <time>2014-06-28T20:02:31.492Z</time>
      </trkpt>
      <trkpt lat="45.89606" lon="-0.83024">
        <ele>3</ele>
        <time>2014-06-28T20:02:32.442Z</time>
      </trkpt>
      <trkpt lat="45.89611" lon="-0.83017">
        <ele>3</ele>
        <time>2014-06-28T20:02:38.542Z</time>
      </trkpt>
      <trkpt lat="45.89613" lon="-0.83016">
        <ele>3</ele>
        <time>2014-06-28T20:02:39.450Z</time>
      </trkpt>
      <trkpt lat="45.89619" lon="-0.8301">
        <ele>3</ele>
        <time>2014-06-28T20:02:44.487Z</time>
      </trkpt>
      <trkpt lat="45.8962" lon="-0.83008">
        <ele>3</ele>
        <time>2014-06-28T20:02:45.448Z</time>
      </trkpt>
      <trkpt lat="45.89627" lon="-0.83002">
        <ele>3</ele>
        <time>2014-06-28T20:02:53.113Z</time>
      </trkpt>
      <trkpt lat="45.89628" lon="-0.83001">
        <ele>3</ele>
        <time>2014-06-28T20:02:53.458Z</time>
      </trkpt>
      <trkpt lat="45.89635" lon="-0.82993">
        <ele>2</ele>
        <time>2014-06-28T20:03:00.461Z</time>
      </trkpt>
      <trkpt lat="45.89636" lon="-0.82992">
        <ele>2</ele>
        <time>2014-06-28T20:03:01.441Z</time>
      </trkpt>
      <trkpt lat="45.89642" lon="-0.82984">
        <ele>2</ele>
        <time>2014-06-28T20:03:08.218Z</time>
      </trkpt>
      <trkpt lat="45.89644" lon="-0.82983">
        <ele>2</ele>
        <time>2014-06-28T20:03:08.433Z</time>
      </trkpt>
      <trkpt lat="45.8965" lon="-0.82976">
        <ele>2</ele>
        <time>2014-06-28T20:03:14.454Z</time>
      </trkpt>
      <trkpt lat="45.89651" lon="-0.82975">
        <ele>2</ele>
        <time>2014-06-28T20:03:15.438Z</time>
      </trkpt>
      <trkpt lat="45.89659" lon="-0.82968">
        <ele>2</ele>
        <time>2014-06-28T20:03:23.339Z</time>
      </trkpt>
      <trkpt lat="45.8966" lon="-0.82967">
        <ele>2</ele>
        <time>2014-06-28T20:03:23.419Z</time>
      </trkpt>
      <trkpt lat="45.89667" lon="-0.82959">
        <ele>1</ele>
        <time>2014-06-28T20:03:29.454Z</time>
      </trkpt>
      <trkpt lat="45.89669" lon="-0.82958">
        <ele>1</ele>
        <time>2014-06-28T20:03:30.441Z</time>
      </trkpt>
      <trkpt lat="45.89676" lon="-0.82951">
        <ele>1</ele>
        <time>2014-06-28T20:03:36.489Z</time>
      </trkpt>
      <trkpt lat="45.89676" lon="-0.82949">
        <ele>1</ele>
        <time>2014-06-28T20:03:37.447Z</time>
      </trkpt>
      <trkpt lat="45.89683" lon="-0.82941">
        <ele>1</ele>
        <time>2014-06-28T20:03:44.461Z</time>
      </trkpt>
      <trkpt lat="45.89684" lon="-0.82939">
        <ele>1</ele>
        <time>2014-06-28T20:03:45.420Z</time>
      </trkpt>
      <trkpt lat="45.8969" lon="-0.82931">
        <ele>1</ele>
        <time>2014-06-28T20:03:53.313Z</time>
      </trkpt>
      <trkpt lat="45.89691" lon="-0.8293">
        <ele>1</ele>
        <time>2014-06-28T20:03:53.423Z</time>
      </trkpt>
      <trkpt lat="45.89697" lon="-0.82922">
        <ele>1</ele>
        <time>2014-06-28T20:03:59.492Z</time>
      </trkpt>
      <trkpt lat="45.89698" lon="-0.82921">
        <ele>1</ele>
        <time>2014-06-28T20:04:00.458Z</time>
      </trkpt>
      <trkpt lat="45.89704" lon="-0.82913">
        <ele>1</ele>
        <time>2014-06-28T20:04:08.429Z</time>
      </trkpt>
      <trkpt lat="45.89705" lon="-0.82911">
        <ele>1</ele>
        <time>2014-06-28T20:04:08.500Z</time>
      </trkpt>
      <trkpt lat="45.89711" lon="-0.82902">
        <ele>1</ele>
        <time>2014-06-28T20:04:15.464Z</time>
      </trkpt>
      <trkpt lat="45.89712" lon="-0.82901">
        <ele>1</ele>
        <time>2014-06-28T20:04:16.448Z</time>
      </trkpt>
      <trkpt lat="45.89718" lon="-0.82893">
        <ele>1</ele>
        <time>2014-06-28T20:04:22.477Z</time>
      </trkpt>
      <trkpt lat="45.89719" lon="-0.82892">
        <ele>1</ele>
        <time>2014-06-28T20:04:23.448Z</time>
      </trkpt>
      <trkpt lat="45.89723" lon="-0.82883">
        <ele>1</ele>
        <time>2014-06-28T20:04:29.512Z</time>
      </trkpt>
      <trkpt lat="45.89724" lon="-0.82882">
        <ele>1</ele>
        <time>2014-06-28T20:04:30.448Z</time>
      </trkpt>
      <trkpt lat="45.89731" lon="-0.82873">
        <ele>1</ele>
        <time>2014-06-28T20:04:37.490Z</time>
      </trkpt>
      <trkpt lat="45.89732" lon="-0.82872">
        <ele>1</ele>
        <time>2014-06-28T20:04:38.449Z</time>
      </trkpt>
      <trkpt lat="45.89738" lon="-0.82864">
        <ele>1</ele>
        <time>2014-06-28T20:04:44.461Z</time>
      </trkpt>
      <trkpt lat="45.89739" lon="-0.82863">
        <ele>1</ele>
        <time>2014-06-28T20:04:45.439Z</time>
      </trkpt>
      <trkpt lat="45.89746" lon="-0.82856">
        <ele>1</ele>
        <time>2014-06-28T20:04:51.511Z</time>
      </trkpt>
      <trkpt lat="45.89746" lon="-0.82855">
        <ele>1</ele>
        <time>2014-06-28T20:04:52.448Z</time>
      </trkpt>
      <trkpt lat="45.89752" lon="-0.82847">
        <ele>1</ele>
        <time>2014-06-28T20:04:59.499Z</time>
      </trkpt>
      <trkpt lat="45.89753" lon="-0.82846">
        <ele>1</ele>
        <time>2014-06-28T20:05:00.450Z</time>
      </trkpt>
      <trkpt lat="45.8976" lon="-0.8284">
        <ele>1</ele>
        <time>2014-06-28T20:05:08.261Z</time>
      </trkpt>
      <trkpt lat="45.89761" lon="-0.8284">
        <ele>1</ele>
        <time>2014-06-28T20:05:08.439Z</time>
      </trkpt>
      <trkpt lat="45.89767" lon="-0.82849">
        <ele>1</ele>
        <time>2014-06-28T20:05:18.361Z</time>
      </trkpt>
      <trkpt lat="45.89767" lon="-0.8285">
        <ele>1</ele>
        <time>2014-06-28T20:05:18.457Z</time>
      </trkpt>
      <trkpt lat="45.89771" lon="-0.82862">
        <ele>1</ele>
        <time>2014-06-28T20:05:27.485Z</time>
      </trkpt>
      <trkpt lat="45.89772" lon="-0.82864">
        <ele>1</ele>
        <time>2014-06-28T20:05:28.482Z</time>
      </trkpt>
      <trkpt lat="45.89775" lon="-0.82874">
        <ele>1</ele>
        <time>2014-06-28T20:05:34.472Z</time>
      </trkpt>
      <trkpt lat="45.89776" lon="-0.82876">
        <ele>1</ele>
        <time>2014-06-28T20:05:35.440Z</time>
      </trkpt>
      <trkpt lat="45.8978" lon="-0.82886">
        <ele>1</ele>
        <time>2014-06-28T20:05:42.496Z</time>
      </trkpt>
      <trkpt lat="45.8978" lon="-0.82887">
        <ele>2</ele>
        <time>2014-06-28T20:05:43.448Z</time>
      </trkpt>
      <trkpt lat="45.89784" lon="-0.82898">
        <ele>2</ele>
        <time>2014-06-28T20:05:51.467Z</time>
      </trkpt>
      <trkpt lat="45.89785" lon="-0.829">
        <ele>2</ele>
        <time>2014-06-28T20:05:52.438Z</time>
      </trkpt>
      <trkpt lat="45.89789" lon="-0.82909">
        <ele>2</ele>
        <time>2014-06-28T20:05:59.460Z</time>
      </trkpt>
      <trkpt lat="45.89789" lon="-0.82912">
        <ele>2</ele>
        <time>2014-06-28T20:06:00.447Z</time>
      </trkpt>
      <trkpt lat="45.89793" lon="-0.82923">
        <ele>2</ele>
        <time>2014-06-28T20:06:13.507Z</time>
      </trkpt>
      <trkpt lat="45.89793" lon="-0.82924">
        <ele>2</ele>
        <time>2014-06-28T20:06:14.456Z</time>
      </trkpt>
      <trkpt lat="45.89796" lon="-0.82935">
        <ele>2</ele>
        <time>2014-06-28T20:06:21.512Z</time>
      </trkpt>
      <trkpt lat="45.89796" lon="-0.82937">
        <ele>2</ele>
        <time>2014-06-28T20:06:22.444Z</time>
      </trkpt>
      <trkpt lat="45.898" lon="-0.82948">
        <ele>2</ele>
        <time>2014-06-28T20:06:30.466Z</time>
      </trkpt>
      <trkpt lat="45.89801" lon="-0.8295">
        <ele>2</ele>
        <time>2014-06-28T20:06:31.445Z</time>
      </trkpt>
      <trkpt lat="45.89804" lon="-0.8296">
        <ele>2</ele>
        <time>2014-06-28T20:06:37.473Z</time>
      </trkpt>
      <trkpt lat="45.89804" lon="-0.82962">
        <ele>2</ele>
        <time>2014-06-28T20:06:38.449Z</time>
      </trkpt>
      <trkpt lat="45.89807" lon="-0.82972">
        <ele>2</ele>
        <time>2014-06-28T20:06:44.459Z</time>
      </trkpt>
      <trkpt lat="45.89808" lon="-0.82974">
        <ele>2</ele>
        <time>2014-06-28T20:06:45.443Z</time>
      </trkpt>
      <trkpt lat="45.89811" lon="-0.82984">
        <ele>2</ele>
        <time>2014-06-28T20:06:51.533Z</time>
      </trkpt>
      <trkpt lat="45.89811" lon="-0.82986">
        <ele>2</ele>
        <time>2014-06-28T20:06:52.442Z</time>
      </trkpt>
      <trkpt lat="45.89815" lon="-0.82998">
        <ele>2</ele>
        <time>2014-06-28T20:06:59.485Z</time>
      </trkpt>
      <trkpt lat="45.89816" lon="-0.82999">
        <ele>2</ele>
        <time>2014-06-28T20:07:00.423Z</time>
      </trkpt>
      <trkpt lat="45.8982" lon="-0.83011">
        <ele>3</ele>
        <time>2014-06-28T20:07:08.258Z</time>
      </trkpt>
      <trkpt lat="45.8982" lon="-0.83012">
        <ele>3</ele>
        <time>2014-06-28T20:07:08.430Z</time>
      </trkpt>
      <trkpt lat="45.89824" lon="-0.83022">
        <ele>3</ele>
        <time>2014-06-28T20:07:15.508Z</time>
      </trkpt>
      <trkpt lat="45.89824" lon="-0.83024">
        <ele>3</ele>
        <time>2014-06-28T20:07:16.447Z</time>
      </trkpt>
      <trkpt lat="45.89828" lon="-0.83035">
        <ele>3</ele>
        <time>2014-06-28T20:07:23.476Z</time>
      </trkpt>
      <trkpt lat="45.89828" lon="-0.83037">
        <ele>3</ele>
        <time>2014-06-28T20:07:24.445Z</time>
      </trkpt>
      <trkpt lat="45.89831" lon="-0.83048">
        <ele>3</ele>
        <time>2014-06-28T20:07:31.460Z</time>
      </trkpt>
      <trkpt lat="45.89832" lon="-0.83049">
        <ele>3</ele>
        <time>2014-06-28T20:07:32.447Z</time>
      </trkpt>
      <trkpt lat="45.89836" lon="-0.83059">
        <ele>3</ele>
        <time>2014-06-28T20:07:39.460Z</time>
      </trkpt>
      <trkpt lat="45.89836" lon="-0.83061">
        <ele>3</ele>
        <time>2014-06-28T20:07:40.447Z</time>
      </trkpt>
      <trkpt lat="45.8984" lon="-0.83072">
        <ele>3</ele>
        <time>2014-06-28T20:07:47.457Z</time>
      </trkpt>
      <trkpt lat="45.89841" lon="-0.83074">
        <ele>3</ele>
        <time>2014-06-28T20:07:48.457Z</time>
      </trkpt>
      <trkpt lat="45.89844" lon="-0.83085">
        <ele>4</ele>
        <time>2014-06-28T20:07:55.483Z</time>
      </trkpt>
      <trkpt lat="45.89845" lon="-0.83086">
        <ele>4</ele>
        <time>2014-06-28T20:07:56.458Z</time>
      </trkpt>
      <trkpt lat="45.8985" lon="-0.83097">
        <ele>4</ele>
        <time>2014-06-28T20:08:03.439Z</time>
      </trkpt>
      <trkpt lat="45.8985" lon="-0.83098">
        <ele>4</ele>
        <time>2014-06-28T20:08:04.443Z</time>
      </trkpt>
      <trkpt lat="45.89853" lon="-0.8311">
        <ele>4</ele>
        <time>2014-06-28T20:08:11.461Z</time>
      </trkpt>
      <trkpt lat="45.89854" lon="-0.83111">
        <ele>4</ele>
        <time>2014-06-28T20:08:12.445Z</time>
      </trkpt>
      <trkpt lat="45.89858" lon="-0.83123">
        <ele>4</ele>
        <time>2014-06-28T20:08:19.480Z</time>
      </trkpt>
      <trkpt lat="45.89858" lon="-0.83124">
        <ele>4</ele>
        <time>2014-06-28T20:08:20.448Z</time>
      </trkpt>
      <trkpt lat="45.89861" lon="-0.83136">
        <ele>4</ele>
        <time>2014-06-28T20:08:28.431Z</time>
      </trkpt>
      <trkpt lat="45.89862" lon="-0.83138">
        <ele>4</ele>
        <time>2014-06-28T20:08:28.508Z</time>
      </trkpt>
      <trkpt lat="45.89865" lon="-0.83149">
        <ele>4</ele>
        <time>2014-06-28T20:08:35.481Z</time>
      </trkpt>
      <trkpt lat="45.89866" lon="-0.83151">
        <ele>4</ele>
        <time>2014-06-28T20:08:36.448Z</time>
      </trkpt>
      <trkpt lat="45.89869" lon="-0.83163">
        <ele>4</ele>
        <time>2014-06-28T20:08:43.569Z</time>
      </trkpt>
      <trkpt lat="45.8987" lon="-0.83164">
        <ele>4</ele>
        <time>2014-06-28T20:08:44.447Z</time>
      </trkpt>
      <trkpt lat="45.89873" lon="-0.83175">
        <ele>4</ele>
        <time>2014-06-28T20:08:50.468Z</time>
      </trkpt>
      <trkpt lat="45.89874" lon="-0.83176">
        <ele>3</ele>
        <time>2014-06-28T20:08:51.459Z</time>
      </trkpt>
      <trkpt lat="45.89878" lon="-0.83187">
        <ele>3</ele>
        <time>2014-06-28T20:08:58.478Z</time>
      </trkpt>
      <trkpt lat="45.89879" lon="-0.83188">
        <ele>3</ele>
        <time>2014-06-28T20:08:59.444Z</time>
      </trkpt>
      <trkpt lat="45.89883" lon="-0.83199">
        <ele>3</ele>
        <time>2014-06-28T20:09:06.470Z</time>
      </trkpt>
      <trkpt lat="45.89884" lon="-0.832">
        <ele>3</ele>
        <time>2014-06-28T20:09:07.449Z</time>
      </trkpt>
      <trkpt lat="45.89887" lon="-0.83212">
        <ele>3</ele>
        <time>2014-06-28T20:09:14.481Z</time>
      </trkpt>
      <trkpt lat="45.89888" lon="-0.83214">
        <ele>3</ele>
        <time>2014-06-28T20:09:15.467Z</time>
      </trkpt>
      <trkpt lat="45.8989" lon="-0.83225">
        <ele>3</ele>
        <time>2014-06-28T20:09:21.462Z</time>
      </trkpt>
      <trkpt lat="45.89891" lon="-0.83226">
        <ele>3</ele>
        <time>2014-06-28T20:09:22.450Z</time>
      </trkpt>
      <trkpt lat="45.89896" lon="-0.83236">
        <ele>3</ele>
        <time>2014-06-28T20:09:28.580Z</time>
      </trkpt>
      <trkpt lat="45.89897" lon="-0.83237">
        <ele>3</ele>
        <time>2014-06-28T20:09:29.460Z</time>
      </trkpt>
      <trkpt lat="45.89901" lon="-0.83247">
        <ele>3</ele>
        <time>2014-06-28T20:09:36.460Z</time>
      </trkpt>
      <trkpt lat="45.89901" lon="-0.83249">
        <ele>3</ele>
        <time>2014-06-28T20:09:37.429Z</time>
      </trkpt>
      <trkpt lat="45.89905" lon="-0.8326">
        <ele>3</ele>
        <time>2014-06-28T20:09:44.489Z</time>
      </trkpt>
      <trkpt lat="45.89905" lon="-0.83262">
        <ele>3</ele>
        <time>2014-06-28T20:09:45.452Z</time>
      </trkpt>
      <trkpt lat="45.8991" lon="-0.83271">
        <ele>3</ele>
        <time>2014-06-28T20:09:50.491Z</time>
      </trkpt>
      <trkpt lat="45.8991" lon="-0.83273">
        <ele>3</ele>
        <time>2014-06-28T20:09:51.466Z</time>
      </trkpt>
      <trkpt lat="45.89912" lon="-0.83285">
        <ele>3</ele>
        <time>2014-06-28T20:09:58.188Z</time>
      </trkpt>
      <trkpt lat="45.89913" lon="-0.83286">
        <ele>3</ele>
        <time>2014-06-28T20:09:58.450Z</time>
      </trkpt>
      <trkpt lat="45.89918" lon="-0.83296">
        <ele>3</ele>
        <time>2014-06-28T20:10:04.491Z</time>
      </trkpt>
      <trkpt lat="45.89919" lon="-0.83298">
        <ele>3</ele>
        <time>2014-06-28T20:10:05.449Z</time>
      </trkpt>
      <trkpt lat="45.89923" lon="-0.83307">
        <ele>3</ele>
        <time>2014-06-28T20:10:10.461Z</time>
      </trkpt>
      <trkpt lat="45.89924" lon="-0.83308">
        <ele>3</ele>
        <time>2014-06-28T20:10:11.448Z</time>
      </trkpt>
      <trkpt lat="45.89928" lon="-0.83319">
        <ele>3</ele>
        <time>2014-06-28T20:10:18.312Z</time>
      </trkpt>
      <trkpt lat="45.89928" lon="-0.83322">
        <ele>3</ele>
        <time>2014-06-28T20:10:18.445Z</time>
      </trkpt>
      <trkpt lat="45.89932" lon="-0.83333">
        <ele>3</ele>
        <time>2014-06-28T20:10:25.454Z</time>
      </trkpt>
      <trkpt lat="45.89932" lon="-0.83335">
        <ele>4</ele>
        <time>2014-06-28T20:10:26.446Z</time>
      </trkpt>
      <trkpt lat="45.89936" lon="-0.83345">
        <ele>3</ele>
        <time>2014-06-28T20:10:33.446Z</time>
      </trkpt>
      <trkpt lat="45.89937" lon="-0.83347">
        <ele>3</ele>
        <time>2014-06-28T20:10:34.463Z</time>
      </trkpt>
      <trkpt lat="45.89941" lon="-0.83357">
        <ele>3</ele>
        <time>2014-06-28T20:10:40.475Z</time>
      </trkpt>
      <trkpt lat="45.89942" lon="-0.83358">
        <ele>3</ele>
        <time>2014-06-28T20:10:41.453Z</time>
      </trkpt>
      <trkpt lat="45.89946" lon="-0.83368">
        <ele>3</ele>
        <time>2014-06-28T20:10:48.448Z</time>
      </trkpt>
      <trkpt lat="45.89947" lon="-0.8337">
        <ele>3</ele>
        <time>2014-06-28T20:10:48.496Z</time>
      </trkpt>
      <trkpt lat="45.89951" lon="-0.83381">
        <ele>3</ele>
        <time>2014-06-28T20:10:55.484Z</time>
      </trkpt>
      <trkpt lat="45.8995" lon="-0.83384">
        <ele>3</ele>
        <time>2014-06-28T20:10:56.449Z</time>
      </trkpt>
      <trkpt lat="45.89955" lon="-0.83394">
        <ele>3</ele>
        <time>2014-06-28T20:11:03.475Z</time>
      </trkpt>
      <trkpt lat="45.89955" lon="-0.83396">
        <ele>3</ele>
        <time>2014-06-28T20:11:04.444Z</time>
      </trkpt>
      <trkpt lat="45.89957" lon="-0.83407">
        <ele>3</ele>
        <time>2014-06-28T20:11:10.463Z</time>
      </trkpt>
      <trkpt lat="45.89958" lon="-0.83409">
        <ele>3</ele>
        <time>2014-06-28T20:11:11.485Z</time>
      </trkpt>
      <trkpt lat="45.89963" lon="-0.8342">
        <ele>3</ele>
        <time>2014-06-28T20:11:18.493Z</time>
      </trkpt>
      <trkpt lat="45.89963" lon="-0.83422">
        <ele>3</ele>
        <time>2014-06-28T20:11:19.457Z</time>
      </trkpt>
      <trkpt lat="45.89967" lon="-0.83433">
        <ele>3</ele>
        <time>2014-06-28T20:11:26.473Z</time>
      </trkpt>
      <trkpt lat="45.89967" lon="-0.83434">
        <ele>3</ele>
        <time>2014-06-28T20:11:27.452Z</time>
      </trkpt>
      <trkpt lat="45.89971" lon="-0.83445">
        <ele>2</ele>
        <time>2014-06-28T20:11:33.543Z</time>
      </trkpt>
      <trkpt lat="45.89971" lon="-0.83446">
        <ele>2</ele>
        <time>2014-06-28T20:11:34.498Z</time>
      </trkpt>
      <trkpt lat="45.89975" lon="-0.83458">
        <ele>2</ele>
        <time>2014-06-28T20:11:41.434Z</time>
      </trkpt>
      <trkpt lat="45.89975" lon="-0.8346">
        <ele>2</ele>
        <time>2014-06-28T20:11:42.443Z</time>
      </trkpt>
      <trkpt lat="45.89979" lon="-0.83471">
        <ele>2</ele>
        <time>2014-06-28T20:11:49.462Z</time>
      </trkpt>
      <trkpt lat="45.8998" lon="-0.83473">
        <ele>2</ele>
        <time>2014-06-28T20:11:50.456Z</time>
      </trkpt>
      <trkpt lat="45.89984" lon="-0.83483">
        <ele>2</ele>
        <time>2014-06-28T20:11:58.182Z</time>
      </trkpt>
      <trkpt lat="45.89984" lon="-0.83485">
        <ele>2</ele>
        <time>2014-06-28T20:11:58.435Z</time>
      </trkpt>
      <trkpt lat="45.89987" lon="-0.83495">
        <ele>2</ele>
        <time>2014-06-28T20:12:04.470Z</time>
      </trkpt>
      <trkpt lat="45.89987" lon="-0.83497">
        <ele>2</ele>
        <time>2014-06-28T20:12:05.457Z</time>
      </trkpt>
      <trkpt lat="45.89991" lon="-0.83507">
        <ele>2</ele>
        <time>2014-06-28T20:12:11.626Z</time>
      </trkpt>
      <trkpt lat="45.89992" lon="-0.83509">
        <ele>2</ele>
        <time>2014-06-28T20:12:12.453Z</time>
      </trkpt>
      <trkpt lat="45.89996" lon="-0.83519">
        <ele>2</ele>
        <time>2014-06-28T20:12:18.474Z</time>
      </trkpt>
      <trkpt lat="45.89996" lon="-0.8352">
        <ele>2</ele>
        <time>2014-06-28T20:12:19.448Z</time>
      </trkpt>
      <trkpt lat="45.9" lon="-0.8353">
        <ele>2</ele>
        <time>2014-06-28T20:12:25.563Z</time>
      </trkpt>
      <trkpt lat="45.9" lon="-0.83532">
        <ele>2</ele>
        <time>2014-06-28T20:12:26.447Z</time>
      </trkpt>
      <trkpt lat="45.90003" lon="-0.83543">
        <ele>2</ele>
        <time>2014-06-28T20:12:33.430Z</time>
      </trkpt>
      <trkpt lat="45.90003" lon="-0.83544">
        <ele>2</ele>
        <time>2014-06-28T20:12:34.449Z</time>
      </trkpt>
      <trkpt lat="45.90006" lon="-0.83555">
        <ele>2</ele>
        <time>2014-06-28T20:12:41.525Z</time>
      </trkpt>
      <trkpt lat="45.90007" lon="-0.83557">
        <ele>2</ele>
        <time>2014-06-28T20:12:42.454Z</time>
      </trkpt>
      <trkpt lat="45.9001" lon="-0.83568">
        <ele>2</ele>
        <time>2014-06-28T20:12:49.495Z</time>
      </trkpt>
      <trkpt lat="45.90011" lon="-0.8357">
        <ele>2</ele>
        <time>2014-06-28T20:12:50.458Z</time>
      </trkpt>
      <trkpt lat="45.90014" lon="-0.83581">
        <ele>2</ele>
        <time>2014-06-28T20:12:58.197Z</time>
      </trkpt>
      <trkpt lat="45.90015" lon="-0.83583">
        <ele>2</ele>
        <time>2014-06-28T20:12:58.481Z</time>
      </trkpt>
      <trkpt lat="45.90018" lon="-0.83593">
        <ele>2</ele>
        <time>2014-06-28T20:13:05.471Z</time>
      </trkpt>
      <trkpt lat="45.90018" lon="-0.83595">
        <ele>2</ele>
        <time>2014-06-28T20:13:06.457Z</time>
      </trkpt>
      <trkpt lat="45.90022" lon="-0.83604">
        <ele>2</ele>
        <time>2014-06-28T20:13:13.320Z</time>
      </trkpt>
      <trkpt lat="45.90023" lon="-0.83606">
        <ele>2</ele>
        <time>2014-06-28T20:13:13.439Z</time>
      </trkpt>
      <trkpt lat="45.90026" lon="-0.83617">
        <ele>2</ele>
        <time>2014-06-28T20:13:20.469Z</time>
      </trkpt>
      <trkpt lat="45.90028" lon="-0.83619">
        <ele>2</ele>
        <time>2014-06-28T20:13:21.464Z</time>
      </trkpt>
      <trkpt lat="45.90032" lon="-0.8363">
        <ele>2</ele>
        <time>2014-06-28T20:13:28.552Z</time>
      </trkpt>
      <trkpt lat="45.90032" lon="-0.83632">
        <ele>2</ele>
        <time>2014-06-28T20:13:29.459Z</time>
      </trkpt>
      <trkpt lat="45.90036" lon="-0.83643">
        <ele>2</ele>
        <time>2014-06-28T20:13:36.492Z</time>
      </trkpt>
      <trkpt lat="45.90037" lon="-0.83645">
        <ele>2</ele>
        <time>2014-06-28T20:13:37.458Z</time>
      </trkpt>
      <trkpt lat="45.9004" lon="-0.83655">
        <ele>2</ele>
        <time>2014-06-28T20:13:43.645Z</time>
      </trkpt>
      <trkpt lat="45.90041" lon="-0.83657">
        <ele>2</ele>
        <time>2014-06-28T20:13:44.476Z</time>
      </trkpt>
      <trkpt lat="45.90044" lon="-0.83667">
        <ele>2</ele>
        <time>2014-06-28T20:13:50.462Z</time>
      </trkpt>
      <trkpt lat="45.90045" lon="-0.83668">
        <ele>2</ele>
        <time>2014-06-28T20:13:51.458Z</time>
      </trkpt>
      <trkpt lat="45.90049" lon="-0.83678">
        <ele>2</ele>
        <time>2014-06-28T20:13:58.348Z</time>
      </trkpt>
      <trkpt lat="45.90049" lon="-0.8368">
        <ele>2</ele>
        <time>2014-06-28T20:13:58.440Z</time>
      </trkpt>
      <trkpt lat="45.90053" lon="-0.83691">
        <ele>2</ele>
        <time>2014-06-28T20:14:05.472Z</time>
      </trkpt>
      <trkpt lat="45.90053" lon="-0.83693">
        <ele>2</ele>
        <time>2014-06-28T20:14:06.457Z</time>
      </trkpt>
      <trkpt lat="45.90057" lon="-0.83703">
        <ele>2</ele>
        <time>2014-06-28T20:14:13.417Z</time>
      </trkpt>
      <trkpt lat="45.90057" lon="-0.83705">
        <ele>2</ele>
        <time>2014-06-28T20:14:14.448Z</time>
      </trkpt>
      <trkpt lat="45.90061" lon="-0.83716">
        <ele>2</ele>
        <time>2014-06-28T20:14:21.499Z</time>
      </trkpt>
      <trkpt lat="45.90061" lon="-0.83717">
        <ele>2</ele>
        <time>2014-06-28T20:14:22.458Z</time>
      </trkpt>
      <trkpt lat="45.90065" lon="-0.83728">
        <ele>2</ele>
        <time>2014-06-28T20:14:29.482Z</time>
      </trkpt>
      <trkpt lat="45.90066" lon="-0.8373">
        <ele>2</ele>
        <time>2014-06-28T20:14:30.467Z</time>
      </trkpt>
      <trkpt lat="45.9007" lon="-0.8374">
        <ele>2</ele>
        <time>2014-06-28T20:14:36.494Z</time>
      </trkpt>
      <trkpt lat="45.9007" lon="-0.83742">
        <ele>2</ele>
        <time>2014-06-28T20:14:37.458Z</time>
      </trkpt>
      <trkpt lat="45.90074" lon="-0.83753">
        <ele>2</ele>
        <time>2014-06-28T20:14:44.499Z</time>
      </trkpt>
      <trkpt lat="45.90075" lon="-0.83755">
        <ele>2</ele>
        <time>2014-06-28T20:14:45.459Z</time>
      </trkpt>
      <trkpt lat="45.90078" lon="-0.83764">
        <ele>2</ele>
        <time>2014-06-28T20:14:51.512Z</time>
      </trkpt>
      <trkpt lat="45.90079" lon="-0.83766">
        <ele>2</ele>
        <time>2014-06-28T20:14:52.457Z</time>
      </trkpt>
      <trkpt lat="45.90083" lon="-0.83777">
        <ele>2</ele>
        <time>2014-06-28T20:14:59.472Z</time>
      </trkpt>
      <trkpt lat="45.90083" lon="-0.83779">
        <ele>2</ele>
        <time>2014-06-28T20:15:00.458Z</time>
      </trkpt>
      <trkpt lat="45.90087" lon="-0.8379">
        <ele>2</ele>
        <time>2014-06-28T20:15:08.270Z</time>
      </trkpt>
      <trkpt lat="45.90088" lon="-0.83791">
        <ele>2</ele>
        <time>2014-06-28T20:15:08.442Z</time>
      </trkpt>
      <trkpt lat="45.90091" lon="-0.83803">
        <ele>2</ele>
        <time>2014-06-28T20:15:15.472Z</time>
      </trkpt>
      <trkpt lat="45.90092" lon="-0.83804">
        <ele>2</ele>
        <time>2014-06-28T20:15:16.491Z</time>
      </trkpt>
      <trkpt lat="45.90096" lon="-0.83814">
        <ele>2</ele>
        <time>2014-06-28T20:15:23.542Z</time>
      </trkpt>
      <trkpt lat="45.90096" lon="-0.83816">
        <ele>2</ele>
        <time>2014-06-28T20:15:24.458Z</time>
      </trkpt>
      <trkpt lat="45.90099" lon="-0.83827">
        <ele>2</ele>
        <time>2014-06-28T20:15:30.500Z</time>
      </trkpt>
      <trkpt lat="45.90099" lon="-0.83829">
        <ele>2</ele>
        <time>2014-06-28T20:15:31.459Z</time>
      </trkpt>
      <trkpt lat="45.90103" lon="-0.83839">
        <ele>2</ele>
        <time>2014-06-28T20:15:38.540Z</time>
      </trkpt>
      <trkpt lat="45.90104" lon="-0.83841">
        <ele>2</ele>
        <time>2014-06-28T20:15:39.458Z</time>
      </trkpt>
      <trkpt lat="45.90105" lon="-0.83854">
        <ele>2</ele>
        <time>2014-06-28T20:15:47.490Z</time>
      </trkpt>
      <trkpt lat="45.90104" lon="-0.83855">
        <ele>2</ele>
        <time>2014-06-28T20:15:48.453Z</time>
      </trkpt>
      <trkpt lat="45.90096" lon="-0.8386">
        <ele>2</ele>
        <time>2014-06-28T20:15:56.471Z</time>
      </trkpt>
      <trkpt lat="45.90095" lon="-0.83861">
        <ele>2</ele>
        <time>2014-06-28T20:15:57.455Z</time>
      </trkpt>
      <trkpt lat="45.90087" lon="-0.83865">
        <ele>2</ele>
        <time>2014-06-28T20:16:05.472Z</time>
      </trkpt>
      <trkpt lat="45.90085" lon="-0.83866">
        <ele>2</ele>
        <time>2014-06-28T20:16:06.460Z</time>
      </trkpt>
      <trkpt lat="45.90077" lon="-0.8387">
        <ele>2</ele>
        <time>2014-06-28T20:16:13.537Z</time>
      </trkpt>
      <trkpt lat="45.90076" lon="-0.8387">
        <ele>2</ele>
        <time>2014-06-28T20:16:14.460Z</time>
      </trkpt>
      <trkpt lat="45.90068" lon="-0.83874">
        <ele>3</ele>
        <time>2014-06-28T20:16:22.495Z</time>
      </trkpt>
      <trkpt lat="45.90066" lon="-0.83874">
        <ele>3</ele>
        <time>2014-06-28T20:16:23.459Z</time>
      </trkpt>
      <trkpt lat="45.90059" lon="-0.83878">
        <ele>3</ele>
        <time>2014-06-28T20:16:30.500Z</time>
      </trkpt>
      <trkpt lat="45.90057" lon="-0.83879">
        <ele>3</ele>
        <time>2014-06-28T20:16:31.474Z</time>
      </trkpt>
      <trkpt lat="45.9005" lon="-0.83883">
        <ele>3</ele>
        <time>2014-06-28T20:16:38.622Z</time>
      </trkpt>
      <trkpt lat="45.90049" lon="-0.83884">
        <ele>3</ele>
        <time>2014-06-28T20:16:39.455Z</time>
      </trkpt>
      <trkpt lat="45.90041" lon="-0.83888">
        <ele>3</ele>
        <time>2014-06-28T20:16:46.472Z</time>
      </trkpt>
      <trkpt lat="45.90039" lon="-0.83889">
        <ele>3</ele>
        <time>2014-06-28T20:16:47.472Z</time>
      </trkpt>
      <trkpt lat="45.90031" lon="-0.83893">
        <ele>3</ele>
        <time>2014-06-28T20:16:54.474Z</time>
      </trkpt>
      <trkpt lat="45.9003" lon="-0.83894">
        <ele>3</ele>
        <time>2014-06-28T20:16:55.467Z</time>
      </trkpt>
      <trkpt lat="45.90022" lon="-0.83897">
        <ele>3</ele>
        <time>2014-06-28T20:17:03.229Z</time>
      </trkpt>
      <trkpt lat="45.90021" lon="-0.83897">
        <ele>3</ele>
        <time>2014-06-28T20:17:03.462Z</time>
      </trkpt>
      <trkpt lat="45.90013" lon="-0.83901">
        <ele>3</ele>
        <time>2014-06-28T20:17:09.478Z</time>
      </trkpt>
      <trkpt lat="45.90012" lon="-0.83901">
        <ele>3</ele>
        <time>2014-06-28T20:17:10.563Z</time>
      </trkpt>
      <trkpt lat="45.90005" lon="-0.83906">
        <ele>3</ele>
        <time>2014-06-28T20:17:18.427Z</time>
      </trkpt>
      <trkpt lat="45.90004" lon="-0.83906">
        <ele>3</ele>
        <time>2014-06-28T20:17:18.477Z</time>
      </trkpt>
      <trkpt lat="45.89996" lon="-0.8391">
        <ele>3</ele>
        <time>2014-06-28T20:17:25.467Z</time>
      </trkpt>
      <trkpt lat="45.89995" lon="-0.83911">
        <ele>3</ele>
        <time>2014-06-28T20:17:26.458Z</time>
      </trkpt>
      <trkpt lat="45.89988" lon="-0.83916">
        <ele>3</ele>
        <time>2014-06-28T20:17:32.491Z</time>
      </trkpt>
      <trkpt lat="45.89987" lon="-0.83916">
        <ele>3</ele>
        <time>2014-06-28T20:17:33.479Z</time>
      </trkpt>
      <trkpt lat="45.89978" lon="-0.83921">
        <ele>3</ele>
        <time>2014-06-28T20:17:40.473Z</time>
      </trkpt>
      <trkpt lat="45.89977" lon="-0.83921">
        <ele>3</ele>
        <time>2014-06-28T20:17:41.458Z</time>
      </trkpt>
      <trkpt lat="45.8997" lon="-0.83925">
        <ele>3</ele>
        <time>2014-06-28T20:17:47.476Z</time>
      </trkpt>
      <trkpt lat="45.89968" lon="-0.83926">
        <ele>3</ele>
        <time>2014-06-28T20:17:48.459Z</time>
      </trkpt>
      <trkpt lat="45.89961" lon="-0.83931">
        <ele>3</ele>
        <time>2014-06-28T20:17:55.472Z</time>
      </trkpt>
      <trkpt lat="45.8996" lon="-0.83931">
        <ele>3</ele>
        <time>2014-06-28T20:17:56.441Z</time>
      </trkpt>
      <trkpt lat="45.89953" lon="-0.83937">
        <ele>3</ele>
        <time>2014-06-28T20:18:03.460Z</time>
      </trkpt>
      <trkpt lat="45.89952" lon="-0.83938">
        <ele>3</ele>
        <time>2014-06-28T20:18:04.458Z</time>
      </trkpt>
      <trkpt lat="45.89945" lon="-0.83944">
        <ele>3</ele>
        <time>2014-06-28T20:18:13.332Z</time>
      </trkpt>
      <trkpt lat="45.89944" lon="-0.83944">
        <ele>3</ele>
        <time>2014-06-28T20:18:13.418Z</time>
      </trkpt>
      <trkpt lat="45.89936" lon="-0.83951">
        <ele>3</ele>
        <time>2014-06-28T20:18:21.483Z</time>
      </trkpt>
      <trkpt lat="45.89935" lon="-0.83951">
        <ele>3</ele>
        <time>2014-06-28T20:18:22.459Z</time>
      </trkpt>
      <trkpt lat="45.89928" lon="-0.83958">
        <ele>3</ele>
        <time>2014-06-28T20:18:29.497Z</time>
      </trkpt>
      <trkpt lat="45.89926" lon="-0.83959">
        <ele>3</ele>
        <time>2014-06-28T20:18:30.469Z</time>
      </trkpt>
      <trkpt lat="45.89918" lon="-0.83965">
        <ele>3</ele>
        <time>2014-06-28T20:18:36.492Z</time>
      </trkpt>
      <trkpt lat="45.89917" lon="-0.83966">
        <ele>3</ele>
        <time>2014-06-28T20:18:37.459Z</time>
      </trkpt>
      <trkpt lat="45.89909" lon="-0.83969">
        <ele>3</ele>
        <time>2014-06-28T20:18:44.498Z</time>
      </trkpt>
      <trkpt lat="45.89907" lon="-0.8397">
        <ele>3</ele>
        <time>2014-06-28T20:18:45.458Z</time>
      </trkpt>
      <trkpt lat="45.89899" lon="-0.83972">
        <ele>3</ele>
        <time>2014-06-28T20:18:53.168Z</time>
      </trkpt>
      <trkpt lat="45.89898" lon="-0.83972">
        <ele>3</ele>
        <time>2014-06-28T20:18:53.444Z</time>
      </trkpt>
      <trkpt lat="45.8989" lon="-0.83975">
        <ele>3</ele>
        <time>2014-06-28T20:19:00.473Z</time>
      </trkpt>
      <trkpt lat="45.89889" lon="-0.83975">
        <ele>3</ele>
        <time>2014-06-28T20:19:01.477Z</time>
      </trkpt>
      <trkpt lat="45.8988" lon="-0.83978">
        <ele>3</ele>
        <time>2014-06-28T20:19:08.492Z</time>
      </trkpt>
      <trkpt lat="45.89879" lon="-0.83978">
        <ele>3</ele>
        <time>2014-06-28T20:19:09.458Z</time>
      </trkpt>
      <trkpt lat="45.89871" lon="-0.8398">
        <ele>3</ele>
        <time>2014-06-28T20:19:15.521Z</time>
      </trkpt>
      <trkpt lat="45.8987" lon="-0.8398">
        <ele>3</ele>
        <time>2014-06-28T20:19:16.468Z</time>
      </trkpt>
      <trkpt lat="45.89862" lon="-0.83983">
        <ele>3</ele>
        <time>2014-06-28T20:19:23.357Z</time>
      </trkpt>
      <trkpt lat="45.89861" lon="-0.83983">
        <ele>3</ele>
        <time>2014-06-28T20:19:23.463Z</time>
      </trkpt>
      <trkpt lat="45.89853" lon="-0.83986">
        <ele>3</ele>
        <time>2014-06-28T20:19:29.473Z</time>
      </trkpt>
      <trkpt lat="45.89852" lon="-0.83986">
        <ele>3</ele>
        <time>2014-06-28T20:19:30.459Z</time>
      </trkpt>
      <trkpt lat="45.89844" lon="-0.83989">
        <ele>2</ele>
        <time>2014-06-28T20:19:36.481Z</time>
      </trkpt>
      <trkpt lat="45.89842" lon="-0.8399">
        <ele>2</ele>
        <time>2014-06-28T20:19:37.494Z</time>
      </trkpt>
      <trkpt lat="45.89833" lon="-0.83993">
        <ele>2</ele>
        <time>2014-06-28T20:19:44.486Z</time>
      </trkpt>
      <trkpt lat="45.89833" lon="-0.83992">
        <ele>2</ele>
        <time>2014-06-28T20:19:45.468Z</time>
      </trkpt>
      <trkpt lat="45.89825" lon="-0.83996">
        <ele>2</ele>
        <time>2014-06-28T20:19:51.478Z</time>
      </trkpt>
      <trkpt lat="45.89823" lon="-0.83997">
        <ele>2</ele>
        <time>2014-06-28T20:19:52.465Z</time>
      </trkpt>
      <trkpt lat="45.89816" lon="-0.84">
        <ele>3</ele>
        <time>2014-06-28T20:19:58.487Z</time>
      </trkpt>
      <trkpt lat="45.89814" lon="-0.84">
        <ele>2</ele>
        <time>2014-06-28T20:19:59.463Z</time>
      </trkpt>
      <trkpt lat="45.89806" lon="-0.84002">
        <ele>2</ele>
        <time>2014-06-28T20:20:05.474Z</time>
      </trkpt>
      <trkpt lat="45.89805" lon="-0.84003">
        <ele>2</ele>
        <time>2014-06-28T20:20:06.471Z</time>
      </trkpt>
      <trkpt lat="45.89797" lon="-0.84005">
        <ele>2</ele>
        <time>2014-06-28T20:20:13.361Z</time>
      </trkpt>
      <trkpt lat="45.89796" lon="-0.84006">
        <ele>2</ele>
        <time>2014-06-28T20:20:13.424Z</time>
      </trkpt>
      <trkpt lat="45.89787" lon="-0.84007">
        <ele>2</ele>
        <time>2014-06-28T20:20:19.501Z</time>
      </trkpt>
      <trkpt lat="45.89786" lon="-0.84008">
        <ele>2</ele>
        <time>2014-06-28T20:20:20.474Z</time>
      </trkpt>
      <trkpt lat="45.89778" lon="-0.84008">
        <ele>2</ele>
        <time>2014-06-28T20:20:27.574Z</time>
      </trkpt>
      <trkpt lat="45.89776" lon="-0.84009">
        <ele>2</ele>
        <time>2014-06-28T20:20:28.500Z</time>
      </trkpt>
      <trkpt lat="45.89769" lon="-0.8401">
        <ele>3</ele>
        <time>2014-06-28T20:20:34.512Z</time>
      </trkpt>
      <trkpt lat="45.89767" lon="-0.84009">
        <ele>3</ele>
        <time>2014-06-28T20:20:35.459Z</time>
      </trkpt>
      <trkpt lat="45.89759" lon="-0.8401">
        <ele>3</ele>
        <time>2014-06-28T20:20:41.470Z</time>
      </trkpt>
      <trkpt lat="45.89758" lon="-0.8401">
        <ele>3</ele>
        <time>2014-06-28T20:20:42.487Z</time>
      </trkpt>
      <trkpt lat="45.89749" lon="-0.84011">
        <ele>3</ele>
        <time>2014-06-28T20:20:49.480Z</time>
      </trkpt>
      <trkpt lat="45.89748" lon="-0.84012">
        <ele>3</ele>
        <time>2014-06-28T20:20:50.458Z</time>
      </trkpt>
      <trkpt lat="45.89739" lon="-0.84013">
        <ele>3</ele>
        <time>2014-06-28T20:20:58.223Z</time>
      </trkpt>
      <trkpt lat="45.89737" lon="-0.84012">
        <ele>3</ele>
        <time>2014-06-28T20:20:58.483Z</time>
      </trkpt>
      <trkpt lat="45.89729" lon="-0.84015">
        <ele>3</ele>
        <time>2014-06-28T20:21:04.470Z</time>
      </trkpt>
      <trkpt lat="45.89728" lon="-0.84015">
        <ele>3</ele>
        <time>2014-06-28T20:21:05.463Z</time>
      </trkpt>
      <trkpt lat="45.8972" lon="-0.84017">
        <ele>3</ele>
        <time>2014-06-28T20:21:13.488Z</time>
      </trkpt>
      <trkpt lat="45.89718" lon="-0.84017">
        <ele>3</ele>
        <time>2014-06-28T20:21:14.478Z</time>
      </trkpt>
      <trkpt lat="45.8971" lon="-0.84022">
        <ele>3</ele>
        <time>2014-06-28T20:21:21.533Z</time>
      </trkpt>
      <trkpt lat="45.89709" lon="-0.84023">
        <ele>3</ele>
        <time>2014-06-28T20:21:22.456Z</time>
      </trkpt>
      <trkpt lat="45.89701" lon="-0.84027">
        <ele>3</ele>
        <time>2014-06-28T20:21:29.474Z</time>
      </trkpt>
      <trkpt lat="45.89699" lon="-0.84028">
        <ele>3</ele>
        <time>2014-06-28T20:21:30.482Z</time>
      </trkpt>
      <trkpt lat="45.89692" lon="-0.84033">
        <ele>3</ele>
        <time>2014-06-28T20:21:38.431Z</time>
      </trkpt>
      <trkpt lat="45.89691" lon="-0.84033">
        <ele>3</ele>
        <time>2014-06-28T20:21:38.481Z</time>
      </trkpt>
      <trkpt lat="45.89683" lon="-0.84038">
        <ele>3</ele>
        <time>2014-06-28T20:21:45.468Z</time>
      </trkpt>
      <trkpt lat="45.89682" lon="-0.84039">
        <ele>3</ele>
        <time>2014-06-28T20:21:46.469Z</time>
      </trkpt>
      <trkpt lat="45.89675" lon="-0.84044">
        <ele>3</ele>
        <time>2014-06-28T20:21:53.165Z</time>
      </trkpt>
      <trkpt lat="45.89674" lon="-0.84045">
        <ele>3</ele>
        <time>2014-06-28T20:21:53.484Z</time>
      </trkpt>
      <trkpt lat="45.89665" lon="-0.84049">
        <ele>4</ele>
        <time>2014-06-28T20:22:00.481Z</time>
      </trkpt>
      <trkpt lat="45.89665" lon="-0.84049">
        <ele>4</ele>
        <time>2014-06-28T20:22:01.468Z</time>
      </trkpt>
      <trkpt lat="45.89657" lon="-0.84055">
        <ele>4</ele>
        <time>2014-06-28T20:22:08.476Z</time>
      </trkpt>
      <trkpt lat="45.89656" lon="-0.84056">
        <ele>4</ele>
        <time>2014-06-28T20:22:09.469Z</time>
      </trkpt>
      <trkpt lat="45.89647" lon="-0.8406">
        <ele>4</ele>
        <time>2014-06-28T20:22:18.349Z</time>
      </trkpt>
      <trkpt lat="45.89646" lon="-0.84061">
        <ele>4</ele>
        <time>2014-06-28T20:22:18.444Z</time>
      </trkpt>
      <trkpt lat="45.89639" lon="-0.84065">
        <ele>4</ele>
        <time>2014-06-28T20:22:24.477Z</time>
      </trkpt>
      <trkpt lat="45.89638" lon="-0.84066">
        <ele>4</ele>
        <time>2014-06-28T20:22:25.463Z</time>
      </trkpt>
      <trkpt lat="45.8963" lon="-0.8407">
        <ele>4</ele>
        <time>2014-06-28T20:22:31.507Z</time>
      </trkpt>
      <trkpt lat="45.89629" lon="-0.84071">
        <ele>4</ele>
        <time>2014-06-28T20:22:32.468Z</time>
      </trkpt>
      <trkpt lat="45.89621" lon="-0.84076">
        <ele>3</ele>
        <time>2014-06-28T20:22:38.599Z</time>
      </trkpt>
      <trkpt lat="45.8962" lon="-0.84077">
        <ele>3</ele>
        <time>2014-06-28T20:22:39.468Z</time>
      </trkpt>
      <trkpt lat="45.89613" lon="-0.84082">
        <ele>3</ele>
        <time>2014-06-28T20:22:45.503Z</time>
      </trkpt>
      <trkpt lat="45.89612" lon="-0.84083">
        <ele>3</ele>
        <time>2014-06-28T20:22:46.478Z</time>
      </trkpt>
      <trkpt lat="45.89603" lon="-0.84088">
        <ele>3</ele>
        <time>2014-06-28T20:22:54.482Z</time>
      </trkpt>
      <trkpt lat="45.89602" lon="-0.84088">
        <ele>3</ele>
        <time>2014-06-28T20:22:55.469Z</time>
      </trkpt>
      <trkpt lat="45.89595" lon="-0.84093">
        <ele>3</ele>
        <time>2014-06-28T20:23:01.492Z</time>
      </trkpt>
      <trkpt lat="45.89593" lon="-0.84093">
        <ele>3</ele>
        <time>2014-06-28T20:23:02.486Z</time>
      </trkpt>
      <trkpt lat="45.89585" lon="-0.84098">
        <ele>3</ele>
        <time>2014-06-28T20:23:09.495Z</time>
      </trkpt>
      <trkpt lat="45.89584" lon="-0.84099">
        <ele>3</ele>
        <time>2014-06-28T20:23:10.461Z</time>
      </trkpt>
      <trkpt lat="45.89576" lon="-0.84104">
        <ele>3</ele>
        <time>2014-06-28T20:23:17.481Z</time>
      </trkpt>
      <trkpt lat="45.89575" lon="-0.84104">
        <ele>3</ele>
        <time>2014-06-28T20:23:18.467Z</time>
      </trkpt>
      <trkpt lat="45.89568" lon="-0.84109">
        <ele>3</ele>
        <time>2014-06-28T20:23:24.443Z</time>
      </trkpt>
      <trkpt lat="45.89566" lon="-0.84109">
        <ele>3</ele>
        <time>2014-06-28T20:23:25.464Z</time>
      </trkpt>
      <trkpt lat="45.89559" lon="-0.84114">
        <ele>3</ele>
        <time>2014-06-28T20:23:32.480Z</time>
      </trkpt>
      <trkpt lat="45.89558" lon="-0.84115">
        <ele>3</ele>
        <time>2014-06-28T20:23:33.467Z</time>
      </trkpt>
      <trkpt lat="45.8955" lon="-0.84119">
        <ele>3</ele>
        <time>2014-06-28T20:23:40.892Z</time>
      </trkpt>
      <trkpt lat="45.89548" lon="-0.8412">
        <ele>3</ele>
        <time>2014-06-28T20:23:41.467Z</time>
      </trkpt>
      <trkpt lat="45.89541" lon="-0.84124">
        <ele>3</ele>
        <time>2014-06-28T20:23:47.493Z</time>
      </trkpt>
      <trkpt lat="45.8954" lon="-0.84125">
        <ele>3</ele>
        <time>2014-06-28T20:23:48.469Z</time>
      </trkpt>
      <trkpt lat="45.89531" lon="-0.84128">
        <ele>3</ele>
        <time>2014-06-28T20:23:55.517Z</time>
      </trkpt>
      <trkpt lat="45.8953" lon="-0.84129">
        <ele>3</ele>
        <time>2014-06-28T20:23:56.473Z</time>
      </trkpt>
      <trkpt lat="45.89521" lon="-0.84132">
        <ele>3</ele>
        <time>2014-06-28T20:24:03.480Z</time>
      </trkpt>
      <trkpt lat="45.8952" lon="-0.84133">
        <ele>3</ele>
        <time>2014-06-28T20:24:04.455Z</time>
      </trkpt>
      <trkpt lat="45.89511" lon="-0.84136">
        <ele>3</ele>
        <time>2014-06-28T20:24:11.504Z</time>
      </trkpt>
      <trkpt lat="45.8951" lon="-0.84136">
        <ele>3</ele>
        <time>2014-06-28T20:24:12.466Z</time>
      </trkpt>
      <trkpt lat="45.89502" lon="-0.84138">
        <ele>3</ele>
        <time>2014-06-28T20:24:19.509Z</time>
      </trkpt>
      <trkpt lat="45.89501" lon="-0.84138">
        <ele>3</ele>
        <time>2014-06-28T20:24:20.476Z</time>
      </trkpt>
      <trkpt lat="45.89493" lon="-0.8414">
        <ele>3</ele>
        <time>2014-06-28T20:24:26.501Z</time>
      </trkpt>
      <trkpt lat="45.89491" lon="-0.8414">
        <ele>3</ele>
        <time>2014-06-28T20:24:27.487Z</time>
      </trkpt>
      <trkpt lat="45.89483" lon="-0.84142">
        <ele>3</ele>
        <time>2014-06-28T20:24:33.539Z</time>
      </trkpt>
      <trkpt lat="45.89482" lon="-0.84142">
        <ele>3</ele>
        <time>2014-06-28T20:24:34.471Z</time>
      </trkpt>
      <trkpt lat="45.89473" lon="-0.84144">
        <ele>3</ele>
        <time>2014-06-28T20:24:41.494Z</time>
      </trkpt>
      <trkpt lat="45.89472" lon="-0.84144">
        <ele>3</ele>
        <time>2014-06-28T20:24:42.474Z</time>
      </trkpt>
      <trkpt lat="45.89463" lon="-0.84145">
        <ele>3</ele>
        <time>2014-06-28T20:24:49.493Z</time>
      </trkpt>
      <trkpt lat="45.89462" lon="-0.84145">
        <ele>3</ele>
        <time>2014-06-28T20:24:50.466Z</time>
      </trkpt>
      <trkpt lat="45.89454" lon="-0.84147">
        <ele>3</ele>
        <time>2014-06-28T20:24:56.502Z</time>
      </trkpt>
      <trkpt lat="45.89453" lon="-0.84147">
        <ele>3</ele>
        <time>2014-06-28T20:24:57.530Z</time>
      </trkpt>
      <trkpt lat="45.89445" lon="-0.84148">
        <ele>3</ele>
        <time>2014-06-28T20:25:03.482Z</time>
      </trkpt>
      <trkpt lat="45.89444" lon="-0.84148">
        <ele>3</ele>
        <time>2014-06-28T20:25:04.471Z</time>
      </trkpt>
      <trkpt lat="45.89436" lon="-0.84149">
        <ele>3</ele>
        <time>2014-06-28T20:25:10.511Z</time>
      </trkpt>
      <trkpt lat="45.89434" lon="-0.84149">
        <ele>3</ele>
        <time>2014-06-28T20:25:11.463Z</time>
      </trkpt>
      <trkpt lat="45.89425" lon="-0.84149">
        <ele>3</ele>
        <time>2014-06-28T20:25:18.478Z</time>
      </trkpt>
      <trkpt lat="45.89424" lon="-0.84149">
        <ele>3</ele>
        <time>2014-06-28T20:25:19.448Z</time>
      </trkpt>
      <trkpt lat="45.89416" lon="-0.84149">
        <ele>4</ele>
        <time>2014-06-28T20:25:26.531Z</time>
      </trkpt>
      <trkpt lat="45.89415" lon="-0.84149">
        <ele>4</ele>
        <time>2014-06-28T20:25:27.477Z</time>
      </trkpt>
      <trkpt lat="45.89406" lon="-0.84151">
        <ele>4</ele>
        <time>2014-06-28T20:25:34.478Z</time>
      </trkpt>
      <trkpt lat="45.89405" lon="-0.8415">
        <ele>4</ele>
        <time>2014-06-28T20:25:35.467Z</time>
      </trkpt>
      <trkpt lat="45.89397" lon="-0.8415">
        <ele>4</ele>
        <time>2014-06-28T20:25:41.502Z</time>
      </trkpt>
      <trkpt lat="45.89395" lon="-0.8415">
        <ele>4</ele>
        <time>2014-06-28T20:25:42.465Z</time>
      </trkpt>
      <trkpt lat="45.89387" lon="-0.8415">
        <ele>4</ele>
        <time>2014-06-28T20:25:48.577Z</time>
      </trkpt>
      <trkpt lat="45.89386" lon="-0.8415">
        <ele>4</ele>
        <time>2014-06-28T20:25:49.464Z</time>
      </trkpt>
      <trkpt lat="45.89377" lon="-0.8415">
        <ele>4</ele>
        <time>2014-06-28T20:25:56.477Z</time>
      </trkpt>
      <trkpt lat="45.89376" lon="-0.84151">
        <ele>4</ele>
        <time>2014-06-28T20:25:57.467Z</time>
      </trkpt>
      <trkpt lat="45.89367" lon="-0.84151">
        <ele>4</ele>
        <time>2014-06-28T20:26:03.490Z</time>
      </trkpt>
      <trkpt lat="45.89366" lon="-0.84151">
        <ele>4</ele>
        <time>2014-06-28T20:26:04.439Z</time>
      </trkpt>
      <trkpt lat="45.89358" lon="-0.84152">
        <ele>4</ele>
        <time>2014-06-28T20:26:10.520Z</time>
      </trkpt>
      <trkpt lat="45.89357" lon="-0.84152">
        <ele>4</ele>
        <time>2014-06-28T20:26:11.467Z</time>
      </trkpt>
      <trkpt lat="45.89348" lon="-0.84154">
        <ele>4</ele>
        <time>2014-06-28T20:26:19.489Z</time>
      </trkpt>
      <trkpt lat="45.89346" lon="-0.84154">
        <ele>4</ele>
        <time>2014-06-28T20:26:20.477Z</time>
      </trkpt>
      <trkpt lat="45.89337" lon="-0.84155">
        <ele>5</ele>
        <time>2014-06-28T20:26:27.446Z</time>
      </trkpt>
      <trkpt lat="45.89335" lon="-0.84155">
        <ele>5</ele>
        <time>2014-06-28T20:26:28.441Z</time>
      </trkpt>
      <trkpt lat="45.89328" lon="-0.84159">
        <ele>5</ele>
        <time>2014-06-28T20:26:35.507Z</time>
      </trkpt>
      <trkpt lat="45.89325" lon="-0.84158">
        <ele>5</ele>
        <time>2014-06-28T20:26:36.488Z</time>
      </trkpt>
      <trkpt lat="45.89318" lon="-0.8416">
        <ele>5</ele>
        <time>2014-06-28T20:26:42.490Z</time>
      </trkpt>
      <trkpt lat="45.89316" lon="-0.84161">
        <ele>5</ele>
        <time>2014-06-28T20:26:43.472Z</time>
      </trkpt>
      <trkpt lat="45.89308" lon="-0.84162">
        <ele>5</ele>
        <time>2014-06-28T20:26:49.499Z</time>
      </trkpt>
      <trkpt lat="45.89307" lon="-0.84163">
        <ele>5</ele>
        <time>2014-06-28T20:26:50.479Z</time>
      </trkpt>
      <trkpt lat="45.89299" lon="-0.84167">
        <ele>5</ele>
        <time>2014-06-28T20:26:56.510Z</time>
      </trkpt>
      <trkpt lat="45.89298" lon="-0.84168">
        <ele>5</ele>
        <time>2014-06-28T20:26:57.472Z</time>
      </trkpt>
      <trkpt lat="45.8929" lon="-0.84171">
        <ele>5</ele>
        <time>2014-06-28T20:27:02.481Z</time>
      </trkpt>
      <trkpt lat="45.89289" lon="-0.84172">
        <ele>5</ele>
        <time>2014-06-28T20:27:03.522Z</time>
      </trkpt>
      <trkpt lat="45.89282" lon="-0.84176">
        <ele>5</ele>
        <time>2014-06-28T20:27:09.502Z</time>
      </trkpt>
      <trkpt lat="45.8928" lon="-0.84177">
        <ele>5</ele>
        <time>2014-06-28T20:27:10.478Z</time>
      </trkpt>
      <trkpt lat="45.89272" lon="-0.8418">
        <ele>5</ele>
        <time>2014-06-28T20:27:16.722Z</time>
      </trkpt>
      <trkpt lat="45.89271" lon="-0.84181">
        <ele>5</ele>
        <time>2014-06-28T20:27:17.497Z</time>
      </trkpt>
      <trkpt lat="45.89263" lon="-0.84184">
        <ele>5</ele>
        <time>2014-06-28T20:27:23.487Z</time>
      </trkpt>
      <trkpt lat="45.89262" lon="-0.84185">
        <ele>5</ele>
        <time>2014-06-28T20:27:24.470Z</time>
      </trkpt>
      <trkpt lat="45.89254" lon="-0.84189">
        <ele>5</ele>
        <time>2014-06-28T20:27:31.815Z</time>
      </trkpt>
      <trkpt lat="45.89253" lon="-0.84189">
        <ele>5</ele>
        <time>2014-06-28T20:27:32.488Z</time>
      </trkpt>
      <trkpt lat="45.89245" lon="-0.84192">
        <ele>5</ele>
        <time>2014-06-28T20:27:38.511Z</time>
      </trkpt>
      <trkpt lat="45.89243" lon="-0.84193">
        <ele>5</ele>
        <time>2014-06-28T20:27:39.475Z</time>
      </trkpt>
      <trkpt lat="45.89235" lon="-0.84194">
        <ele>5</ele>
        <time>2014-06-28T20:27:45.519Z</time>
      </trkpt>
      <trkpt lat="45.89234" lon="-0.84195">
        <ele>5</ele>
        <time>2014-06-28T20:27:46.502Z</time>
      </trkpt>
      <trkpt lat="45.89226" lon="-0.84199">
        <ele>5</ele>
        <time>2014-06-28T20:27:53.205Z</time>
      </trkpt>
      <trkpt lat="45.89225" lon="-0.842">
        <ele>5</ele>
        <time>2014-06-28T20:27:53.465Z</time>
      </trkpt>
      <trkpt lat="45.89217" lon="-0.84203">
        <ele>5</ele>
        <time>2014-06-28T20:27:59.483Z</time>
      </trkpt>
      <trkpt lat="45.89216" lon="-0.84203">
        <ele>5</ele>
        <time>2014-06-28T20:28:00.477Z</time>
      </trkpt>
      <trkpt lat="45.89208" lon="-0.84206">
        <ele>5</ele>
        <time>2014-06-28T20:28:06.509Z</time>
      </trkpt>
      <trkpt lat="45.89207" lon="-0.84206">
        <ele>5</ele>
        <time>2014-06-28T20:28:07.478Z</time>
      </trkpt>
      <trkpt lat="45.89198" lon="-0.84208">
        <ele>5</ele>
        <time>2014-06-28T20:28:14.511Z</time>
      </trkpt>
      <trkpt lat="45.89197" lon="-0.84209">
        <ele>5</ele>
        <time>2014-06-28T20:28:15.478Z</time>
      </trkpt>
      <trkpt lat="45.89188" lon="-0.8421">
        <ele>5</ele>
        <time>2014-06-28T20:28:22.483Z</time>
      </trkpt>
      <trkpt lat="45.89186" lon="-0.84211">
        <ele>5</ele>
        <time>2014-06-28T20:28:23.430Z</time>
      </trkpt>
      <trkpt lat="45.89178" lon="-0.84212">
        <ele>5</ele>
        <time>2014-06-28T20:28:29.500Z</time>
      </trkpt>
      <trkpt lat="45.89177" lon="-0.84212">
        <ele>5</ele>
        <time>2014-06-28T20:28:30.469Z</time>
      </trkpt>
      <trkpt lat="45.89169" lon="-0.84214">
        <ele>5</ele>
        <time>2014-06-28T20:28:36.512Z</time>
      </trkpt>
      <trkpt lat="45.89168" lon="-0.84214">
        <ele>5</ele>
        <time>2014-06-28T20:28:37.497Z</time>
      </trkpt>
      <trkpt lat="45.8916" lon="-0.8421">
        <ele>5</ele>
        <time>2014-06-28T20:28:45.504Z</time>
      </trkpt>
      <trkpt lat="45.89159" lon="-0.84209">
        <ele>5</ele>
        <time>2014-06-28T20:28:46.480Z</time>
      </trkpt>
      <trkpt lat="45.89157" lon="-0.84197">
        <ele>5</ele>
        <time>2014-06-28T20:28:53.535Z</time>
      </trkpt>
      <trkpt lat="45.89156" lon="-0.84195">
        <ele>5</ele>
        <time>2014-06-28T20:28:54.466Z</time>
      </trkpt>
      <trkpt lat="45.89153" lon="-0.84184">
        <ele>5</ele>
        <time>2014-06-28T20:29:01.501Z</time>
      </trkpt>
      <trkpt lat="45.89153" lon="-0.84182">
        <ele>5</ele>
        <time>2014-06-28T20:29:02.469Z</time>
      </trkpt>
      <trkpt lat="45.89151" lon="-0.84171">
        <ele>5</ele>
        <time>2014-06-28T20:29:09.548Z</time>
      </trkpt>
      <trkpt lat="45.89151" lon="-0.84169">
        <ele>5</ele>
        <time>2014-06-28T20:29:10.482Z</time>
      </trkpt>
      <trkpt lat="45.89148" lon="-0.84158">
        <ele>5</ele>
        <time>2014-06-28T20:29:16.519Z</time>
      </trkpt>
      <trkpt lat="45.89147" lon="-0.84156">
        <ele>5</ele>
        <time>2014-06-28T20:29:17.487Z</time>
      </trkpt>
      <trkpt lat="45.89144" lon="-0.84145">
        <ele>5</ele>
        <time>2014-06-28T20:29:24.482Z</time>
      </trkpt>
      <trkpt lat="45.89144" lon="-0.84143">
        <ele>5</ele>
        <time>2014-06-28T20:29:25.470Z</time>
      </trkpt>
      <trkpt lat="45.89142" lon="-0.84131">
        <ele>5</ele>
        <time>2014-06-28T20:29:33.608Z</time>
      </trkpt>
      <trkpt lat="45.89142" lon="-0.84129">
        <ele>5</ele>
        <time>2014-06-28T20:29:34.478Z</time>
      </trkpt>
      <trkpt lat="45.89137" lon="-0.84118">
        <ele>5</ele>
        <time>2014-06-28T20:29:40.484Z</time>
      </trkpt>
      <trkpt lat="45.89138" lon="-0.84116">
        <ele>5</ele>
        <time>2014-06-28T20:29:41.471Z</time>
      </trkpt>
      <trkpt lat="45.89135" lon="-0.84106">
        <ele>5</ele>
        <time>2014-06-28T20:29:49.512Z</time>
      </trkpt>
      <trkpt lat="45.89134" lon="-0.84103">
        <ele>5</ele>
        <time>2014-06-28T20:29:50.479Z</time>
      </trkpt>
      <trkpt lat="45.89131" lon="-0.84092">
        <ele>5</ele>
        <time>2014-06-28T20:29:58.291Z</time>
      </trkpt>
      <trkpt lat="45.89131" lon="-0.84091">
        <ele>5</ele>
        <time>2014-06-28T20:29:58.430Z</time>
      </trkpt>
      <trkpt lat="45.89125" lon="-0.84084">
        <ele>5</ele>
        <time>2014-06-28T20:30:04.492Z</time>
      </trkpt>
      <trkpt lat="45.89123" lon="-0.84083">
        <ele>5</ele>
        <time>2014-06-28T20:30:05.500Z</time>
      </trkpt>
      <trkpt lat="45.89116" lon="-0.84078">
        <ele>5</ele>
        <time>2014-06-28T20:30:11.509Z</time>
      </trkpt>
      <trkpt lat="45.89115" lon="-0.84077">
        <ele>5</ele>
        <time>2014-06-28T20:30:12.474Z</time>
      </trkpt>
      <trkpt lat="45.8911" lon="-0.84067">
        <ele>5</ele>
        <time>2014-06-28T20:30:19.509Z</time>
      </trkpt>
      <trkpt lat="45.89109" lon="-0.84066">
        <ele>5</ele>
        <time>2014-06-28T20:30:20.483Z</time>
      </trkpt>
      <trkpt lat="45.89103" lon="-0.84058">
        <ele>5</ele>
        <time>2014-06-28T20:30:30.490Z</time>
      </trkpt>
      <trkpt lat="45.89102" lon="-0.84057">
        <ele>5</ele>
        <time>2014-06-28T20:30:31.477Z</time>
      </trkpt>
      <trkpt lat="45.891" lon="-0.84069">
        <ele>6</ele>
        <time>2014-06-28T20:35:32.532Z</time>
      </trkpt>
      <trkpt lat="45.891" lon="-0.8407">
        <ele>6</ele>
        <time>2014-06-28T20:35:33.497Z</time>
      </trkpt>
      <trkpt lat="45.891" lon="-0.84071">
        <ele>6</ele>
        <time>2014-06-28T20:39:10.654Z</time>
      </trkpt>
    </trkseg>
  </trk>
</gpx>